GFSSGP_925_thetae_000.txt.gz
Theta_e
322 325 325 327 330 325 326 323 321 321 321 320 319 321 321 322 325 327 319 320 324 324 327 325 328 329 328 330 332 333 334 334 334 335 334 334 334 335 335 335 336 337 337 338 339 339 338 337 336
322 323 325 329 328 329 325 321 320 321 319 318 318 320 320 322 320 316 316 317 321 322 323 322 324 326 326 328 327 329 332 333 333 333 332 331 331 331 331 331 329 330 332 333 334 335 335 335 338
321 322 328 330 328 324 322 320 319 318 317 318 319 317 318 320 318 316 315 316 319 320 320 320 322 323 324 324 324 325 328 327 328 329 327 325 327 327 326 327 326 327 328 328 331 330 329 328 328
322 322 322 321 322 321 320 319 318 317 318 317 319 318 315 314 317 317 311 315 318 318 318 319 320 320 320 319 319 319 320 320 323 320 318 316 318 317 318 317 317 316 317 319 323 323 323 325 327
319 323 325 325 322 320 319 318 318 318 317 316 317 318 317 313 314 312 309 313 316 317 316 315 317 317 316 316 316 315 314 313 315 314 312 310 310 310 310 310 310 311 311 311 314 310 305 306 311
322 321 324 324 324 321 319 318 318 317 317 316 316 315 316 313 311 308 307 308 313 315 314 310 313 313 312 311 311 310 310 309 307 305 306 303 301 298 299 299 304 303 301 304 305 301 300 298 299
324 327 326 324 323 322 320 317 317 317 317 316 317 317 313 310 310 308 306 306 306 308 309 307 306 306 305 304 303 303 302 301 298 297 296 296 297 296 296 296 296 296 297 297 297 297 297 297 297
319 321 322 322 322 322 319 317 317 317 317 315 315 315 316 311 309 307 305 304 304 304 304 304 304 302 300 298 297 298 297 296 296 296 297 300 301 299 296 295 295 296 296 297 298 298 297 297 301
321 321 323 324 323 322 316 317 314 313 314 315 314 314 310 310 308 305 304 304 303 303 303 303 303 302 302 300 295 295 295 295 298 298 299 299 298 296 297 296 296 297 298 303 303 303 303 300 298
321 326 325 321 319 319 319 316 316 314 313 314 314 311 309 309 306 305 304 303 303 302 302 301 302 301 301 300 297 299 298 299 298 297 297 297 297 296 297 296 296 295 296 297 298 299 298 296 297
321 322 321 320 319 317 317 316 316 316 315 314 313 312 307 307 305 304 304 304 304 303 301 301 301 301 300 298 299 298 298 297 297 296 296 296 296 296 296 295 295 295 295 294 294 294 294 295 295
320 320 320 320 317 317 316 317 316 314 314 316 316 314 307 307 304 304 305 306 305 304 302 301 300 300 299 298 298 299 298 298 297 296 295 296 296 295 295 294 294 294 294 293 293 293 293 294 294
319 319 319 318 317 316 316 315 315 314 314 313 313 312 309 307 306 306 306 307 307 305 303 301 299 299 299 299 298 299 298 297 297 296 294 295 294 294 294 294 294 294 293 292 292 292 293 293 293
318 318 317 317 317 317 316 315 316 315 314 314 314 310 309 308 308 308 307 307 307 306 304 301 299 299 299 299 298 298 298 297 296 296 294 293 293 293 293 293 293 293 292 291 291 292 292 292 293
316 315 316 316 316 316 317 315 315 314 315 313 313 312 310 309 310 308 308 307 307 307 304 301 299 298 298 298 298 298 297 296 295 295 294 292 292 293 292 292 292 291 291 290 290 291 291 291 292
316 317 317 318 317 315 314 315 316 314 314 314 311 311 311 310 309 310 310 308 307 306 303 300 298 298 298 297 297 297 296 295 294 294 293 292 292 292 291 291 291 291 290 290 290 290 291 290 291
316 318 318 319 317 315 314 316 315 316 315 313 311 310 311 311 310 311 311 309 307 306 302 300 298 298 297 297 296 296 296 294 293 292 292 291 291 291 290 291 290 289 289 289 289 290 289 290 290
318 318 317 316 317 315 314 314 314 313 313 312 313 312 311 311 310 311 310 309 307 305 301 299 297 297 296 296 295 295 294 293 292 292 291 291 290 290 289 289 289 289 288 288 289 289 289 289 290
316 316 316 316 316 315 315 315 314 313 313 313 313 313 312 310 310 312 309 309 307 304 300 298 297 296 296 295 294 293 293 292 292 291 290 290 290 289 289 289 288 288 288 288 288 288 289 289 289
315 314 315 315 315 314 314 315 314 313 313 314 313 313 312 310 310 306 307 308 306 303 300 298 297 296 295 295 293 293 292 292 291 290 290 289 289 288 288 288 288 288 287 287 287 288 289 288 290
315 314 314 314 314 312 312 313 313 313 313 312 312 312 309 309 309 305 303 305 304 301 299 298 296 296 295 294 293 293 293 292 291 290 290 289 289 288 288 288 288 287 286 286 287 287 288 288 287
314 314 315 315 315 316 314 316 313 313 312 311 311 311 308 307 309 305 302 302 301 300 298 297 296 296 295 294 293 293 292 290 291 291 290 289 289 288 288 288 287 286 286 286 286 286 287 286 286
315 312 313 315 315 315 315 314 313 312 312 311 310 312 310 309 306 304 302 302 301 300 298 297 296 295 294 294 293 293 291 291 291 290 290 289 288 287 288 287 286 286 285 285 285 285 285 285 286
310 312 312 312 311 314 312 313 313 312 312 312 310 310 309 307 305 303 302 302 301 300 298 297 296 295 294 293 292 292 291 291 291 290 289 288 287 287 287 286 286 285 284 284 284 284 284 283 283
310 314 315 316 315 317 312 312 314 315 311 310 310 309 308 307 304 302 300 299 299 298 297 297 296 295 294 293 292 291 291 291 291 290 289 287 287 286 286 286 285 284 284 283 282 282 281 282 282
310 313 317 316 314 314 310 314 314 313 312 310 309 308 308 306 304 302 300 299 299 298 297 296 295 294 294 292 292 291 290 290 290 290 289 288 287 286 285 285 285 283 282 281 281 280 280 280 281
312 312 314 315 308 314 314 312 312 313 312 310 308 307 307 306 305 304 301 299 299 297 296 295 295 294 293 292 291 290 290 290 289 289 288 288 286 285 285 284 284 283 281 280 279 279 279 279 279
309 309 313 314 312 311 312 312 314 314 314 310 310 308 307 305 305 303 302 300 299 298 296 295 294 294 293 292 290 290 289 289 289 288 287 286 285 285 285 284 283 281 280 279 279 278 278 278 278
306 309 309 310 316 313 313 314 312 312 313 311 309 310 310 307 304 302 301 301 300 298 296 295 294 293 293 291 290 289 288 288 287 287 286 286 285 284 284 283 282 280 279 279 278 277 277 276 276
308 309 310 312 311 310 313 314 312 310 308 307 308 309 308 307 306 303 301 299 299 297 296 294 293 293 292 291 289 288 287 287 286 285 285 284 283 283 283 281 280 279 278 277 277 276 275 274 274

GFSSGP_925_thetae_003.txt.gz
Theta_e
322 323 324 325 322 317 321 322 319 319 319 316 317 318 319 319 323 323 322 325 326 326 325 328 330 331 332 333 333 333 334 334 334 334 334 335 334 335 335 334 334 335 335 335 335 336 335 336 336
321 323 324 321 322 323 321 318 318 318 317 315 316 318 317 320 317 317 318 323 324 327 325 325 327 327 329 329 331 332 333 334 334 334 333 332 333 333 333 333 333 332 332 333 332 332 330 328 330
320 321 322 322 321 321 318 317 315 316 315 316 317 316 316 318 315 316 317 322 322 324 323 322 325 328 328 328 327 332 332 333 332 331 329 329 327 326 325 324 323 323 324 326 329 327 326 326 327
320 318 314 316 318 316 317 316 314 314 315 315 315 317 314 315 317 316 316 320 320 321 319 321 324 326 325 325 326 327 326 329 324 322 321 321 320 318 316 314 315 314 313 316 317 316 314 311 313
318 315 321 319 317 316 316 314 313 315 314 314 315 315 315 313 316 316 315 318 319 320 319 320 321 321 321 320 320 319 319 322 317 315 313 312 312 312 311 312 312 311 312 313 312 312 310 309 304
316 313 317 319 320 318 316 314 313 314 314 313 314 314 314 311 313 312 314 317 318 318 317 317 317 317 316 317 317 315 315 314 313 311 309 308 306 305 304 306 308 307 309 310 310 310 309 309 309
319 319 321 321 320 318 317 314 315 314 312 313 312 314 311 308 310 310 311 315 317 316 315 312 312 311 310 311 308 307 305 304 302 301 298 298 297 297 296 296 297 297 301 307 308 308 308 308 309
314 314 318 317 318 319 315 315 315 313 314 312 312 313 313 308 309 308 307 309 313 314 314 309 309 308 306 305 304 302 302 299 298 297 297 298 297 297 296 296 297 297 302 306 307 306 305 300 299
318 315 316 318 320 319 315 315 314 312 313 314 313 313 311 311 308 306 305 305 306 307 307 307 305 303 302 301 300 299 298 296 296 298 300 300 297 297 297 296 296 298 300 300 299 299 295 295 296
317 318 319 318 317 317 316 314 312 314 312 312 313 307 309 309 306 304 303 302 303 305 305 305 304 303 303 302 298 297 296 297 299 299 299 298 296 297 297 296 295 295 295 295 294 294 295 295 295
316 316 317 317 317 315 315 315 313 312 312 310 310 309 305 303 303 303 303 302 303 304 304 304 303 302 302 301 297 298 299 299 299 298 297 297 296 296 296 295 296 296 295 295 295 295 294 294 294
319 317 317 318 317 316 315 314 315 311 314 312 309 309 304 302 302 302 302 303 303 303 303 303 302 302 301 300 299 299 298 298 297 297 296 296 296 296 295 295 295 295 295 295 295 295 294 293 293
318 317 316 315 314 314 315 314 313 312 310 309 309 309 305 304 303 303 304 303 303 303 303 303 302 301 301 299 298 299 298 298 298 297 296 296 296 295 295 295 295 295 294 294 294 293 293 292 292
316 316 314 313 314 314 315 314 314 312 311 310 310 309 305 305 304 303 303 303 304 304 304 303 302 301 300 299 298 298 298 298 297 296 295 296 295 294 294 294 294 294 293 293 293 292 292 291 291
315 315 312 314 313 314 314 313 313 314 311 311 310 309 307 305 306 304 305 303 305 305 304 304 302 300 300 299 298 298 298 298 297 296 294 294 294 294 294 294 293 293 292 292 292 292 291 291 290
315 314 314 313 313 314 313 314 313 311 310 310 310 307 307 306 306 307 307 306 305 306 305 304 301 300 299 299 298 298 298 297 296 296 295 293 293 293 293 293 293 293 292 292 291 291 290 290 290
312 312 313 315 314 313 313 314 312 310 309 310 308 307 308 309 305 308 308 308 307 306 306 304 301 300 299 298 298 298 297 296 295 295 294 293 292 293 292 292 292 292 291 291 290 290 289 289 289
311 313 313 314 314 313 312 313 313 310 310 308 308 307 306 309 309 309 309 308 308 306 306 303 300 299 298 298 297 297 296 295 294 294 293 292 292 292 292 292 292 291 290 290 289 289 289 289 289
312 311 311 313 313 314 315 314 314 312 310 309 309 310 311 309 308 309 309 308 306 304 302 300 299 298 298 297 297 296 295 294 293 293 292 292 291 291 291 290 290 289 289 289 289 289 289 289 289
312 312 311 312 310 311 312 313 312 310 312 312 311 311 311 308 306 305 306 305 304 302 300 299 298 298 297 297 296 295 295 293 293 292 291 291 290 290 290 290 289 289 289 289 288 288 288 288 289
312 312 312 312 312 310 310 311 311 310 310 311 311 310 310 307 305 304 300 302 302 299 298 298 298 298 297 296 295 294 294 293 291 291 290 290 290 290 290 289 289 288 289 289 288 288 288 288 287
313 311 312 312 313 314 311 314 311 310 310 309 310 311 307 304 304 302 301 299 300 298 298 298 298 297 296 296 294 294 292 291 291 291 290 290 289 289 289 288 288 288 288 289 288 287 287 287 287
313 312 312 313 312 312 313 312 313 309 309 310 311 311 309 303 304 302 302 303 300 298 297 297 297 296 295 295 294 293 292 291 292 291 290 289 289 288 288 288 288 287 288 288 287 286 286 286 286
310 311 311 310 308 313 310 311 311 309 310 310 310 310 309 304 303 303 302 301 299 298 297 296 296 295 295 295 294 293 292 292 291 290 290 289 289 288 288 288 287 287 287 288 287 286 285 285 284
310 310 311 311 311 315 309 309 313 311 309 309 310 310 309 305 302 300 298 298 297 296 296 295 295 294 294 294 294 293 292 292 292 291 290 289 288 288 288 287 286 286 286 287 286 285 284 283 283
308 311 312 310 312 313 306 312 313 310 310 308 308 309 307 304 302 300 299 298 297 296 296 296 295 294 294 294 293 293 292 292 292 291 290 290 289 289 288 287 286 286 285 286 285 284 283 282 281
310 311 311 312 299 310 313 311 310 311 310 308 308 305 306 304 301 300 297 297 296 296 296 296 295 295 294 293 293 292 292 291 291 290 290 290 290 289 287 286 286 285 284 284 284 283 282 281 280
309 308 312 311 312 312 313 310 313 312 313 311 308 305 305 304 302 301 298 296 297 297 296 296 295 294 293 293 293 292 291 291 291 290 290 289 289 288 287 285 285 284 283 284 283 282 281 280 280
308 309 309 310 312 314 313 314 312 311 311 310 307 305 303 304 302 301 300 299 298 297 296 295 295 294 294 293 292 291 291 290 290 290 289 289 289 287 286 285 284 283 283 283 282 281 280 279 278
307 309 309 312 311 309 313 314 311 307 308 305 308 307 306 306 304 300 300 298 297 296 296 295 294 294 294 292 291 291 290 289 289 289 288 289 288 286 285 284 283 283 283 282 281 279 278 278 277

GFSSGP_925_thetae_006.txt.gz
Theta_e
322 322 323 324 320 316 319 321 317 318 318 315 316 318 318 319 321 321 325 328 327 328 329 332 335 335 335 336 335 336 335 336 336 335 336 334 334 334 333 333 333 333 333 334 334 333 331 333 334
321 322 323 317 322 320 319 317 318 316 316 313 316 316 317 319 317 317 323 326 326 326 327 328 331 330 334 334 333 333 334 334 334 333 332 332 332 332 331 330 330 330 331 331 331 330 328 328 330
320 320 321 320 318 320 318 316 314 316 314 315 316 314 315 317 315 317 320 325 325 325 323 325 327 328 328 328 331 332 331 333 332 331 330 330 329 327 325 323 322 321 323 324 322 320 319 319 321
320 316 311 318 321 317 316 314 314 314 315 314 314 316 313 315 316 318 320 324 325 325 323 324 327 330 326 324 327 332 331 331 330 328 326 324 322 319 317 316 316 314 315 316 316 315 313 307 306
317 313 318 319 316 314 313 314 311 314 314 314 313 314 314 313 316 317 320 322 323 323 321 322 327 327 324 323 328 328 330 325 322 320 317 314 313 312 312 312 310 309 311 312 312 312 310 309 308
314 311 316 318 317 317 314 312 313 313 313 313 314 313 312 311 315 316 319 321 321 321 320 320 324 323 323 323 322 320 323 315 310 306 305 305 306 304 304 302 300 304 309 309 309 309 310 311 311
317 317 319 317 319 318 315 310 312 313 312 313 311 313 311 307 315 316 317 319 319 319 318 319 320 320 320 317 312 312 316 312 309 307 307 305 301 298 297 300 303 308 309 309 308 308 303 303 304
313 312 316 315 316 318 315 313 314 312 312 310 309 313 312 308 312 313 316 318 318 318 317 317 317 316 315 313 310 310 310 307 307 304 300 298 297 296 296 297 300 307 307 305 305 299 296 296 296
313 312 314 315 319 316 314 314 313 311 313 312 311 311 310 310 309 309 312 316 316 316 316 314 313 312 310 309 310 311 306 303 301 301 298 298 297 297 297 298 298 297 297 297 297 296 295 295 295
315 313 313 313 316 316 315 312 313 313 312 311 311 309 308 308 306 304 304 304 313 315 315 314 310 310 308 306 307 306 303 299 297 298 299 298 297 297 297 296 296 296 296 295 295 295 295 295 295
315 315 315 316 315 314 315 313 312 312 311 309 310 309 305 304 303 303 303 303 306 310 311 311 309 307 304 302 303 302 300 297 297 299 299 298 297 297 296 296 296 296 295 295 295 295 295 295 294
317 314 314 316 317 314 314 313 313 309 314 311 308 308 303 303 303 303 303 303 303 304 307 307 307 305 303 302 300 299 297 298 299 299 298 298 297 297 296 296 296 296 295 295 295 295 295 294 294
316 316 315 314 313 312 313 312 313 311 309 308 307 307 304 304 304 304 305 305 303 303 304 305 305 304 303 303 300 297 298 299 299 298 297 297 296 296 296 296 296 295 295 295 295 295 294 294 293
314 315 313 312 313 313 314 313 313 314 311 309 309 308 304 304 304 304 303 303 304 304 304 304 304 304 303 302 301 299 299 299 298 297 297 297 296 296 296 296 295 295 294 294 294 294 294 293 293
314 314 311 312 312 312 311 313 312 313 312 310 309 307 306 304 306 304 305 304 305 305 304 304 303 303 302 302 301 299 299 298 298 297 296 297 296 295 295 295 295 294 294 294 293 293 293 292 292
314 313 312 311 310 312 312 314 312 311 310 310 309 307 306 306 305 307 307 306 305 304 305 305 303 303 302 301 301 299 299 299 298 297 295 296 295 294 294 295 294 294 293 293 293 293 292 292 292
310 310 310 311 311 313 311 313 312 310 308 309 309 306 306 307 305 307 307 308 307 307 305 304 304 303 302 301 300 299 298 298 298 297 295 294 294 294 294 294 293 293 293 293 293 292 292 291 291
311 310 310 311 312 312 312 312 313 311 308 307 307 305 304 305 307 310 308 309 308 307 305 305 303 302 301 300 299 299 298 298 298 297 296 294 293 293 293 293 293 293 293 292 292 291 290 290 290
309 309 310 309 310 313 312 313 313 313 310 307 308 310 310 310 310 310 310 310 307 305 304 303 301 300 300 299 299 298 298 297 297 296 295 294 292 292 292 292 292 292 292 291 291 290 290 289 289
311 311 311 311 310 309 310 311 311 310 312 311 311 311 310 310 310 304 306 307 305 304 302 301 300 300 300 299 297 297 296 296 296 295 294 293 292 292 292 292 292 291 291 290 290 290 289 289 288
311 312 312 312 310 308 308 311 309 309 309 310 308 309 311 311 312 306 302 304 303 301 301 300 299 299 299 298 297 296 295 294 294 293 293 292 291 291 291 291 291 290 290 290 289 289 289 288 287
313 310 311 310 310 312 309 314 310 309 309 309 309 309 309 309 307 306 301 299 300 300 299 299 298 298 298 298 297 295 295 294 292 292 292 292 291 290 290 290 290 290 289 288 288 288 289 288 287
313 310 309 310 310 310 311 311 312 309 309 309 310 308 309 309 303 303 300 301 300 299 298 298 298 298 297 297 296 295 294 294 293 292 292 291 290 289 289 289 289 289 289 288 288 288 289 288 287
309 311 309 307 307 312 310 310 311 308 309 309 309 309 308 309 304 302 301 301 298 297 297 297 297 297 296 296 295 295 294 294 292 292 291 290 290 289 288 289 288 288 288 288 287 287 287 287 286
310 310 311 310 309 314 308 308 313 310 310 308 309 309 308 308 302 301 299 298 295 295 296 296 296 295 296 296 295 295 294 293 293 292 291 289 289 289 288 288 288 287 287 287 286 286 286 286 285
308 309 314 311 312 314 305 310 311 308 308 307 306 306 306 304 302 301 299 298 297 295 295 295 295 295 295 295 295 294 294 293 292 292 291 290 289 289 289 288 287 287 287 286 286 286 285 285 284
308 310 309 312 296 306 312 310 310 309 309 308 306 305 305 303 302 301 298 297 296 295 295 295 295 295 295 294 293 293 293 292 291 292 291 291 290 289 289 288 287 286 286 286 286 285 284 284 283
308 308 311 310 315 312 311 311 313 311 310 306 306 307 305 302 303 300 298 296 297 297 296 296 296 295 294 294 293 293 293 293 291 291 291 290 290 289 289 288 287 286 285 285 284 284 283 283 282
307 309 308 310 314 316 316 315 308 308 308 307 307 307 302 302 303 301 299 298 298 297 297 296 295 295 295 295 294 293 292 292 291 291 290 290 290 290 289 288 286 285 285 284 283 283 282 282 282
305 309 311 313 314 310 313 314 312 312 310 310 308 308 305 302 301 300 300 298 297 296 296 296 295 295 296 295 293 293 292 291 291 290 290 290 289 289 289 287 286 285 284 283 283 282 281 282 281

GFSSGP_925_thetae_009.txt.gz
Theta_e
321 322 323 322 319 316 318 318 316 317 317 315 315 315 316 317 320 320 323 329 329 331 331 331 333 336 337 336 336 336 337 337 338 338 338 335 335 334 333 334 334 335 335 335 334 331 332 333 333
320 322 323 315 321 317 316 316 316 315 315 314 315 315 317 319 318 319 324 328 329 331 330 331 333 334 337 336 335 335 336 335 335 334 334 332 333 332 331 330 330 330 332 331 329 326 325 326 326
319 320 320 318 316 320 318 314 313 315 313 314 315 313 315 317 315 318 324 328 327 329 328 329 333 334 335 336 335 335 336 334 332 331 331 332 330 329 327 324 324 324 325 324 321 319 316 316 317
320 315 310 319 322 318 316 314 312 315 314 312 313 315 312 315 316 318 322 327 327 326 327 327 329 332 334 333 333 333 332 331 331 330 331 328 326 323 320 318 316 317 318 316 313 308 304 303 304
316 311 315 317 316 313 311 311 311 313 314 313 312 313 313 312 315 318 321 326 326 325 324 325 328 332 331 327 330 330 330 332 330 329 326 324 319 317 315 313 312 311 311 312 305 303 304 304 309
313 309 316 317 316 314 313 311 311 313 312 312 313 313 312 310 314 318 320 324 325 325 323 322 326 330 329 325 328 330 330 329 326 324 321 318 316 315 314 313 312 312 313 312 311 310 305 303 302
316 315 317 314 317 316 316 308 313 312 313 312 310 314 311 308 314 317 320 322 324 324 322 321 323 326 326 328 328 327 327 324 321 318 315 313 308 306 308 305 310 312 312 311 308 302 300 300 299
311 311 315 313 315 317 315 311 312 311 312 309 309 313 312 310 313 316 320 321 322 322 321 320 321 322 322 322 322 323 323 319 316 314 312 309 301 298 298 299 308 310 309 307 301 297 297 297 297
309 310 312 313 315 317 313 314 312 310 312 311 309 310 309 309 313 317 318 318 319 320 319 319 319 319 319 318 317 318 318 313 311 310 305 298 297 297 298 300 305 305 303 302 298 296 296 296 296
314 309 310 310 314 315 314 312 312 313 311 310 310 308 307 308 310 311 311 313 317 318 318 318 318 317 317 316 314 313 311 309 307 304 300 299 297 297 299 299 298 297 297 296 296 296 295 296 295
314 314 313 314 313 314 314 312 311 311 311 308 310 309 304 304 304 306 308 312 315 316 317 317 316 316 315 314 313 312 310 307 305 302 299 298 297 297 297 297 296 297 297 296 296 296 296 295 295
316 313 313 314 315 315 314 312 311 309 314 310 307 308 304 303 302 303 304 306 310 313 315 316 315 314 313 311 310 309 308 305 301 299 299 299 297 297 297 297 297 297 296 296 296 296 295 295 294
315 315 314 312 313 312 312 311 311 310 310 307 306 306 304 303 304 305 305 305 304 306 311 314 314 313 311 310 307 306 305 303 298 299 299 299 297 297 297 296 296 296 296 295 295 295 294 294 294
313 313 312 311 312 312 314 314 312 312 310 309 307 306 304 303 304 304 304 304 305 304 306 308 311 312 310 308 304 302 302 301 298 298 299 299 298 297 296 296 296 296 296 296 295 295 295 295 294
313 313 309 309 310 311 310 311 310 312 311 309 307 306 305 303 305 304 306 304 306 306 304 305 306 308 308 307 304 302 301 298 298 299 299 298 297 296 296 295 295 295 295 295 295 295 294 294 294
311 311 311 310 309 311 311 311 312 309 309 309 308 306 305 305 305 306 307 307 306 305 306 305 304 305 306 306 304 303 300 298 299 299 298 297 297 296 295 295 295 295 294 294 294 294 293 293 293
308 309 309 309 309 311 310 311 311 311 308 308 307 306 306 306 305 306 308 308 307 307 305 305 304 304 304 304 303 303 301 299 299 298 298 297 297 296 295 294 294 294 293 293 293 293 293 293 293
310 308 308 308 310 310 311 310 310 311 308 308 308 308 309 309 308 310 309 310 308 307 306 305 303 302 302 301 302 301 301 299 299 299 298 296 296 295 294 294 294 293 293 292 292 292 292 292 292
308 307 308 308 309 310 310 311 311 311 310 311 307 309 310 309 310 310 310 309 309 307 305 304 302 301 300 299 299 299 299 298 298 298 298 297 295 294 293 293 293 292 292 292 292 292 291 291 291
309 310 310 311 310 307 309 310 309 308 309 310 311 310 310 309 309 308 306 307 307 307 304 302 302 300 299 299 299 298 297 297 298 298 297 297 294 293 293 293 292 292 292 291 291 291 291 290 289
309 310 311 311 309 307 307 311 310 307 307 308 309 309 309 309 309 309 302 303 306 304 304 302 301 300 299 299 298 298 296 296 296 296 297 296 294 293 292 292 292 292 291 292 292 291 290 290 288
311 308 309 310 310 312 308 312 310 309 309 308 308 308 307 307 307 306 304 300 304 305 303 301 300 299 299 298 298 297 297 295 295 295 296 295 294 292 291 291 291 291 291 291 291 290 290 290 289
311 309 308 308 308 308 309 309 311 308 309 308 307 307 307 307 306 306 302 302 304 303 302 301 299 298 298 298 298 297 296 296 296 295 295 295 294 293 291 291 290 290 290 290 290 290 289 289 289
308 310 308 305 307 311 309 310 311 308 309 309 308 307 306 305 306 302 301 302 300 300 299 298 297 297 297 297 297 297 296 296 295 293 293 293 293 292 291 290 290 290 289 289 289 289 289 288 288
309 308 309 309 309 312 307 308 313 310 310 306 309 305 305 303 302 304 300 299 296 295 296 296 296 296 296 296 296 296 296 296 295 293 292 291 291 291 290 289 289 289 289 288 288 288 288 288 287
307 308 311 309 312 315 304 309 314 309 307 306 306 305 303 302 303 300 300 298 296 295 295 295 295 295 296 296 295 296 296 295 294 293 292 292 291 290 290 289 289 289 288 288 288 288 287 287 286
307 308 308 311 300 307 311 309 310 307 309 308 305 303 304 305 303 300 299 297 297 295 294 295 295 295 295 295 295 295 294 294 294 293 293 292 292 291 290 290 289 288 288 287 287 287 287 286 285
307 307 310 308 312 313 311 311 312 310 311 309 307 306 305 304 301 300 298 296 297 297 297 295 296 296 296 295 295 294 294 295 294 293 293 292 292 291 290 290 289 288 287 287 286 286 286 285 284
306 308 307 308 312 315 316 315 313 311 307 306 306 306 305 304 303 301 299 299 298 298 297 297 297 296 296 296 294 294 294 294 293 293 292 292 292 291 290 290 289 288 287 286 286 286 285 283 283
306 309 309 311 313 311 313 315 313 313 311 308 309 310 306 303 303 302 300 300 300 298 298 298 298 296 296 296 294 295 293 292 291 292 292 292 291 291 291 290 289 288 287 286 286 285 284 283 282

GFSSGP_925_thetae_012.txt.gz
Theta_e
319 321 322 321 317 315 318 317 316 316 317 314 310 313 315 316 319 317 322 327 329 326 328 331 335 337 337 338 336 334 334 337 336 337 336 335 335 335 336 336 336 336 335 334 333 330 330 331 332
319 321 321 313 320 315 312 316 317 314 314 313 313 315 316 317 317 318 324 328 328 327 329 331 332 334 336 335 335 335 336 337 338 336 335 334 333 332 332 333 333 333 333 331 328 324 325 325 325
319 319 318 316 314 315 316 314 314 314 312 313 314 313 315 316 314 318 324 328 329 330 330 330 331 333 336 335 334 335 335 335 334 333 332 332 332 331 329 328 328 328 328 325 323 320 316 315 317
319 314 309 319 320 318 315 315 311 314 313 311 312 313 311 313 316 317 323 327 327 331 330 330 331 333 335 337 336 335 337 334 332 331 331 332 330 328 325 322 322 322 321 319 314 307 306 307 306
315 309 312 315 315 313 311 312 310 314 313 313 312 313 312 312 315 316 322 327 326 329 329 328 328 332 336 335 334 334 334 333 331 330 330 329 326 323 321 319 318 317 315 312 310 311 312 308 302
312 309 315 314 313 313 312 311 311 312 312 311 312 312 311 311 313 316 320 326 326 326 327 326 327 329 335 333 333 332 332 330 331 330 328 325 321 319 317 315 315 314 314 313 313 311 308 306 301
315 313 316 313 314 314 315 308 312 313 312 312 310 314 311 309 313 316 319 325 326 325 324 324 325 327 330 331 330 331 327 329 329 328 324 320 318 316 315 314 314 314 314 312 304 301 300 299 298
310 311 315 312 313 315 314 310 311 311 312 308 308 312 312 310 311 316 319 323 324 325 324 323 323 326 327 327 328 327 329 329 325 323 319 316 313 313 311 310 313 313 312 304 299 298 298 298 298
308 310 310 312 312 314 312 313 311 309 311 309 308 309 308 309 312 316 319 321 323 324 323 322 322 323 324 324 327 327 328 324 320 317 315 312 306 304 303 308 311 310 306 300 299 298 298 298 297
313 308 310 308 310 314 313 312 313 313 311 309 309 307 307 308 311 314 315 317 320 321 322 322 321 321 322 322 323 323 325 321 317 314 311 306 299 299 300 306 306 302 300 299 298 298 297 297 296
312 314 310 312 310 312 313 312 310 310 311 308 310 309 305 305 307 312 313 316 317 319 320 320 320 320 320 320 319 319 320 319 314 310 307 302 298 298 300 302 301 299 297 297 297 297 296 296 296
316 313 312 313 313 314 314 310 311 309 315 311 307 308 305 303 303 307 310 313 315 315 317 319 319 319 319 318 317 316 315 314 311 308 305 301 299 298 299 300 297 296 296 297 296 296 296 295 295
314 314 313 312 312 312 311 312 311 309 310 308 306 305 304 303 303 305 308 310 311 313 314 316 318 318 318 317 316 315 313 311 309 306 304 300 298 298 298 297 296 296 296 296 296 296 296 296 295
312 312 311 310 311 311 313 313 313 310 308 308 307 306 304 302 303 304 305 305 306 308 311 313 315 316 316 316 315 314 312 310 308 305 302 300 299 298 297 297 296 296 295 296 295 296 296 295 295
312 312 308 308 309 310 309 311 309 310 309 308 306 305 304 303 304 304 307 306 308 307 307 309 311 314 315 315 314 313 310 309 308 304 300 299 299 297 297 297 296 296 295 294 294 295 294 294 294
310 309 310 309 308 309 309 309 310 307 306 307 306 306 305 305 303 307 309 309 308 307 307 306 306 309 313 314 313 312 309 307 306 304 299 299 299 298 297 296 296 295 294 293 294 294 293 294 294
307 309 308 308 307 309 308 309 309 307 308 307 306 306 306 308 306 307 309 309 308 308 307 306 305 306 307 310 311 310 309 306 304 303 298 298 299 298 297 296 295 294 293 293 293 293 293 293 294
309 307 306 307 309 307 309 309 309 309 307 306 308 309 309 309 309 310 311 310 309 309 307 306 304 304 304 305 305 305 305 303 302 301 298 299 299 298 297 296 295 294 293 293 292 293 293 293 293
307 306 306 306 307 308 309 309 308 307 307 309 309 308 308 308 309 309 309 309 309 307 305 304 303 302 301 301 301 300 301 301 301 300 298 299 298 297 297 295 294 294 293 293 292 292 292 292 292
308 309 309 309 308 307 307 309 309 309 309 309 309 309 309 308 308 307 307 307 307 308 306 303 303 301 301 300 299 300 299 299 300 299 298 298 298 297 296 295 294 293 292 292 292 292 291 291 291
307 308 309 309 307 306 305 308 307 307 306 308 308 308 306 307 307 307 304 304 306 305 305 304 303 301 300 300 298 299 299 298 297 297 298 298 298 297 296 295 294 293 292 292 292 291 292 292 290
310 307 308 308 308 310 307 311 307 307 307 306 306 305 304 304 303 302 301 300 305 307 306 304 302 300 300 299 298 298 298 297 297 296 297 298 298 297 295 294 293 292 292 291 291 291 291 292 291
309 308 307 307 307 307 308 308 310 307 308 307 306 305 304 303 302 302 301 301 303 304 304 303 302 300 299 298 298 297 297 297 298 296 296 296 297 296 294 293 292 292 291 291 291 290 290 291 291
307 309 307 304 306 310 308 308 310 307 308 309 307 305 305 303 302 302 301 301 302 300 299 300 299 298 298 298 297 297 297 297 296 296 295 295 295 295 294 293 292 291 291 291 290 290 290 290 290
308 307 308 308 309 312 306 307 311 310 308 308 307 305 305 303 301 299 300 299 298 297 296 296 296 296 297 297 297 297 297 297 297 296 294 292 293 293 293 292 291 291 291 290 290 289 289 290 290
306 307 310 312 312 317 303 311 315 307 307 305 303 304 303 302 300 300 299 296 297 296 295 295 296 296 296 296 296 296 296 296 296 296 295 294 293 294 293 292 291 290 290 290 289 289 289 289 288
306 308 307 311 306 308 313 309 310 308 306 306 305 304 303 302 302 301 300 298 298 296 296 296 296 296 296 296 296 296 296 296 295 295 295 295 295 294 294 293 292 290 290 289 289 288 288 288 288
306 306 310 308 314 314 311 311 312 311 310 309 308 306 303 305 308 304 300 299 298 297 296 295 295 296 296 296 296 296 296 296 295 295 295 295 295 294 293 292 292 290 289 289 288 288 288 288 287
311 308 307 307 312 318 319 316 312 311 310 307 304 305 306 308 303 299 298 298 298 298 297 297 296 295 295 294 294 294 294 294 294 294 294 295 293 293 292 292 291 290 289 288 287 287 287 287 286
307 313 311 313 313 309 313 314 311 310 310 310 306 304 299 299 298 298 297 297 296 297 298 297 297 296 296 296 294 294 294 293 293 293 293 293 293 292 292 291 290 289 288 288 287 287 287 286 286

GFSSGP_925_thetae_015.txt.gz
Theta_e
319 320 322 320 321 319 320 319 316 316 316 313 311 315 317 316 320 320 318 324 324 323 328 334 338 340 339 338 335 332 330 330 333 336 335 334 335 335 335 336 337 336 335 334 332 330 329 329 332
319 320 320 316 321 319 314 315 318 316 313 312 313 314 316 319 315 318 323 325 325 323 321 328 333 336 337 338 336 333 331 336 336 337 337 334 333 333 333 333 335 334 333 331 328 325 324 324 325
319 319 319 318 315 316 316 314 314 313 312 313 314 312 315 317 314 318 322 326 327 326 323 326 331 333 334 336 336 334 335 337 336 336 334 333 333 332 331 331 332 332 330 326 324 321 318 317 317
319 314 311 321 320 318 316 316 311 313 312 310 311 314 310 313 316 317 321 327 328 327 327 329 330 332 335 334 334 333 336 335 335 333 332 332 331 330 329 327 328 327 324 322 318 313 311 311 307
314 310 314 314 315 314 312 313 311 313 313 312 312 314 312 311 314 316 320 326 328 328 328 330 330 332 334 336 335 334 335 335 332 331 329 330 330 328 325 322 323 321 319 314 312 314 311 304 301
313 311 316 314 312 311 311 311 311 312 312 311 312 312 313 311 312 315 318 324 326 329 330 330 330 331 333 336 335 335 336 334 331 330 329 329 328 324 321 319 318 315 311 310 308 304 301 300 300
314 314 314 313 314 314 315 309 312 312 312 312 310 314 312 309 312 314 318 323 326 328 329 330 329 329 332 334 335 334 334 333 331 329 328 328 323 321 318 316 316 316 316 312 306 302 300 299 299
311 314 315 313 314 314 313 310 310 311 313 307 309 314 314 310 311 314 318 324 326 326 327 327 326 327 330 332 333 333 332 331 329 329 327 324 319 317 315 315 316 316 315 308 302 299 299 299 298
307 312 312 313 311 312 311 312 309 308 310 309 309 309 310 309 311 314 318 323 324 325 325 325 325 325 327 327 329 331 331 327 326 327 325 320 315 314 311 312 314 315 311 304 299 299 299 299 298
313 311 311 308 308 312 313 311 312 312 312 309 309 308 308 308 311 314 316 319 322 323 324 324 324 323 325 325 326 328 327 325 327 324 321 316 312 309 306 311 312 312 307 301 299 299 299 299 298
312 315 310 310 307 310 313 311 310 311 313 311 311 311 306 306 307 312 314 316 318 319 321 322 323 322 323 324 324 327 327 326 326 321 316 313 309 304 304 309 309 307 303 299 298 298 298 297 297
315 312 311 312 312 313 313 310 311 309 316 313 308 309 307 306 306 308 312 314 316 316 318 320 322 322 322 322 322 323 325 325 323 318 313 310 306 301 301 305 305 303 300 298 297 297 297 296 295
314 313 313 311 311 311 311 313 312 310 310 308 307 305 306 305 305 306 309 311 313 315 316 317 319 320 321 321 321 321 321 322 321 317 313 309 303 299 300 302 302 299 297 296 296 296 296 295 295
311 311 310 309 310 310 312 312 311 310 308 308 306 307 305 304 305 305 305 307 309 311 313 315 316 318 319 319 319 319 319 318 318 316 312 308 304 299 299 300 299 296 296 296 296 295 295 294 294
311 311 308 307 308 309 308 311 309 310 308 308 308 305 304 304 305 305 309 307 309 310 310 311 313 315 317 318 318 318 317 316 315 314 311 307 303 300 298 298 297 296 296 295 295 294 294 294 294
310 308 310 309 307 308 310 311 310 307 305 307 307 307 306 307 305 307 308 309 308 308 309 308 309 311 314 316 317 317 317 316 314 312 310 307 304 300 298 297 297 296 295 294 294 294 294 293 294
307 310 308 308 307 308 308 310 308 306 306 307 308 309 309 308 309 308 309 309 309 309 309 308 307 307 310 313 314 315 315 315 314 312 310 307 304 300 298 297 297 296 295 294 294 294 293 293 293
309 307 306 307 309 306 308 309 309 308 308 309 309 308 308 308 308 309 309 309 310 309 309 307 307 305 306 309 310 311 311 312 312 312 310 308 303 299 299 298 297 295 295 294 293 293 292 293 292
308 306 305 305 306 306 309 309 308 307 307 308 309 309 308 308 308 307 308 308 308 308 307 306 305 304 304 306 306 305 306 307 308 310 309 307 303 299 299 298 297 295 295 294 293 292 292 292 291
307 308 308 308 307 305 307 309 309 309 309 309 309 309 307 307 307 306 305 306 306 307 307 305 304 302 302 304 304 304 303 302 303 305 305 306 303 299 298 298 297 295 294 293 292 292 291 291 291
306 307 309 308 306 305 305 308 307 308 306 306 307 306 305 305 305 305 304 303 303 304 305 305 303 302 301 302 302 301 301 301 299 300 301 302 302 299 298 298 297 295 294 293 292 292 292 292 291
310 306 307 307 308 309 307 310 308 308 308 307 305 304 304 303 304 303 301 302 301 301 302 302 302 301 300 300 300 300 300 299 298 298 298 299 300 298 298 298 297 296 294 293 293 292 292 293 292
309 308 307 307 307 307 307 307 308 306 308 308 307 307 306 304 302 302 302 302 300 299 299 300 300 299 298 299 299 298 299 299 299 298 297 297 297 296 298 297 296 295 294 293 293 292 291 292 293
307 308 305 303 306 310 308 308 310 307 308 308 308 307 305 303 302 304 302 300 298 298 297 298 297 298 298 297 298 298 298 297 297 297 296 296 296 296 296 296 296 295 294 293 292 292 291 291 292
308 307 310 311 309 314 305 307 310 308 307 308 308 306 303 301 302 302 301 298 297 295 295 296 296 296 296 296 297 297 297 297 297 297 296 294 294 294 295 296 295 295 294 293 292 291 291 291 291
307 308 315 319 315 319 303 314 315 306 307 305 303 303 302 303 301 299 298 297 296 295 293 295 295 295 295 296 296 296 296 296 296 296 296 295 295 295 294 296 295 294 293 292 291 291 290 290 290
306 308 308 311 309 310 313 311 313 308 307 305 304 302 301 299 298 298 297 296 296 296 294 294 295 294 294 294 294 295 295 295 295 295 295 295 295 294 294 295 295 294 293 292 291 290 290 290 289
306 306 310 308 315 318 314 312 314 310 308 304 302 300 299 297 296 296 296 295 295 295 295 294 294 294 294 294 294 294 294 294 294 294 295 295 295 294 294 294 292 292 292 291 290 289 289 289 289
306 307 307 308 315 319 319 316 310 309 304 303 301 299 296 295 295 295 295 294 294 294 293 293 293 293 292 292 293 293 293 293 293 294 294 294 294 294 293 293 292 290 290 290 289 288 288 288 288
309 311 310 318 319 315 317 318 312 304 303 300 296 295 293 292 293 294 294 294 293 293 293 292 292 292 291 291 292 292 292 292 292 292 293 293 293 293 292 292 291 290 289 289 289 287 287 287 287

GFSSGP_925_thetae_018.txt.gz
Theta_e
318 320 322 325 325 324 322 324 321 323 321 319 318 321 322 321 321 322 321 327 327 329 338 340 341 339 339 337 336 332 331 332 337 339 339 338 337 335 334 336 337 336 335 334 333 332 330 331 332
318 320 323 325 322 320 318 322 324 322 319 317 318 319 320 321 321 322 325 325 328 329 338 341 341 340 340 338 336 332 330 332 338 339 338 338 337 335 334 335 336 335 333 332 329 326 325 326 326
318 320 323 322 322 319 321 321 320 318 317 319 320 318 320 322 319 322 323 326 328 329 335 339 340 340 339 338 336 333 331 334 337 338 337 335 336 333 332 332 334 334 332 329 325 322 320 320 319
320 321 321 321 321 322 320 321 320 321 317 316 318 319 317 317 320 320 320 328 329 329 332 336 336 337 338 337 337 335 331 337 337 336 335 333 333 331 329 329 331 331 328 325 322 318 312 309 308
318 320 320 320 320 319 319 318 318 319 318 318 317 320 319 315 315 317 322 328 331 330 331 334 329 330 333 335 335 334 333 337 336 335 333 331 331 330 328 326 327 326 324 320 317 318 309 302 301
320 320 319 319 319 318 319 318 317 318 318 317 317 318 319 314 314 316 322 328 330 331 332 334 331 332 334 335 335 333 335 336 335 332 331 329 330 329 326 324 323 321 319 317 315 311 306 303 300
319 319 319 319 320 320 320 315 318 318 318 319 317 319 319 317 313 315 320 327 330 331 332 334 334 333 333 335 336 335 335 336 333 331 329 329 329 327 324 321 320 318 317 317 314 309 305 302 299
320 320 321 320 319 318 318 316 316 317 318 314 315 319 318 318 312 315 320 325 328 330 331 333 334 334 335 335 335 335 335 336 333 331 329 328 328 323 320 317 317 318 317 314 310 307 304 300 299
315 320 320 319 318 317 317 317 314 314 316 315 316 317 318 312 312 318 321 324 326 327 329 331 332 333 333 333 332 334 334 334 333 331 328 327 325 320 318 316 316 318 316 310 303 301 300 300 299
320 320 319 317 316 316 317 316 317 316 318 318 316 316 314 311 314 317 320 322 325 326 326 328 330 330 331 332 331 332 334 333 331 330 327 326 322 318 316 315 315 316 313 308 303 300 299 299 298
320 320 319 316 315 314 316 316 315 317 318 318 318 318 317 313 313 315 317 318 321 323 325 325 326 328 329 329 329 329 331 331 329 327 326 323 319 315 313 313 315 315 311 308 304 298 297 297 297
319 319 318 318 315 316 317 316 317 317 318 317 317 317 316 315 315 314 315 316 318 320 322 324 324 325 326 327 327 328 328 328 327 325 323 321 317 313 311 313 313 312 309 306 300 297 297 297 297
318 318 318 317 316 316 316 317 317 317 317 317 316 315 314 315 314 314 313 314 316 317 319 321 322 323 324 326 326 326 326 326 325 323 321 320 315 311 309 310 310 309 305 301 297 297 296 296 295
316 316 316 315 315 315 315 316 314 315 315 315 314 314 315 313 313 313 312 311 313 315 316 318 320 321 322 323 324 324 323 324 323 321 319 319 312 309 307 308 307 305 302 298 297 296 296 295 294
314 315 315 315 314 314 313 315 315 315 314 314 314 315 314 314 313 312 313 313 312 312 313 315 316 318 320 321 322 322 321 322 322 319 318 317 312 308 303 305 304 302 299 296 296 295 295 294 294
314 313 315 315 312 312 314 315 315 315 312 313 314 314 314 314 314 313 312 312 312 311 311 312 312 314 318 319 320 320 320 319 319 318 316 316 313 308 302 302 301 300 296 295 295 295 295 295 295
314 315 315 314 313 312 314 314 314 313 313 313 313 313 314 314 313 313 312 311 311 311 310 310 310 312 314 317 318 319 318 318 317 316 314 313 312 308 303 300 300 298 295 295 295 295 295 295 295
316 315 314 313 314 313 313 313 312 312 312 312 312 313 313 314 313 312 311 310 310 310 309 309 309 309 312 314 316 317 316 316 315 315 313 311 310 308 303 300 299 297 295 295 295 295 294 295 295
313 313 314 314 313 312 313 313 313 312 312 313 312 313 313 313 312 311 309 308 308 308 308 307 307 306 309 311 313 314 314 314 313 313 311 310 308 307 303 300 298 296 295 295 294 295 294 294 293
313 314 314 314 313 310 313 313 312 313 313 313 314 313 313 312 312 311 308 307 306 305 305 305 305 305 305 309 310 311 311 311 311 311 309 308 306 305 304 300 298 296 295 295 294 294 294 294 293
314 313 314 314 313 311 311 314 313 314 314 313 311 312 310 310 310 309 307 305 303 302 302 302 302 303 303 305 307 308 305 307 307 307 306 305 304 303 305 301 298 296 295 295 294 293 294 295 293
314 314 312 312 312 315 311 317 317 316 315 314 313 312 311 311 309 307 304 302 300 299 300 300 300 301 301 302 304 305 304 305 304 303 303 303 301 301 302 300 298 297 296 295 294 293 294 295 294
314 309 310 310 312 312 314 314 319 312 313 314 312 311 309 308 306 304 302 300 299 298 297 298 299 299 299 300 302 302 303 304 303 301 302 301 299 300 299 298 297 296 295 295 294 293 293 294 295
308 310 310 310 311 317 317 316 318 316 313 313 311 307 307 305 304 302 301 300 299 298 297 296 297 297 297 298 299 300 300 301 301 300 300 300 299 298 298 297 296 296 295 294 294 293 293 293 294
309 311 321 325 324 325 311 314 314 314 310 309 307 306 304 303 303 301 300 299 298 297 297 296 296 295 295 296 297 297 298 299 299 299 299 299 298 296 296 295 295 295 294 294 293 293 292 292 292
312 314 323 327 327 326 317 319 318 315 309 307 306 305 303 302 301 300 299 297 297 296 296 296 295 295 295 294 294 295 295 296 297 297 297 298 298 297 296 295 294 294 294 294 293 292 292 291 291
312 313 313 318 320 320 317 316 316 313 309 308 307 305 302 300 299 299 297 296 296 295 294 295 294 294 294 294 294 294 294 294 294 295 295 296 296 296 295 294 293 293 293 292 292 292 291 291 291
309 312 317 313 318 321 317 317 318 313 310 308 306 303 299 298 298 298 297 295 294 294 294 293 293 292 291 292 293 293 293 293 293 293 293 293 294 294 293 293 293 293 292 291 291 291 291 290 290
312 310 309 310 314 322 322 318 313 311 309 307 302 298 297 296 296 296 296 294 293 293 292 291 291 291 291 290 291 292 292 292 292 292 292 292 292 292 292 292 292 292 291 290 290 290 290 290 290
310 314 314 317 318 315 317 318 310 307 305 301 297 296 295 294 294 294 295 293 291 291 291 291 290 290 289 289 290 290 290 290 290 291 291 291 291 291 290 290 291 291 290 290 289 290 289 289 289

GFSSGP_925_thetae_021.txt.gz
Theta_e
319 322 323 325 327 324 323 324 324 324 324 322 320 322 322 321 321 325 325 329 329 333 339 339 342 341 342 340 339 336 336 337 337 339 339 339 337 335 336 338 338 338 337 335 333 333 333 332 332
320 321 324 323 325 323 321 323 324 322 322 320 321 321 322 322 322 323 326 329 329 331 339 342 341 341 340 337 338 333 333 338 338 338 338 338 336 335 335 337 337 337 334 332 329 325 324 324 326
320 320 323 324 323 323 323 322 322 321 321 321 321 321 321 322 322 323 327 329 329 331 339 342 341 339 339 338 337 335 331 332 337 337 338 338 336 336 333 333 336 334 333 329 325 323 321 319 319
321 322 322 322 323 321 321 321 321 322 321 320 320 321 321 320 322 323 325 330 329 330 337 342 341 342 340 339 338 335 332 331 337 338 338 337 335 332 330 330 333 333 331 329 324 320 316 312 309
320 321 322 322 321 320 320 320 320 321 321 321 320 321 321 319 319 320 326 330 331 329 333 339 340 340 340 339 338 336 334 332 338 337 337 334 333 331 329 328 330 330 328 325 320 316 309 304 301
321 320 322 321 320 319 320 321 321 321 321 320 319 320 320 319 318 319 323 329 331 330 331 333 335 338 339 338 337 337 335 333 338 337 335 332 330 330 329 327 327 325 323 321 320 312 304 301 300
322 321 321 321 320 320 320 319 320 320 319 319 320 319 320 320 318 319 322 326 330 331 332 333 335 333 332 333 334 335 334 333 337 336 333 332 329 329 328 325 324 322 320 319 318 312 305 301 300
322 321 320 320 319 319 319 319 319 319 319 318 318 319 319 321 317 319 322 325 329 331 332 333 334 335 337 337 336 335 334 335 337 334 332 329 328 328 326 322 321 320 319 318 316 312 305 301 299
320 321 321 320 319 318 319 318 318 318 318 318 318 318 319 317 317 320 323 325 327 330 332 333 334 335 335 336 337 337 335 335 336 333 332 330 327 327 324 320 318 319 319 317 315 311 303 300 299
321 322 320 320 318 318 317 317 318 318 318 318 319 319 319 318 316 319 320 323 325 328 330 332 333 334 335 334 334 335 335 336 335 333 331 329 327 326 321 318 316 318 317 315 313 307 300 300 301
321 321 319 320 319 318 317 317 317 318 318 318 318 318 318 318 318 317 318 319 321 324 327 329 331 333 333 333 332 332 332 333 334 334 332 329 327 323 319 317 315 317 317 312 310 302 298 301 301
321 319 320 320 319 318 318 317 317 318 318 318 318 318 318 318 317 317 317 317 318 319 323 326 328 330 331 332 332 332 332 332 333 332 331 328 326 321 317 315 315 317 314 311 308 302 300 299 299
320 319 318 318 318 319 318 317 317 317 317 318 318 317 317 317 317 316 316 316 317 318 320 323 326 327 329 330 330 330 330 331 332 331 329 327 325 320 316 314 315 316 313 310 307 301 299 298 297
317 317 317 317 317 317 317 317 316 316 317 317 316 316 316 316 316 316 315 315 316 316 318 320 323 325 326 328 329 329 329 329 330 329 327 326 322 319 315 313 314 314 311 308 302 301 299 298 297
316 316 316 316 316 316 315 316 316 317 317 316 315 315 316 316 316 315 315 315 315 316 316 318 320 322 324 326 327 328 328 328 328 328 326 323 321 317 313 311 312 311 308 304 300 300 299 298 297
315 316 317 317 315 315 315 316 316 316 315 315 315 315 316 315 315 315 315 314 314 314 315 315 316 319 322 323 325 326 326 326 326 326 324 322 320 316 312 310 310 309 305 301 299 299 298 298 297
317 318 318 318 316 315 315 315 316 315 315 315 315 315 315 315 315 315 314 313 313 313 313 313 313 315 318 320 322 323 324 324 324 324 323 321 318 314 310 308 307 306 302 300 299 298 298 298 298
320 320 318 318 317 317 317 317 316 316 315 315 315 315 316 315 315 312 311 310 310 310 311 311 311 312 313 316 319 321 322 322 322 322 321 320 317 313 309 306 305 303 300 298 298 298 298 298 298
317 317 317 317 318 317 317 316 315 315 315 315 316 317 316 315 313 310 308 307 307 306 307 308 309 310 310 313 315 318 319 320 320 320 319 318 315 312 309 305 304 301 299 298 298 298 297 298 297
316 316 317 317 317 316 316 315 314 315 316 316 316 315 315 313 311 308 306 305 304 304 304 304 305 307 308 309 312 314 315 317 317 317 316 316 314 311 308 305 303 301 299 298 297 297 297 297 296
316 316 317 317 316 314 314 316 319 316 319 317 315 313 312 311 309 307 305 303 302 302 302 302 303 304 305 306 309 310 311 309 311 313 313 313 312 310 307 305 303 301 299 298 297 297 297 297 296
316 316 314 314 314 318 315 319 318 319 319 315 314 312 311 308 307 306 304 303 301 301 300 301 301 301 302 304 306 307 309 307 308 307 308 309 309 308 307 305 303 301 299 298 298 297 297 297 296
315 312 312 312 314 317 318 318 319 319 318 314 311 310 308 307 305 304 303 301 301 300 299 299 299 299 300 301 302 304 304 305 305 305 303 304 305 304 305 304 303 301 299 298 298 297 296 297 297
311 311 313 314 316 321 320 319 320 317 314 312 310 309 308 306 304 303 301 300 300 299 299 298 298 298 298 298 299 300 301 302 302 303 302 303 302 302 302 303 302 301 300 298 298 297 296 296 297
311 313 320 321 325 328 319 320 320 317 313 312 310 308 306 305 304 302 301 300 298 298 298 297 297 297 297 297 297 297 297 298 299 300 300 301 301 301 300 300 301 300 299 298 297 297 296 296 296
317 317 321 322 324 325 322 324 321 316 310 309 308 306 305 303 302 301 299 298 298 297 296 296 295 294 294 295 296 296 296 296 297 297 298 298 299 300 299 299 298 298 298 298 297 296 296 295 295
316 316 315 318 319 322 320 319 319 316 311 310 308 306 303 302 301 301 299 297 296 296 295 295 294 293 292 293 294 294 294 294 294 294 295 295 296 297 297 297 297 296 296 296 296 296 295 295 295
311 310 318 317 322 322 318 318 318 316 314 310 307 303 301 300 300 299 298 296 295 295 294 293 292 291 291 291 292 292 292 292 292 293 293 293 293 293 294 295 295 295 295 295 295 295 294 294 294
313 313 313 314 318 322 321 317 313 314 312 308 303 300 299 297 296 297 297 294 292 292 292 291 291 290 289 289 290 290 290 290 289 288 290 290 291 291 292 292 292 293 293 294 294 293 294 293 293
313 314 314 317 318 316 317 319 313 310 306 303 300 299 297 296 294 294 295 293 291 290 290 289 289 289 288 287 288 288 288 287 287 287 286 286 287 290 291 290 290 291 291 292 292 292 292 292 292

GFSSGP_925_thetae_024.txt.gz
Theta_e
318 321 322 324 329 327 326 326 323 323 323 320 320 320 320 319 321 325 325 329 329 335 339 336 337 340 342 341 340 339 338 338 337 334 337 338 338 337 337 336 337 337 336 334 332 333 334 332 330
320 320 322 324 326 326 322 321 323 321 321 320 320 320 320 321 321 324 327 329 329 334 339 336 339 339 341 341 340 337 337 337 337 339 338 338 338 336 336 336 337 336 335 332 328 324 324 325 325
318 320 324 325 324 323 322 322 321 321 320 320 321 321 321 321 320 324 328 329 328 333 341 337 340 339 340 340 339 334 333 336 336 336 336 337 336 335 335 336 337 335 333 330 326 323 321 319 318
321 321 320 321 324 320 320 319 319 320 320 319 319 319 320 320 322 324 325 330 329 331 341 341 341 341 341 338 338 335 331 333 336 337 336 337 337 335 332 330 333 333 332 329 325 321 316 312 308
320 321 322 323 322 319 319 319 320 321 321 320 319 319 318 319 321 320 326 330 329 330 338 342 342 340 340 339 337 337 333 331 334 337 337 337 335 333 330 328 331 331 330 327 322 317 308 302 301
321 319 322 323 320 319 319 320 320 320 321 318 319 318 319 319 318 319 325 329 331 329 334 338 341 340 341 339 339 337 335 332 333 338 337 336 333 331 328 327 328 328 326 322 320 310 302 301 300
322 323 322 321 320 319 320 319 319 318 316 318 318 318 318 318 319 319 322 327 330 330 330 334 336 339 340 340 339 338 337 334 333 338 337 335 331 330 327 327 327 325 322 321 316 305 301 301 300
320 320 320 321 319 319 318 319 318 317 316 318 317 317 319 319 317 318 321 324 329 331 331 331 334 332 337 339 338 337 337 336 333 338 337 333 331 329 324 326 324 323 320 320 316 306 302 301 300
320 320 320 320 320 319 317 317 317 317 316 315 317 316 317 318 317 319 322 323 326 329 332 332 333 334 331 332 332 333 334 334 334 338 336 332 329 327 323 325 320 320 319 318 315 309 302 301 299
320 322 322 319 317 317 316 315 315 315 315 315 314 316 318 318 317 318 320 323 325 327 330 332 333 334 335 336 337 334 335 335 335 338 334 331 329 328 324 323 319 317 318 316 314 308 301 300 301
321 321 319 317 318 317 317 316 315 314 315 315 314 314 314 316 317 316 317 318 319 324 327 330 333 333 335 335 335 336 335 336 336 336 333 331 329 328 325 321 317 316 317 314 314 306 300 301 301
319 319 318 319 318 318 317 316 315 314 314 315 314 314 314 313 313 316 316 317 318 318 324 327 328 333 334 335 334 334 334 333 333 334 334 331 329 327 325 320 317 315 316 314 308 305 299 301 301
318 318 318 317 317 316 316 316 316 315 314 313 314 314 314 313 314 316 316 316 316 317 318 322 327 328 332 333 334 333 333 333 330 332 334 333 330 327 323 319 316 314 315 313 309 305 300 300 299
316 316 315 315 315 315 315 315 315 314 313 313 313 313 312 312 313 315 316 316 315 316 316 317 323 326 328 331 332 332 332 332 332 330 333 333 331 327 323 319 315 315 316 312 310 306 300 299 298
315 315 314 314 315 315 315 314 314 313 313 312 312 311 311 312 314 313 315 315 315 315 316 316 319 324 326 328 330 331 330 330 331 332 332 331 329 326 322 318 315 315 315 312 309 303 300 299 298
315 314 316 316 316 314 313 314 314 313 312 312 313 312 312 311 313 310 310 310 311 311 313 316 316 319 324 326 327 329 329 329 329 330 330 328 328 325 321 316 313 315 313 311 307 301 300 299 298
314 315 316 317 317 314 314 314 314 313 312 313 313 312 311 311 309 308 307 307 307 308 309 311 314 315 317 322 324 325 327 328 328 328 328 327 326 324 319 315 312 312 311 309 304 300 299 299 298
317 317 317 316 316 315 315 314 314 313 313 313 311 311 311 309 307 306 305 304 304 305 306 307 309 311 314 316 320 322 324 325 326 325 326 325 323 322 318 313 311 310 309 307 302 300 298 298 298
315 316 316 315 315 315 315 314 314 313 312 312 311 312 309 308 306 305 303 302 302 302 303 304 305 307 310 312 315 318 320 321 323 323 323 322 321 320 318 312 309 308 307 305 301 299 298 298 298
315 315 314 315 315 315 314 313 312 312 312 312 313 310 308 306 305 304 303 302 301 301 301 302 302 304 306 308 312 314 315 317 319 320 320 319 319 318 315 312 307 306 305 302 300 298 298 298 297
315 315 315 315 314 312 313 314 314 315 314 311 310 308 306 305 304 303 302 301 300 300 300 299 301 302 303 306 308 310 311 312 312 312 315 315 316 315 313 312 308 305 303 301 299 298 298 298 296
315 314 315 314 313 314 314 318 317 315 315 311 309 306 305 304 303 302 301 300 300 299 299 298 298 300 301 303 304 305 306 306 306 307 308 310 312 313 312 310 308 305 303 301 300 298 298 297 297
316 311 312 312 312 313 315 315 318 316 313 310 308 306 304 302 301 300 300 299 299 298 298 298 298 297 298 299 300 301 301 302 303 304 304 303 304 306 308 308 307 305 303 301 299 298 298 297 297
310 311 311 310 311 317 317 318 317 314 311 309 308 306 304 302 300 300 299 298 297 297 296 295 295 296 296 296 297 297 298 299 300 300 300 301 302 302 303 302 304 305 304 302 300 299 298 297 297
311 312 317 319 317 319 317 317 317 313 310 309 308 305 302 301 299 297 297 297 297 296 296 295 293 293 294 295 295 295 295 296 296 296 297 298 298 299 301 301 300 301 303 302 301 299 298 297 297
314 316 318 318 316 316 316 318 317 312 308 307 305 303 301 300 299 297 297 297 296 295 294 293 292 291 292 292 293 292 293 293 294 294 294 295 295 296 296 297 299 298 299 300 300 299 298 297 297
314 315 314 315 309 313 316 315 314 310 308 306 304 301 300 300 299 298 296 296 295 294 293 292 291 290 290 290 291 290 290 289 289 290 290 292 292 293 293 294 295 296 297 297 298 298 298 297 297
311 310 316 316 322 316 315 314 313 313 310 307 303 300 299 297 297 297 295 294 293 292 292 291 290 288 288 289 289 288 287 287 286 286 286 286 287 290 292 292 292 293 294 295 295 296 296 296 296
310 312 312 313 314 315 315 312 311 310 308 303 300 299 297 296 294 295 295 292 291 290 290 289 289 288 286 286 287 287 286 285 284 284 284 284 285 285 286 289 291 291 291 292 293 294 294 295 295
310 312 313 315 313 313 315 315 309 306 303 301 300 299 297 296 293 292 293 292 290 289 289 288 287 287 286 285 286 286 285 285 285 284 283 284 284 284 284 284 285 287 290 290 290 291 292 293 293

GFSSGP_925_thetae_027.txt.gz
Theta_e
318 320 320 321 319 318 320 322 319 319 320 318 318 318 318 318 318 320 328 331 330 336 337 335 337 337 339 340 340 339 337 337 336 333 333 334 333 332 336 335 335 335 334 333 331 330 328 326 329
316 319 321 317 319 319 316 318 319 319 319 318 318 319 318 319 320 324 326 329 332 335 336 335 337 337 339 339 338 337 337 338 338 335 337 337 337 336 335 336 335 335 334 331 326 323 323 323 324
319 320 317 317 317 317 318 317 317 317 317 318 318 319 318 319 319 325 330 328 331 335 335 335 337 338 341 341 339 338 338 338 336 339 338 337 336 335 334 335 335 334 333 330 326 323 321 318 317
320 318 313 315 320 317 317 316 318 318 317 317 317 317 317 319 321 325 325 326 333 334 337 335 337 340 341 341 339 336 334 334 335 336 336 336 337 334 333 333 334 333 332 329 326 322 317 313 310
319 312 315 318 319 316 316 317 319 319 318 317 317 317 315 319 322 320 323 325 329 333 339 339 336 340 340 339 337 334 331 332 335 336 336 337 337 335 332 331 331 331 330 329 325 320 313 304 301
315 310 315 318 316 316 317 317 318 317 317 316 317 316 316 319 319 322 324 325 328 330 338 341 339 339 341 340 337 336 333 331 334 336 336 336 336 334 331 327 330 330 328 325 322 316 304 301 300
318 314 317 318 318 316 318 317 317 315 313 316 316 316 316 316 319 319 324 327 329 329 331 338 340 341 339 340 339 337 336 333 331 333 336 337 335 332 330 326 327 328 326 323 318 307 301 301 300
314 313 318 316 316 317 316 317 316 316 314 315 315 313 317 317 318 318 321 325 328 330 329 331 336 340 340 339 339 338 338 335 333 334 337 336 335 331 329 326 326 326 323 322 316 305 301 301 300
315 313 314 317 316 315 315 315 314 314 315 314 315 314 314 318 317 318 320 321 325 329 330 329 330 333 334 339 339 338 338 337 335 333 337 337 333 330 329 326 323 324 321 321 315 305 301 301 300
314 314 317 316 315 316 314 314 313 313 311 311 312 312 314 317 317 317 319 320 321 325 329 331 331 331 332 333 339 338 337 335 335 335 337 335 333 330 328 325 322 320 318 318 316 307 301 300 299
318 316 316 317 317 316 316 314 313 313 312 311 311 312 311 315 314 314 315 317 319 319 322 327 331 332 333 333 331 331 332 333 333 334 334 333 332 329 328 326 322 317 317 316 314 308 302 301 302
318 316 317 316 315 315 316 316 314 314 314 311 310 310 311 310 310 311 313 315 316 317 319 323 327 331 332 334 334 334 334 333 334 335 333 332 330 330 328 327 322 316 316 315 312 307 301 301 301
315 316 316 314 313 312 313 314 314 313 312 311 310 310 309 309 310 313 314 315 315 316 317 318 324 328 330 333 335 335 335 335 334 332 332 332 330 329 326 326 322 318 314 314 312 307 302 300 301
313 313 313 312 313 312 313 312 314 312 310 310 309 309 308 308 308 308 309 309 310 312 315 317 320 325 328 331 333 334 334 333 333 332 330 331 331 330 327 325 323 319 315 313 312 307 304 300 300
313 314 311 311 312 312 311 314 313 311 309 310 310 308 308 306 306 306 306 306 307 309 311 314 316 321 327 329 331 333 333 332 332 332 331 329 330 331 329 326 323 320 315 314 312 309 306 301 299
313 312 313 313 313 313 312 312 312 310 310 310 310 307 307 305 304 303 304 304 305 307 308 311 315 320 326 327 328 330 332 331 331 331 331 330 330 330 330 327 324 320 315 315 313 310 307 301 299
312 311 312 314 313 312 312 311 311 310 310 310 308 307 306 304 303 302 301 302 302 304 305 308 310 315 324 326 327 327 328 330 329 329 329 329 329 328 328 327 323 317 315 315 313 310 307 300 299
313 313 314 314 314 313 313 310 310 310 310 311 308 304 304 303 302 301 300 300 301 302 303 305 307 311 316 320 324 324 325 326 328 327 327 326 327 327 326 324 321 316 314 314 312 310 303 300 299
313 314 314 312 312 312 312 312 311 310 309 309 306 305 304 303 302 300 300 299 299 300 301 302 304 306 309 312 314 317 320 323 324 324 323 324 324 325 325 321 319 315 313 313 311 307 302 299 298
313 314 313 312 313 313 311 311 310 310 310 309 306 304 303 302 301 300 299 298 298 298 298 300 302 303 306 308 310 312 314 314 319 321 321 320 320 321 321 321 316 313 311 310 309 306 301 299 298
313 314 313 313 312 310 310 311 311 311 307 306 305 304 303 302 300 299 299 298 297 297 297 297 298 300 302 304 307 309 309 309 308 310 314 317 317 317 318 318 316 311 308 308 307 305 301 298 298
315 312 313 313 311 311 311 313 314 312 309 306 304 302 301 300 299 298 297 297 296 295 296 297 297 297 298 300 301 301 300 301 301 303 305 308 311 312 313 313 314 312 307 306 305 304 301 298 298
313 310 311 311 310 311 311 312 312 309 309 307 304 302 300 299 298 297 296 296 295 294 294 294 295 296 296 296 297 297 298 298 298 300 301 301 302 304 305 308 309 308 307 305 304 302 300 298 298
309 310 310 309 308 313 313 314 314 311 309 307 304 301 299 298 296 296 296 295 295 294 293 293 293 293 294 294 295 295 295 295 296 296 296 297 298 299 301 302 301 301 305 305 304 301 300 299 298
309 310 314 313 312 314 313 313 313 311 308 307 303 300 298 296 295 294 294 294 293 293 292 291 290 291 292 291 291 291 291 292 293 293 293 294 294 294 295 296 298 299 299 300 303 302 300 299 298
310 313 313 312 314 311 312 314 313 306 304 302 301 299 298 297 295 294 294 294 293 292 292 290 289 289 289 289 288 288 287 287 287 287 287 289 290 292 292 293 294 295 296 298 298 300 300 299 298
313 314 312 314 302 308 313 313 309 306 303 301 300 299 298 298 296 294 294 294 293 292 291 289 287 287 288 288 287 286 286 285 285 285 285 285 285 286 287 290 292 293 293 294 296 297 297 298 298
311 310 314 311 310 311 314 312 311 309 304 301 300 298 297 295 296 294 293 292 291 291 290 289 288 286 286 287 287 286 285 285 284 284 284 284 284 284 284 285 285 286 290 292 292 293 294 294 295
310 311 311 312 313 312 310 310 310 309 303 300 298 297 295 294 294 294 292 291 290 290 289 288 287 287 286 285 286 285 285 285 284 284 284 284 284 284 284 284 284 284 284 285 288 291 291 291 292
309 310 311 312 311 309 313 313 308 304 301 300 299 298 296 294 292 291 292 290 289 289 288 287 287 287 286 286 285 285 285 284 284 284 284 284 284 284 284 284 284 283 284 284 284 284 286 289 290

GFSSGP_925_thetae_030.txt.gz
Theta_e
314 319 320 320 319 314 318 320 318 319 319 317 317 317 317 317 317 317 327 329 331 335 337 336 338 341 342 342 341 340 338 336 334 333 331 331 334 337 336 336 335 334 335 333 331 328 324 327 325
316 319 320 313 316 316 315 316 319 318 318 317 317 317 318 318 319 323 326 330 329 335 337 336 337 339 341 341 340 339 338 336 335 333 332 331 332 333 336 335 335 334 333 331 327 322 323 324 324
319 319 315 314 312 316 316 316 317 317 316 317 317 316 317 318 319 322 328 328 330 335 335 335 337 337 339 340 339 337 336 337 337 334 336 337 337 336 334 335 335 334 332 330 325 322 321 319 319
318 316 310 313 319 316 315 314 316 317 317 316 316 317 314 317 319 324 327 328 329 335 335 335 336 337 338 339 338 337 336 338 336 338 338 337 336 335 333 334 334 332 332 330 327 323 319 315 312
317 309 313 316 316 314 316 315 317 318 317 317 316 316 314 319 323 324 325 327 329 335 335 335 335 337 342 341 340 337 337 337 335 337 336 337 335 333 333 332 333 332 331 330 327 323 316 308 302
314 308 313 316 316 314 317 316 316 315 313 315 316 315 313 318 319 321 324 325 329 332 335 336 335 337 342 341 341 338 334 333 333 336 336 336 336 335 333 331 329 331 329 328 325 320 311 301 300
315 312 314 316 315 316 317 315 315 315 313 316 314 315 314 315 317 320 323 325 327 330 334 338 338 336 339 340 339 337 334 331 333 335 336 336 336 335 333 330 327 329 328 325 323 316 303 301 300
312 310 316 314 314 316 314 314 314 314 314 314 313 312 314 316 318 319 323 325 327 328 330 334 339 339 338 339 340 338 336 334 331 331 334 336 336 335 332 330 327 325 326 324 320 309 301 300 300
311 311 313 316 315 314 312 313 312 311 313 312 314 313 312 315 318 318 320 322 326 329 329 330 332 338 340 339 339 338 337 336 335 332 332 338 337 335 332 330 328 321 322 322 319 309 301 301 299
311 310 313 314 314 316 314 314 313 313 310 311 310 311 313 315 317 317 317 318 321 325 328 329 330 331 335 338 339 337 337 336 335 335 334 336 335 335 332 330 327 322 320 319 317 310 303 301 299
315 313 314 316 315 314 315 313 313 314 313 310 311 310 311 314 315 314 315 315 317 318 322 326 328 329 330 331 333 338 337 337 336 335 334 334 333 332 330 329 326 322 319 318 316 312 303 300 299
317 315 315 316 315 314 315 314 314 313 313 312 310 309 309 308 307 307 308 311 312 314 318 321 326 328 329 330 331 331 337 338 337 335 334 333 332 331 330 328 327 324 318 316 315 311 306 301 302
315 314 314 314 311 311 312 312 312 312 310 308 307 308 306 305 305 307 306 307 309 310 312 314 322 327 328 330 331 332 332 332 331 332 333 333 330 331 329 327 326 325 319 316 314 311 307 300 301
312 313 312 311 311 311 312 311 312 311 310 309 308 306 304 304 303 304 304 304 305 307 309 312 314 322 328 330 330 332 333 333 333 333 332 332 331 330 329 327 325 325 321 317 314 312 308 302 300
313 313 310 310 311 311 310 313 312 310 308 308 307 304 303 302 301 301 301 302 302 305 306 310 313 318 326 329 330 332 333 334 334 334 333 333 330 329 330 329 326 325 323 318 315 314 311 305 300
312 311 311 312 312 312 311 313 311 309 309 309 305 302 302 301 300 300 300 300 302 304 306 308 312 316 322 328 330 331 333 333 333 333 333 333 331 329 327 329 328 326 323 320 316 314 311 306 301
310 310 311 312 312 313 311 311 310 309 309 307 304 302 302 301 300 299 299 299 300 302 304 307 311 315 322 325 328 330 331 331 331 331 329 329 329 329 328 328 329 327 323 320 316 314 312 308 304
311 312 311 313 313 312 312 310 309 309 309 307 302 301 301 300 299 298 298 298 299 300 302 304 307 311 317 322 324 325 326 328 328 328 326 326 327 329 329 329 328 325 322 318 316 314 312 309 306
310 312 312 311 311 311 311 311 310 309 308 304 302 302 301 300 299 298 297 297 297 298 299 301 304 306 310 312 313 315 317 320 322 322 322 323 325 326 326 326 326 324 320 318 316 313 309 308 303
311 312 312 311 310 312 310 310 309 307 307 304 302 302 301 299 298 297 296 295 295 296 297 298 299 302 305 307 308 309 308 306 309 312 314 317 320 322 323 322 322 320 318 315 313 311 308 304 301
312 312 312 313 311 309 310 311 311 306 305 304 302 301 299 298 297 296 295 293 294 294 295 295 296 297 300 303 306 307 306 307 306 305 306 307 310 313 315 316 315 314 313 312 312 310 307 304 301
315 311 312 312 311 313 309 311 310 309 306 304 301 299 298 296 295 295 294 293 292 293 294 294 294 295 296 297 298 298 297 296 296 298 300 302 303 303 304 306 307 309 307 306 307 308 305 302 301
314 310 310 310 310 309 309 309 308 307 307 304 300 299 297 296 295 294 294 293 292 291 292 293 293 293 294 295 295 295 294 294 294 296 297 298 299 299 300 301 301 301 301 303 304 303 303 302 299
309 309 309 306 307 311 309 310 312 310 309 304 300 298 297 295 294 294 293 292 292 291 290 291 291 290 290 290 289 290 289 289 289 290 291 292 294 295 296 297 298 299 299 299 299 301 302 300 299
308 310 314 311 310 314 311 311 312 306 306 304 300 297 295 294 293 292 292 292 291 290 289 289 290 289 288 288 287 287 286 286 286 285 286 286 286 286 289 291 293 294 295 296 297 298 299 300 299
308 311 312 309 313 312 309 312 310 303 301 300 298 297 296 294 293 292 293 292 291 290 288 288 288 288 287 287 286 286 285 285 285 285 285 285 285 285 285 285 285 288 291 293 293 294 296 297 297
312 313 310 312 297 307 312 310 307 303 301 299 299 298 297 295 294 292 293 292 291 290 288 287 286 287 287 286 286 285 285 285 284 284 284 284 284 284 284 284 285 285 285 285 287 291 292 293 294
310 308 312 309 309 311 311 311 311 305 302 300 299 298 297 295 294 292 292 291 290 289 288 288 287 286 286 286 285 285 285 285 285 285 285 285 284 285 284 284 284 284 284 284 285 285 285 287 290
309 310 310 310 308 307 306 308 307 306 302 300 299 297 295 294 294 291 290 290 290 289 288 287 287 287 287 286 286 286 286 286 286 285 285 285 285 284 284 284 283 284 284 284 284 284 284 284 284
309 308 309 309 308 307 310 309 307 305 302 300 298 297 295 293 292 291 289 290 289 288 288 287 287 287 287 286 286 286 286 285 285 285 285 285 284 284 283 283 283 283 283 283 283 283 283 284 284

GFSSGP_925_thetae_033.txt.gz
Theta_e
313 317 319 318 318 313 317 319 316 318 318 316 316 316 317 315 316 315 324 329 331 334 335 338 341 343 343 343 341 339 338 337 335 333 332 333 338 337 337 336 334 334 336 335 338 333 326 325 324
317 319 319 311 314 315 316 314 318 317 317 315 316 316 316 318 316 322 326 329 330 332 336 336 339 342 342 343 341 340 338 336 335 333 330 330 334 335 336 335 334 334 332 331 331 323 324 325 324
319 318 313 312 310 315 316 315 316 316 315 316 316 315 316 317 318 321 324 329 328 333 335 335 337 341 342 342 341 340 338 336 336 334 332 331 332 333 336 334 335 334 332 330 326 322 321 320 321
318 315 308 312 317 314 315 315 314 316 316 315 314 317 313 316 317 323 327 328 328 333 334 335 336 338 342 341 341 339 337 336 337 334 334 337 336 336 334 333 334 332 330 331 328 324 320 316 314
314 307 311 314 315 314 314 314 314 316 315 315 314 315 313 316 322 324 326 326 327 333 335 334 335 337 339 339 339 338 336 337 337 334 338 336 335 334 333 332 333 330 329 330 328 325 319 313 305
312 306 312 315 315 313 315 314 315 314 312 313 315 314 312 316 320 321 324 325 327 331 335 335 335 336 337 337 338 338 336 337 337 335 337 336 335 334 333 332 331 329 329 328 327 324 317 304 300
313 309 312 314 314 315 315 310 314 313 312 315 313 314 312 315 317 318 323 324 326 333 334 334 335 336 338 341 342 341 338 336 335 334 336 337 337 335 334 332 329 327 328 328 326 322 312 301 300
309 309 314 312 313 315 313 310 313 313 313 310 311 311 313 314 316 318 323 325 326 328 331 333 336 336 337 340 341 340 338 335 332 333 336 336 336 335 334 332 329 326 324 326 324 318 305 301 300
308 309 310 314 314 314 312 313 312 309 312 311 312 312 311 314 317 318 319 322 326 327 328 331 335 337 337 338 339 340 338 336 333 333 334 335 337 336 335 333 330 327 323 323 323 316 303 301 299
309 307 310 311 313 315 314 313 312 312 311 311 311 309 312 313 315 316 316 316 318 323 327 328 332 334 337 338 339 340 337 336 335 334 333 331 334 333 335 333 330 328 324 321 321 316 306 301 299
313 311 311 315 313 314 314 313 312 313 312 310 310 309 308 311 312 311 309 307 308 312 316 324 328 333 334 336 339 339 338 335 335 335 334 332 333 332 333 331 329 327 324 320 319 317 310 303 299
317 315 314 315 314 313 314 313 313 313 312 311 308 306 306 302 303 304 304 305 306 307 309 312 320 327 332 334 334 336 338 336 334 334 334 333 332 331 332 330 328 327 325 321 318 315 311 305 299
315 314 313 313 311 310 311 312 312 310 309 307 306 304 303 302 302 303 303 304 305 306 307 309 311 318 327 330 332 332 332 338 337 335 334 335 333 330 330 329 328 327 325 322 318 316 312 308 302
311 312 311 310 310 310 311 310 310 311 309 306 304 303 301 300 300 300 300 300 302 304 306 308 310 312 321 328 329 331 332 332 335 334 332 335 335 333 328 328 328 327 325 324 320 316 314 311 304
312 312 309 309 310 310 308 312 311 310 307 305 303 301 300 299 299 298 298 298 300 302 305 309 312 313 317 324 329 331 331 332 332 333 333 333 332 333 328 329 329 327 326 325 321 317 315 313 309
311 310 310 310 311 311 311 313 312 309 306 306 301 299 300 299 298 297 297 298 300 302 304 308 312 318 321 325 328 330 331 332 333 332 331 331 331 332 330 328 328 328 327 326 322 319 316 314 311
308 309 310 311 311 311 311 312 310 308 308 303 300 300 299 298 297 297 297 297 299 301 304 307 311 316 321 324 326 328 329 329 329 330 330 329 330 330 329 329 328 327 327 324 322 319 316 314 311
309 310 309 310 312 311 312 310 309 308 308 302 300 299 298 298 297 296 296 297 298 299 301 304 308 312 315 317 320 320 322 321 321 321 323 325 326 327 327 328 327 327 325 322 320 318 316 313 311
309 309 311 310 310 312 311 310 309 307 302 301 300 299 298 298 297 295 294 295 296 298 300 302 304 307 311 313 313 311 310 310 312 314 316 320 321 322 322 321 320 321 321 319 318 316 314 312 308
309 311 311 310 309 310 310 310 308 304 303 301 300 299 298 297 295 294 293 294 294 294 295 297 299 303 305 306 304 304 304 302 302 303 305 309 311 313 315 316 315 314 313 313 312 313 310 308 307
311 311 311 312 310 309 309 310 310 304 302 301 299 298 297 295 294 293 292 292 293 293 295 296 297 298 300 302 304 304 304 303 301 300 299 300 301 302 304 305 307 310 310 308 308 307 306 304 304
315 310 311 312 311 314 308 312 307 306 304 301 299 296 295 294 293 293 292 291 291 292 292 293 294 296 297 298 298 297 295 293 293 294 295 297 298 298 299 300 300 300 300 302 305 305 303 302 301
314 309 310 310 309 308 308 309 306 305 306 302 298 297 295 294 293 292 291 290 290 291 291 291 291 291 291 292 293 291 289 288 288 289 290 290 291 292 293 295 297 298 297 297 298 300 303 302 299
308 308 308 306 306 311 309 310 310 309 307 302 299 296 295 294 292 292 291 290 289 289 289 289 288 288 288 288 288 287 287 286 286 286 286 286 285 285 285 286 288 291 293 294 294 295 297 298 300
308 310 313 312 311 315 309 310 309 305 303 303 299 296 294 293 292 291 291 290 288 288 289 288 288 287 287 287 286 286 285 285 285 284 284 285 284 284 285 285 285 285 285 285 287 291 292 294 295
307 310 313 310 311 311 309 313 310 302 299 299 297 295 294 293 292 291 291 290 288 287 287 288 287 287 286 286 285 285 285 285 285 285 285 285 285 285 285 285 285 285 285 284 285 285 285 286 290
309 311 308 310 294 306 311 309 305 301 300 298 297 295 294 293 292 291 291 290 289 288 287 287 287 286 286 285 285 286 286 286 286 285 285 285 285 285 285 285 285 285 285 285 284 284 284 284 284
309 307 312 308 308 310 310 310 309 304 301 299 298 297 296 294 292 291 291 291 289 288 287 286 286 286 286 286 286 286 286 285 285 285 285 285 285 285 284 284 284 284 284 284 284 284 284 283 284
309 310 309 309 307 305 304 306 304 305 302 300 299 297 296 295 293 291 290 290 289 288 287 287 286 286 286 286 286 286 286 286 286 285 285 285 284 284 283 283 283 283 283 282 282 282 282 282 282
307 308 309 312 309 306 307 310 304 303 301 299 299 298 295 294 293 291 290 289 289 288 287 287 287 287 287 287 287 287 287 286 286 285 285 284 284 283 283 282 282 282 281 281 280 280 280 280 280

GFSSGP_925_thetae_036.txt.gz
Theta_e
314 317 319 317 315 312 316 318 315 317 317 315 314 315 316 315 315 314 323 327 330 333 335 339 342 343 343 342 340 338 336 336 335 333 332 335 338 338 338 336 334 332 334 335 334 327 326 324 323
316 318 317 308 312 314 315 313 317 316 315 314 315 315 315 317 315 319 324 327 329 334 335 337 340 342 342 342 341 339 338 337 335 333 332 334 336 337 335 334 333 333 334 334 331 322 323 324 323
318 316 312 310 309 314 315 314 315 315 314 314 315 314 315 316 316 320 323 328 329 332 334 336 338 342 342 342 342 340 338 336 335 333 331 330 331 333 335 335 333 333 332 331 328 322 320 319 320
317 312 307 310 315 313 314 313 312 316 315 313 313 316 311 315 316 321 325 327 328 332 334 335 337 340 341 341 341 340 339 336 335 334 332 332 335 335 335 334 333 332 329 330 328 325 321 316 313
312 306 310 313 314 313 311 312 313 315 314 314 313 314 313 314 322 323 325 326 327 330 334 335 336 338 341 341 341 340 339 336 336 335 333 336 336 335 334 332 332 331 328 327 328 326 322 315 306
311 306 311 313 314 312 312 310 313 312 311 312 314 313 312 315 319 320 323 324 325 329 333 334 335 337 340 341 341 340 338 336 338 335 337 337 335 334 332 331 331 330 327 327 327 325 320 310 301
311 307 311 313 313 313 313 307 312 312 311 313 312 313 311 314 314 317 322 323 324 330 333 335 335 335 337 340 340 339 338 336 337 335 336 337 335 335 333 332 331 328 326 325 326 324 317 304 300
307 307 313 312 312 314 312 311 311 312 313 309 311 311 311 310 314 316 322 324 324 328 333 334 334 335 337 339 340 339 339 338 336 335 334 336 336 336 334 333 331 328 326 323 324 322 314 302 300
306 306 308 313 311 313 312 313 311 309 310 309 310 311 309 312 314 316 317 319 321 325 327 332 335 336 336 337 339 338 338 338 337 334 333 335 336 336 335 334 332 329 327 323 322 320 313 302 300
307 305 308 310 312 314 313 313 312 312 310 311 310 309 309 309 310 308 305 305 307 309 313 323 330 335 337 342 340 339 339 338 335 333 332 332 334 333 332 333 332 329 327 324 322 320 313 303 300
311 309 310 313 312 313 313 312 311 312 313 310 310 307 304 304 304 303 303 303 303 305 307 311 318 327 335 340 337 336 339 336 334 334 333 333 333 332 331 332 330 328 327 325 321 319 315 308 302
315 314 312 314 313 313 313 312 312 311 311 307 305 302 302 301 301 300 301 301 302 304 306 308 309 316 327 336 340 337 335 339 336 332 333 334 334 332 332 331 331 329 327 325 323 320 317 312 305
315 314 312 312 311 310 310 311 311 310 306 302 303 301 300 299 299 299 300 301 302 303 305 308 310 310 313 327 337 338 335 334 334 333 331 331 331 331 330 330 330 329 327 326 324 322 318 315 310
310 311 310 309 310 310 311 310 310 306 304 303 302 299 298 298 297 297 298 298 301 304 307 309 313 313 311 319 329 336 336 336 332 331 331 332 332 332 331 328 327 325 328 326 325 324 320 316 313
311 311 308 308 309 310 307 312 310 307 304 302 300 299 298 297 297 296 296 297 299 302 306 310 316 319 318 320 326 329 332 331 331 331 332 331 332 330 330 330 328 327 328 327 325 324 322 321 316
310 307 310 309 310 310 310 313 312 305 305 301 299 298 297 297 296 296 296 297 299 302 306 311 318 322 323 325 327 328 329 328 327 327 328 328 328 329 331 330 329 328 328 328 325 324 321 319 318
306 311 309 309 310 311 311 312 310 305 303 301 299 298 297 296 295 294 295 296 298 301 305 309 315 320 322 324 323 323 323 323 322 323 324 324 325 325 324 324 324 324 324 325 324 321 319 317 316
310 309 308 309 311 311 311 310 309 304 302 300 298 297 296 295 294 294 294 296 298 300 303 306 309 312 314 316 317 317 317 316 316 317 319 320 320 321 320 319 319 319 318 316 315 316 316 313 312
308 309 310 309 309 311 310 309 309 303 300 299 298 297 296 295 294 293 294 295 297 300 303 305 308 308 311 311 310 308 304 304 306 307 309 311 313 315 316 315 314 312 313 312 312 312 311 311 309
309 309 309 309 309 309 310 309 306 303 301 300 298 297 296 294 292 292 293 294 294 295 297 300 302 306 308 308 306 304 302 300 301 301 302 303 304 305 305 306 308 309 309 308 307 307 307 306 307
307 308 310 311 310 308 308 309 307 302 300 299 298 296 295 294 293 291 291 291 292 294 295 297 298 300 303 303 304 303 301 299 298 297 297 297 298 299 300 301 300 300 301 301 303 304 302 302 303
311 308 310 311 312 314 308 313 308 304 302 300 298 295 294 293 293 291 290 290 290 290 292 294 296 297 298 299 299 298 294 289 288 288 289 290 291 291 293 294 295 296 296 296 296 298 300 300 299
313 309 309 309 309 308 309 309 307 304 305 301 297 295 294 293 292 290 289 289 289 289 289 289 290 291 291 292 292 290 287 286 286 286 286 286 286 286 286 286 287 288 288 290 292 294 295 296 297
305 307 306 305 306 311 309 310 309 307 306 302 298 295 294 292 291 291 289 289 289 288 288 288 288 287 288 288 288 287 287 286 286 285 285 285 285 285 285 285 285 285 285 285 285 286 288 290 293
307 309 313 312 311 314 307 308 309 306 303 302 299 296 294 292 290 289 289 288 288 288 287 287 286 286 286 286 286 286 286 286 286 285 285 285 285 285 285 285 285 285 285 285 285 285 285 285 285
307 310 313 311 310 309 308 312 311 303 299 298 298 296 293 292 291 290 290 288 287 287 287 286 286 286 285 285 285 285 286 286 285 285 285 285 285 284 284 284 284 284 284 284 284 283 283 284 284
308 310 308 308 294 305 310 309 306 301 299 296 295 294 293 292 291 290 290 289 287 286 287 287 286 285 285 285 286 286 286 286 285 285 285 285 284 284 284 284 283 283 283 283 283 283 283 282 282
309 307 312 308 310 308 310 309 310 305 302 298 296 295 294 292 291 290 291 290 288 287 286 286 286 286 286 286 286 286 286 286 286 285 285 285 284 284 283 283 283 282 282 281 281 281 281 281 281
309 310 308 309 308 308 305 307 303 304 301 299 297 296 295 294 292 290 291 291 289 287 286 286 286 286 286 286 286 286 286 286 286 285 285 284 283 283 282 282 282 281 281 280 280 280 280 280 280
307 308 308 313 309 304 306 311 303 303 300 299 298 297 295 294 293 291 291 290 289 288 287 286 286 286 286 287 287 286 286 286 286 286 285 284 283 282 281 281 280 280 279 279 279 279 279 278 279

GFSSGP_925_thetae_039.txt.gz
Theta_e
315 317 319 316 319 318 317 318 314 316 316 314 313 315 316 315 315 319 321 325 330 333 338 341 340 341 341 340 336 336 335 335 335 334 337 339 340 339 337 334 332 331 333 334 330 324 325 324 324
316 318 317 310 316 317 319 313 316 315 314 313 314 314 315 317 314 317 323 328 329 333 337 341 342 342 342 342 338 337 336 336 335 333 333 337 337 337 334 334 332 331 330 331 324 321 322 322 322
317 316 315 312 311 316 317 314 314 314 313 313 314 313 314 316 315 319 322 327 329 334 335 338 341 343 343 342 341 339 338 337 335 333 331 333 334 333 334 334 332 331 330 330 325 322 320 317 318
317 312 308 313 314 312 313 312 312 315 313 312 312 315 311 314 317 321 324 328 329 332 334 337 339 341 341 342 343 340 338 336 335 334 331 329 332 335 334 333 332 330 328 327 327 324 322 317 312
311 308 313 314 314 312 310 311 312 314 313 313 312 314 313 314 321 323 324 326 327 330 334 335 337 339 341 341 341 341 339 337 335 335 332 333 337 335 333 332 331 330 329 326 327 325 322 315 305
312 308 313 314 313 312 311 309 312 311 310 312 313 311 311 313 316 321 323 324 326 329 334 335 336 338 340 340 340 340 339 338 336 337 333 336 335 335 333 331 331 330 328 323 325 324 320 310 301
311 309 311 311 313 313 313 308 312 311 311 313 311 312 310 311 314 315 323 324 326 331 334 335 335 336 338 339 340 340 340 338 335 337 334 338 335 334 333 332 331 329 327 324 321 321 316 305 300
307 309 311 311 313 314 312 310 310 311 312 308 310 311 311 308 314 318 322 323 324 327 333 335 335 336 337 338 339 339 338 338 336 336 334 336 336 335 335 333 331 329 327 325 322 322 316 304 300
304 307 308 311 311 312 311 313 311 308 310 309 309 308 304 306 312 314 313 312 313 316 322 327 334 335 338 340 338 338 337 336 337 336 334 333 335 335 336 334 333 330 328 326 323 321 316 307 301
307 306 307 308 309 313 312 312 312 311 311 311 309 305 304 305 305 304 303 303 306 307 309 313 323 332 339 336 336 336 335 336 337 336 334 332 332 332 331 331 332 331 328 327 324 322 318 311 303
309 308 307 312 311 312 312 312 310 312 312 310 310 304 302 302 301 301 301 301 301 304 306 308 311 320 330 333 335 335 335 335 335 334 333 333 332 332 333 331 330 330 328 326 325 324 321 316 309
314 312 311 313 312 312 313 311 312 311 310 304 302 301 300 300 299 298 299 300 302 304 306 309 309 310 317 331 333 333 334 334 333 333 332 332 333 333 332 332 330 331 329 327 325 324 323 321 314
315 313 311 311 310 310 309 311 311 308 302 301 301 300 299 298 298 298 299 301 302 304 307 310 313 312 310 319 331 333 332 332 331 332 333 329 332 332 332 331 330 328 328 327 326 325 323 323 318
310 310 310 309 310 309 310 309 309 305 301 301 300 299 298 297 296 297 298 299 302 305 308 313 317 316 312 313 330 331 332 331 329 329 329 331 331 331 331 331 329 327 326 326 327 325 324 322 321
309 311 308 308 308 309 307 310 309 305 302 301 299 298 297 296 296 295 296 298 299 303 309 316 320 322 320 326 328 328 329 329 328 327 329 330 330 329 329 329 329 327 326 326 327 326 324 322 318
309 307 312 309 309 309 309 314 307 303 304 302 299 298 297 296 294 295 296 297 300 305 311 317 318 320 321 323 324 325 326 326 325 325 326 326 326 326 325 323 322 323 323 322 321 320 319 318 315
306 313 309 309 309 310 310 313 306 304 303 301 299 298 297 296 294 294 296 297 299 303 309 315 318 319 321 322 323 323 322 322 320 321 322 322 323 322 322 321 320 320 320 319 317 317 316 315 314
312 309 307 309 310 310 310 310 306 301 302 300 298 297 296 295 294 293 294 296 298 301 305 308 311 314 315 316 315 314 312 310 310 311 312 314 315 316 318 317 317 316 317 315 315 314 314 312 312
308 308 310 309 309 311 310 309 309 301 300 299 298 297 296 295 293 293 294 295 297 301 303 305 308 308 310 312 311 309 305 305 306 306 307 307 308 309 310 310 311 311 312 310 310 311 310 310 308
307 308 308 307 308 309 309 309 307 303 301 300 298 297 296 294 293 292 293 294 296 298 302 305 307 308 308 309 306 305 303 299 298 298 300 300 300 301 302 303 303 303 304 304 304 304 305 305 304
306 308 307 310 309 308 308 310 306 302 300 299 298 296 294 294 293 291 290 290 292 294 295 297 300 302 302 302 301 299 298 295 294 292 292 293 294 295 296 295 295 296 296 296 297 298 300 299 300
308 306 307 309 311 314 307 314 309 304 302 300 298 295 294 293 292 290 290 289 289 290 293 296 297 298 298 299 298 296 291 287 286 286 286 287 287 288 288 288 288 289 289 290 291 293 295 297 296
311 307 308 309 310 309 308 310 308 304 305 301 298 295 294 293 291 290 289 289 288 289 290 291 292 293 293 294 294 292 288 286 286 286 286 286 286 286 286 286 286 286 286 285 285 286 286 288 290
305 306 306 304 306 311 310 311 310 307 306 302 298 296 294 293 291 289 288 288 287 287 288 289 289 289 289 289 288 287 286 286 286 286 286 286 285 285 285 285 285 285 285 285 285 285 285 285 285
307 309 313 314 313 316 306 308 310 306 304 303 300 297 294 293 291 289 288 288 287 287 286 286 287 286 286 286 286 286 286 286 286 286 286 285 285 284 284 284 284 284 284 284 284 284 284 284 283
307 310 315 316 313 310 307 311 310 303 299 298 298 296 294 292 291 290 288 287 287 287 287 286 286 286 286 286 286 286 286 286 286 285 285 284 284 283 283 283 283 283 283 283 283 282 282 282 282
308 310 307 307 294 308 310 308 306 301 299 297 297 295 295 293 291 290 289 287 287 287 286 286 285 285 285 286 286 286 286 286 285 285 285 284 284 283 283 282 282 282 282 281 281 281 281 281 281
308 307 312 309 312 312 311 310 310 306 303 297 296 297 295 293 291 291 290 289 287 287 286 286 285 286 286 285 286 286 286 285 285 285 285 284 283 283 282 282 282 281 281 281 281 281 281 281 281
309 310 308 309 309 311 309 309 303 305 302 299 297 296 295 294 292 291 291 290 288 286 286 286 285 286 285 285 286 286 286 286 285 285 285 284 283 283 282 282 281 281 280 280 280 280 280 280 279
307 308 308 313 310 304 307 311 303 302 301 299 298 297 295 294 293 291 291 291 289 287 286 285 285 286 286 286 286 286 286 286 286 285 285 285 284 282 282 281 280 280 280 280 279 279 278 278 277

GFSSGP_925_thetae_042.txt.gz
Theta_e
314 317 319 322 325 323 323 322 320 321 320 319 318 319 319 319 319 321 323 327 332 337 342 343 342 342 343 340 337 336 336 336 335 337 338 339 339 337 336 332 330 331 335 332 328 324 324 324 327
317 318 320 322 322 321 321 320 321 320 319 318 318 319 319 320 320 323 326 327 333 337 342 345 341 342 341 340 337 336 336 336 335 335 338 338 338 337 333 333 330 330 331 330 324 321 320 320 322
317 316 324 323 321 320 321 320 320 319 317 318 319 318 319 320 321 322 325 329 334 337 342 345 340 341 342 341 339 338 337 337 335 333 336 336 336 333 334 332 330 329 327 329 326 323 320 316 315
318 320 318 320 320 319 319 318 318 319 318 317 317 318 316 318 322 325 326 331 335 337 341 343 342 343 343 342 341 340 338 337 335 334 332 331 331 335 334 332 330 329 327 324 326 324 322 316 309
315 320 321 320 319 317 317 317 318 319 318 318 317 317 318 317 320 326 329 331 334 337 340 342 340 342 341 342 342 341 339 337 335 335 332 333 335 335 333 331 331 330 328 324 322 322 321 313 303
320 319 321 320 319 317 317 316 317 317 315 317 316 317 317 314 316 323 325 330 333 337 339 340 338 340 341 340 339 340 339 338 336 336 333 335 336 335 333 331 331 330 327 324 320 321 316 307 300
319 319 321 320 319 318 318 315 316 316 316 317 316 317 317 314 315 323 324 325 332 335 338 339 340 339 340 340 340 339 339 338 336 336 334 337 336 334 333 332 331 329 327 326 322 319 315 304 300
317 318 319 319 318 319 317 315 315 316 316 314 314 316 317 311 311 317 315 315 316 327 328 334 338 337 338 342 340 341 340 339 337 336 336 334 337 335 335 333 331 330 328 327 324 321 315 306 300
312 316 318 318 318 318 316 316 314 313 315 314 313 312 308 307 310 312 312 311 311 311 317 325 333 335 339 338 341 339 338 336 336 337 335 334 337 335 335 334 333 330 329 328 326 324 320 312 303
316 316 315 316 316 317 316 316 316 316 316 314 313 309 307 307 309 310 309 309 308 308 308 310 318 328 335 334 336 336 336 335 337 338 336 336 335 334 332 332 330 331 328 327 325 324 324 321 311
315 315 312 314 315 316 317 316 315 316 316 315 315 311 307 307 307 307 307 305 305 305 307 307 309 313 326 332 334 334 335 335 338 336 334 332 332 333 332 331 330 329 329 327 326 325 324 322 319
316 315 314 316 315 315 316 316 316 315 314 309 309 307 306 306 305 304 305 304 304 305 306 307 310 310 312 328 333 333 333 333 333 332 332 333 332 331 332 332 332 330 330 328 326 324 324 322 321
318 316 315 315 314 315 313 315 315 313 308 306 305 305 306 305 304 303 303 303 304 305 306 309 314 315 311 321 331 332 333 331 332 332 333 331 330 330 332 331 331 330 329 327 326 326 324 323 320
314 314 314 314 313 313 314 314 312 308 307 307 306 305 304 303 302 303 302 303 303 304 306 310 317 316 312 322 329 332 332 331 330 329 329 330 330 330 330 330 330 330 328 327 326 325 324 322 319
313 315 315 314 312 313 312 313 313 309 308 307 305 304 303 301 301 301 300 301 301 304 307 314 318 320 322 325 329 330 330 328 327 327 328 328 328 328 328 327 326 325 325 324 324 323 322 320 319
314 314 319 314 312 311 313 320 312 308 309 308 306 304 303 301 300 299 299 299 301 304 312 315 318 320 322 325 327 327 327 326 326 326 325 325 325 325 325 324 323 323 323 322 322 321 320 318 319
314 321 317 316 312 313 314 318 311 308 309 309 307 304 303 302 300 298 298 298 300 302 309 313 315 317 320 322 323 323 321 319 316 318 319 320 320 320 320 319 319 318 318 319 318 318 317 316 316
321 318 315 317 314 313 315 316 311 308 309 309 306 304 302 302 299 297 297 297 299 302 304 311 313 313 315 315 314 311 308 305 304 305 307 310 313 312 312 312 313 313 314 314 313 312 312 311 310
316 316 318 314 312 314 317 317 315 309 308 308 306 304 302 301 297 297 296 297 299 300 302 305 307 306 307 307 306 303 300 297 296 298 300 301 300 302 303 304 303 304 304 304 304 307 307 306 304
313 316 317 314 311 313 315 315 315 309 309 308 306 304 302 300 299 297 296 296 297 297 299 300 301 302 302 303 301 299 295 293 292 294 297 298 299 300 299 298 297 298 299 299 300 301 305 305 302
314 315 316 316 312 311 313 316 316 309 306 304 304 303 301 301 300 297 295 295 295 295 296 299 301 302 300 301 300 297 294 292 291 290 290 291 292 292 292 292 291 292 292 293 294 296 298 301 300
316 312 312 312 314 320 312 323 317 312 308 305 303 302 301 300 298 296 295 294 293 292 292 294 298 301 301 300 297 295 294 291 289 288 287 287 287 287 287 287 287 287 287 287 287 288 290 293 294
317 311 312 313 315 315 315 318 319 309 310 307 304 302 301 300 298 296 294 292 290 290 291 291 292 294 294 294 293 292 290 288 288 287 287 286 286 286 286 286 286 286 286 285 285 286 286 288 288
309 310 310 311 314 320 319 318 321 314 312 310 305 302 301 299 297 294 292 290 289 289 289 289 290 291 291 291 290 290 289 288 288 287 287 286 285 285 285 285 285 285 285 284 284 284 284 285 286
311 316 322 322 320 323 310 315 319 314 308 309 306 303 300 298 296 294 292 291 289 288 288 288 288 287 288 288 288 287 287 288 287 287 287 286 285 285 285 285 284 283 283 283 283 283 283 283 283
312 317 323 327 322 320 309 316 316 308 305 304 305 303 300 298 296 294 293 291 289 288 288 287 287 286 287 287 287 286 287 286 286 286 285 285 284 284 283 283 283 282 282 282 282 282 282 282 282
312 314 313 312 305 319 316 313 311 305 304 303 303 301 299 298 296 295 292 291 290 289 288 287 287 286 286 286 286 286 286 286 286 285 285 284 283 283 283 282 282 282 282 282 282 282 282 282 282
311 312 315 315 324 326 318 316 319 310 308 304 302 301 300 299 297 295 293 291 289 289 287 287 286 286 286 286 286 286 286 286 285 285 284 284 283 283 282 282 282 281 281 281 281 281 281 281 281
311 312 312 314 317 327 324 318 312 313 310 306 304 303 301 299 298 296 294 291 289 288 288 287 286 286 286 286 286 285 285 285 285 285 284 284 283 282 282 282 281 281 280 280 280 280 280 280 280
311 313 313 319 316 312 315 320 306 307 307 307 305 303 302 299 298 297 295 293 289 288 287 287 286 286 286 285 285 285 286 285 285 284 284 284 283 283 282 281 281 280 280 280 279 278 278 278 279

GFSSGP_925_thetae_048.txt.gz
Theta_e
318 319 321 325 331 327 323 322 321 321 320 318 318 317 318 319 322 328 327 332 334 345 342 341 341 341 338 335 335 335 336 338 338 338 340 339 336 333 331 332 333 333 332 331 327 320 320 323 327
317 320 323 326 326 323 320 320 320 319 319 319 319 318 318 320 323 326 329 333 335 344 344 343 342 341 338 336 336 335 335 335 338 339 338 339 335 333 329 331 332 332 330 330 327 320 315 316 321
320 320 325 327 324 322 321 320 317 317 318 319 318 317 320 323 325 327 328 334 336 342 345 343 343 341 340 337 336 337 336 335 337 337 337 338 333 333 329 328 328 327 328 328 323 320 315 310 313
320 323 321 322 323 320 319 318 317 318 318 319 317 317 319 326 326 329 331 334 338 342 344 344 341 341 340 339 336 337 337 335 335 336 336 334 334 332 330 329 328 326 321 316 317 316 311 304 304
320 322 325 322 319 318 317 318 320 318 318 317 317 319 318 323 327 329 330 332 336 339 343 344 342 341 341 340 338 338 337 336 334 333 333 335 335 333 331 330 329 328 325 319 313 311 305 301 302
323 321 323 321 319 317 318 318 319 318 315 316 317 318 318 320 326 326 331 332 336 339 342 342 340 342 343 341 339 339 337 336 335 334 333 334 335 334 332 331 329 328 327 325 322 311 304 300 301
323 323 323 322 319 318 318 318 318 317 316 316 316 318 314 314 323 324 328 334 337 339 339 340 341 340 341 340 340 339 338 337 335 335 333 335 334 333 332 331 330 329 328 326 326 324 311 301 300
319 318 319 319 319 320 317 317 316 317 316 316 315 317 315 312 316 319 319 319 323 332 336 337 337 339 341 340 339 339 339 338 337 335 335 334 335 334 332 331 331 328 327 326 325 324 323 310 301
317 318 318 319 319 319 317 317 317 316 316 314 313 313 312 312 315 318 316 316 314 313 315 320 331 334 335 338 340 340 339 337 337 336 336 334 336 335 334 332 330 327 326 325 324 324 323 321 312
318 320 318 316 317 318 317 317 316 316 316 314 312 311 312 313 314 315 314 313 312 311 311 311 314 319 328 333 337 339 338 336 335 336 337 335 335 334 333 332 329 327 325 325 324 324 322 320 316
318 318 315 315 318 317 317 317 317 317 317 314 315 311 312 312 311 312 311 310 310 311 311 311 312 312 319 330 334 337 337 334 335 336 336 334 335 334 333 331 330 329 328 327 326 324 323 323 322
317 316 315 318 317 318 318 318 317 316 313 312 310 311 311 310 309 309 309 309 309 310 311 313 315 317 314 329 331 332 333 334 336 336 335 333 332 332 333 332 331 330 328 327 326 324 323 321 321
317 317 316 317 317 316 317 317 316 315 310 309 310 311 309 308 309 308 308 308 308 310 312 314 315 318 317 328 331 332 332 334 332 331 331 331 331 331 330 328 330 329 328 327 326 324 323 323 321
317 317 316 317 317 316 316 316 314 314 309 309 310 309 307 307 307 308 306 307 308 311 312 314 318 320 317 323 332 330 331 330 329 328 328 328 329 328 328 327 327 327 326 326 324 325 323 323 322
316 316 316 315 315 316 315 315 314 313 310 310 309 307 307 306 306 305 304 306 309 311 312 314 316 320 323 328 330 329 328 326 325 325 324 324 324 324 325 324 323 322 323 323 322 323 322 321 320
316 317 319 319 315 314 315 318 317 310 310 310 308 306 306 305 305 304 304 306 310 312 313 315 316 320 323 325 326 325 325 324 323 321 321 321 322 322 321 319 319 319 320 320 319 318 318 316 315
318 319 320 318 315 314 313 319 313 310 310 310 309 308 306 304 304 303 304 307 309 311 313 314 316 318 320 321 322 320 318 318 317 316 315 313 314 315 315 314 312 312 313 313 312 311 311 308 309
320 320 320 320 315 315 314 314 313 310 310 310 309 308 306 305 303 303 303 307 309 311 311 312 314 315 316 315 313 311 310 309 311 310 310 310 311 311 310 308 308 307 307 306 309 308 307 305 303
318 319 319 320 315 316 315 315 315 311 310 309 310 308 306 305 302 302 304 307 307 307 309 311 312 311 312 310 306 305 302 302 303 301 302 303 304 303 304 303 301 301 300 299 304 304 301 300 299
318 318 318 318 314 314 315 315 316 313 311 310 311 309 306 302 300 302 304 307 307 306 308 309 310 310 309 307 303 302 300 298 297 296 296 297 298 298 297 297 294 291 291 291 294 298 294 297 294
318 318 318 319 315 314 313 314 315 315 314 311 311 309 306 302 301 301 303 305 306 306 306 307 307 307 307 306 303 299 296 294 293 292 292 292 292 292 292 291 290 290 290 289 289 290 290 291 291
318 317 317 318 317 318 314 319 319 317 316 312 310 308 304 302 301 301 303 304 304 303 304 304 304 305 303 301 300 297 295 293 291 290 289 289 290 289 289 289 289 288 288 287 287 287 287 288 288
317 315 316 317 316 317 317 319 319 318 318 314 310 307 304 302 301 300 301 301 300 300 300 300 301 300 300 300 298 296 293 291 289 288 288 288 288 288 288 288 288 287 286 286 285 285 286 286 286
314 315 315 316 317 320 319 320 320 320 317 316 310 307 304 302 299 299 299 297 297 297 297 296 296 296 297 298 296 295 292 290 289 289 288 288 288 287 287 286 286 285 285 285 285 285 285 285 285
315 317 322 322 320 322 317 319 320 318 315 314 311 308 304 301 299 297 295 294 294 294 294 294 294 293 294 294 294 292 291 291 290 289 288 288 287 286 285 285 285 285 284 284 284 284 284 284 284
314 317 322 324 325 322 311 317 317 311 308 310 309 306 303 301 299 296 294 294 293 293 293 292 292 292 292 292 292 291 291 290 290 289 288 287 286 285 285 285 285 285 284 284 284 284 283 283 283
316 317 318 319 307 314 318 315 314 309 308 308 306 305 303 301 299 296 295 294 293 293 291 291 291 291 291 291 291 291 290 290 289 288 288 287 286 285 285 285 284 284 284 283 283 283 283 283 282
315 314 317 316 318 322 321 320 319 312 309 306 306 305 303 301 299 296 295 294 292 292 290 290 290 290 290 290 290 290 289 289 288 287 287 286 285 285 284 284 284 283 283 283 282 282 282 282 282
313 314 315 317 318 321 322 321 316 315 311 307 307 305 303 301 299 296 295 294 292 291 290 290 289 289 289 289 289 289 288 288 287 287 286 286 285 285 284 284 284 283 283 282 282 282 281 281 281
314 315 315 319 319 317 317 322 309 311 310 307 307 305 303 301 299 297 296 293 292 291 290 289 289 289 289 289 288 288 288 287 287 286 286 285 285 285 285 284 283 283 283 282 281 281 281 281 280

GFSSGP_925_thetae_051.txt.gz
Theta_e
314 319 320 323 322 315 319 319 316 317 317 316 315 319 320 319 324 325 331 333 343 341 340 340 340 337 335 335 337 338 339 339 339 340 338 337 336 334 333 333 331 331 331 327 320 317 320 322 325
319 320 323 318 319 315 314 315 316 317 317 313 314 315 317 324 324 326 330 333 344 343 339 341 340 337 335 334 334 335 336 337 339 339 338 337 334 334 333 331 327 330 329 324 320 316 313 315 320
320 320 317 319 315 316 316 314 313 315 316 317 315 315 319 323 324 327 332 335 344 344 339 340 341 338 336 335 335 335 335 336 337 338 337 336 332 329 330 329 326 323 322 319 316 312 308 308 313
318 319 314 315 317 314 314 312 314 315 317 314 314 318 318 326 327 330 332 337 342 342 342 341 341 341 338 336 335 336 335 334 335 335 336 334 331 329 328 327 326 323 316 312 311 305 302 303 306
319 313 317 315 315 315 315 314 313 315 315 314 316 317 318 325 329 330 333 337 341 342 341 342 340 339 339 337 336 336 336 334 334 334 333 335 332 330 329 328 328 327 325 320 310 304 301 302 305
317 312 316 315 314 315 315 317 317 313 312 314 314 315 317 324 326 331 333 337 339 340 342 342 340 340 341 339 338 338 336 335 334 332 333 334 333 331 330 329 329 327 326 325 323 307 301 301 303
318 313 317 317 314 315 316 316 315 312 313 315 312 314 313 318 323 330 334 338 339 340 342 341 339 341 342 341 339 339 337 335 334 333 333 334 333 332 331 330 327 326 325 324 323 319 304 300 301
312 310 315 314 315 316 314 315 314 313 315 313 313 313 311 312 319 320 326 334 336 337 336 338 339 338 340 340 339 339 338 337 336 335 334 334 333 332 331 330 328 326 325 324 323 322 319 310 301
313 310 311 315 316 316 313 315 315 314 313 311 310 310 311 312 317 317 316 314 316 321 331 335 335 335 337 338 340 338 338 337 336 336 335 334 335 332 331 329 327 326 324 323 323 323 322 319 314
313 311 314 314 314 315 314 314 313 314 313 311 310 310 312 313 315 314 311 310 311 311 311 314 325 329 332 335 337 339 337 336 335 335 336 334 335 333 332 330 328 326 324 324 323 323 322 322 321
315 313 313 314 317 314 315 315 315 314 313 312 311 309 310 310 310 309 309 310 310 310 311 311 312 315 324 332 334 337 338 336 336 336 336 335 334 334 332 330 329 327 327 326 324 323 322 321 320
313 314 314 316 315 316 316 315 315 314 312 309 307 309 308 307 307 308 308 309 309 310 311 312 313 314 318 329 332 335 335 335 336 335 334 334 334 333 332 330 329 328 328 326 324 323 323 321 321
315 315 315 315 315 315 315 316 315 312 307 307 308 307 305 306 307 307 308 308 309 310 312 312 314 317 316 330 330 331 335 335 334 333 333 332 332 330 328 328 327 328 327 327 325 324 324 324 322
315 314 315 315 315 315 315 315 314 311 305 307 307 305 304 305 306 306 306 306 309 311 311 314 318 319 318 326 329 329 332 332 331 330 329 329 329 328 326 326 326 326 326 326 325 325 322 322 321
314 314 313 313 314 314 313 313 312 309 306 307 306 304 304 304 305 304 305 306 310 311 313 315 317 319 319 327 327 328 329 328 326 325 324 326 326 326 325 324 322 322 322 322 321 321 320 320 319
314 314 316 316 312 313 312 314 314 307 307 307 305 303 303 303 303 304 304 308 310 312 313 314 316 321 324 325 326 324 322 321 322 322 321 321 321 321 320 318 317 316 317 316 317 315 315 313 313
314 315 315 317 312 312 312 314 311 308 308 307 305 303 303 301 302 303 304 308 311 313 313 314 316 319 322 322 321 320 319 318 317 318 317 316 317 317 316 314 313 314 314 312 310 309 308 306 307
316 316 316 317 314 312 312 311 312 308 307 307 305 303 303 301 300 303 305 308 311 312 314 315 315 317 318 318 317 316 315 313 314 315 314 313 312 313 313 311 310 309 309 309 307 304 298 299 303
315 316 317 315 314 313 312 312 311 308 307 306 305 304 304 302 301 303 305 308 310 311 313 314 314 313 315 313 312 309 306 307 309 309 308 308 308 307 306 305 303 302 304 304 299 296 295 294 300
314 315 315 314 313 312 312 312 311 309 309 308 308 306 305 300 299 302 305 307 308 310 313 313 313 312 310 309 308 306 303 301 302 302 303 303 303 302 300 296 294 293 294 293 292 292 292 291 293
315 316 315 316 314 312 312 313 312 311 309 308 308 307 305 301 300 300 303 306 307 309 311 311 310 309 307 307 304 301 299 295 295 296 295 294 295 294 293 291 291 291 291 290 289 289 290 289 289
316 314 315 316 316 316 312 318 314 313 312 310 309 306 304 300 300 301 302 305 306 309 311 308 308 307 306 304 303 301 297 293 291 292 291 290 290 290 290 290 290 290 289 289 288 287 288 288 287
315 314 315 315 314 315 315 314 315 314 316 315 311 308 304 300 300 301 302 304 305 305 306 306 306 305 303 303 302 299 295 292 290 289 289 289 288 288 288 289 289 288 287 286 286 286 286 286 286
312 314 313 313 314 317 316 316 318 317 317 316 311 305 301 300 299 300 301 303 302 302 303 303 303 300 299 299 297 297 294 290 288 288 288 288 288 287 287 287 287 286 286 286 285 285 285 285 285
313 314 318 320 317 321 315 316 319 316 313 313 310 305 301 300 298 298 297 297 298 298 299 301 300 298 299 298 296 296 292 290 289 289 288 287 287 287 286 286 286 285 285 285 285 285 285 284 284
313 315 318 320 321 319 311 317 317 313 310 307 308 306 302 300 299 297 296 295 295 296 297 297 297 296 296 296 295 294 291 290 289 289 288 288 288 287 285 285 285 285 285 285 285 284 284 284 284
313 316 316 319 301 311 316 314 313 310 308 308 306 304 301 299 298 295 294 294 294 294 294 295 294 294 294 294 293 291 291 290 289 289 289 288 287 285 284 285 285 285 285 285 284 284 283 283 283
313 312 316 314 316 317 318 317 320 313 311 306 305 303 301 299 296 294 293 293 293 293 293 293 293 293 293 292 292 291 290 290 290 289 288 287 286 285 285 285 285 285 284 284 284 283 283 282 282
313 314 314 315 314 317 317 320 312 315 312 307 306 304 301 299 297 295 294 292 293 292 292 292 292 292 291 291 291 290 290 290 290 289 287 286 285 285 286 286 285 284 284 283 283 282 282 282 281
313 314 313 318 316 314 315 322 308 311 310 306 305 304 302 300 297 295 294 291 291 291 290 290 290 290 290 290 290 290 289 289 288 287 286 286 286 286 286 285 285 284 284 283 283 282 282 281 281

GFSSGP_925_thetae_057.txt.gz
Theta_e
318 319 320 320 315 312 315 316 314 316 317 315 318 316 316 321 320 315 328 336 336 337 338 337 333 331 332 334 336 338 338 340 338 336 335 333 332 330 330 330 328 328 327 325 326 327 330 333 330
318 320 321 310 311 314 313 313 316 315 316 314 313 317 322 327 324 327 331 339 338 337 338 336 334 333 335 337 338 338 339 339 338 335 332 331 329 329 325 323 324 325 324 324 323 321 323 329 328
319 318 314 311 308 313 314 313 313 314 313 313 317 316 322 325 323 325 332 340 339 339 339 336 334 334 334 335 336 337 338 338 337 336 333 331 326 324 322 318 315 316 318 317 316 314 318 324 326
318 315 307 311 314 313 313 312 311 314 312 313 315 320 322 324 325 329 334 341 340 339 339 337 335 334 334 334 334 336 337 336 336 334 333 329 326 326 325 324 322 316 306 304 304 305 312 319 322
315 309 310 312 314 313 311 310 308 312 312 313 314 318 325 323 328 331 339 341 340 339 339 339 336 335 334 334 334 334 335 335 335 334 333 330 328 327 326 324 323 322 313 302 302 304 308 313 315
312 308 311 312 313 313 313 311 311 311 313 313 314 316 320 322 332 336 341 341 339 338 339 339 339 336 335 334 334 334 334 334 334 334 332 331 329 327 326 324 323 322 320 309 301 302 305 308 309
311 310 313 310 311 314 314 309 309 310 311 314 311 316 316 320 331 337 342 341 340 340 338 338 339 338 337 334 335 335 333 333 332 333 334 331 329 327 325 324 323 322 321 319 314 303 301 302 303
306 307 311 310 311 314 313 312 307 310 312 309 309 313 320 317 330 335 338 341 341 341 340 340 339 339 339 337 337 336 334 333 332 332 334 332 330 327 326 325 323 323 322 321 320 317 311 303 302
305 306 308 310 310 314 311 313 311 308 309 309 308 309 310 323 327 331 334 336 337 337 339 339 337 339 339 337 338 337 335 334 333 332 333 332 331 329 327 325 323 323 322 321 321 320 318 313 308
307 305 310 310 310 312 311 312 310 312 310 310 310 309 311 320 321 323 325 327 331 334 335 336 335 337 337 338 338 337 336 334 333 334 333 333 331 330 328 326 324 323 322 321 320 320 318 317 314
308 309 309 313 313 312 311 312 310 309 311 308 309 308 308 313 314 316 319 324 327 328 331 332 333 335 335 335 335 337 337 335 334 334 334 333 332 331 329 327 325 323 323 321 320 319 318 316 315
310 311 310 313 313 312 312 311 312 309 311 309 306 307 307 308 310 311 310 312 314 316 318 321 328 333 334 334 332 335 337 335 333 334 333 333 333 331 330 328 327 325 323 322 321 319 318 318 318
312 312 312 313 313 313 313 313 312 311 309 306 305 306 306 306 309 311 311 310 310 310 311 311 311 314 323 330 330 333 337 335 335 334 333 333 333 332 328 328 327 326 325 323 321 322 320 319 319
313 313 313 312 313 313 314 313 312 311 305 306 306 305 304 305 306 307 307 308 309 310 310 310 311 312 313 326 329 331 333 334 335 334 334 334 333 331 329 328 327 325 323 322 321 320 319 319 317
312 313 310 310 312 313 311 312 311 309 305 306 306 304 303 303 305 306 308 308 308 309 309 310 312 312 314 322 328 330 332 334 334 332 333 333 333 331 328 327 325 324 322 320 320 319 317 315 313
312 310 313 312 311 312 311 312 310 305 305 306 304 302 302 302 304 306 307 307 307 308 309 311 315 316 317 324 326 330 331 332 332 332 332 331 330 328 327 325 323 321 319 318 317 316 312 310 309
309 313 312 312 310 311 310 312 311 305 305 306 303 302 302 301 302 305 306 306 306 308 310 312 315 316 319 325 325 327 327 329 328 328 329 327 327 326 324 322 320 318 317 317 316 309 309 307 304
313 313 312 313 312 310 311 309 309 307 304 306 303 302 301 302 302 304 304 305 306 308 311 312 314 314 317 322 322 324 324 324 325 325 325 325 324 321 319 317 316 316 313 308 305 307 307 304 302
311 312 313 313 313 312 310 310 311 307 305 304 304 303 303 303 303 303 303 304 306 309 311 312 313 314 316 318 318 317 318 317 318 318 319 320 319 318 317 315 313 311 307 298 302 306 305 302 300
312 313 312 311 310 311 311 310 309 308 306 307 307 306 304 303 299 300 302 304 306 309 311 312 313 314 316 317 315 315 314 312 313 314 315 315 314 313 312 312 309 304 297 295 303 305 302 300 300
311 311 312 313 312 309 310 311 310 309 307 306 306 307 306 305 302 299 300 303 306 309 311 311 312 313 314 311 312 312 308 307 306 306 309 310 309 308 307 307 303 296 294 293 293 296 299 292 293
313 311 312 313 315 315 311 316 313 311 310 308 308 307 307 305 302 300 300 302 305 308 310 311 312 311 311 312 310 312 308 302 302 304 304 303 301 300 301 297 293 293 293 293 292 292 292 291 289
314 312 312 313 313 314 313 314 314 311 311 311 311 309 308 306 302 300 300 303 304 307 310 311 311 308 310 310 310 308 303 303 303 301 299 295 293 292 292 292 292 292 292 291 291 291 290 290 289
310 312 311 310 311 315 315 314 315 313 313 312 311 310 307 303 300 300 301 303 304 307 309 309 308 308 308 307 306 305 305 302 297 296 293 290 290 290 290 290 290 290 291 291 290 289 289 288 288
312 314 316 315 314 318 310 312 316 312 311 311 312 310 307 302 298 298 299 302 302 305 307 307 306 305 306 304 304 304 303 302 301 297 292 289 288 288 289 289 289 290 290 289 288 288 287 286 287
313 313 315 314 315 313 311 316 315 310 310 308 307 307 305 300 297 298 299 302 302 303 305 305 304 304 303 303 304 303 302 299 298 294 292 289 289 289 288 288 288 288 288 287 287 286 286 286 286
312 314 313 315 298 310 313 312 311 310 309 308 307 306 302 300 297 297 298 301 301 302 304 304 303 303 302 302 302 301 299 297 295 291 290 289 289 288 287 288 288 287 287 286 286 286 286 285 285
311 310 315 311 313 312 314 314 316 315 312 310 309 307 302 298 296 296 297 300 300 301 303 302 302 302 302 301 301 300 298 295 294 290 289 289 288 287 287 287 287 286 286 285 286 286 285 285 284
312 313 312 312 311 313 312 316 310 314 312 312 309 307 303 299 296 295 296 297 298 299 300 301 301 300 300 299 299 298 296 294 292 290 289 288 287 287 287 287 286 286 285 285 285 285 285 284 283
311 312 312 314 312 311 312 317 310 310 310 309 309 307 302 299 295 294 294 294 295 295 297 298 298 298 301 300 297 296 294 291 290 289 288 288 287 286 287 286 286 285 285 285 285 286 285 284 283

GFSSGP_925_thetae_060.txt.gz
Theta_e
317 319 320 317 314 311 314 315 313 314 316 316 315 312 314 320 317 312 327 338 336 337 337 337 335 333 332 334 339 339 340 337 335 335 333 332 331 331 330 329 328 327 328 329 331 333 332 334 336
318 319 319 307 312 313 313 311 315 313 318 314 314 317 322 326 323 327 332 336 337 337 337 335 331 331 334 337 336 338 339 337 336 334 333 331 329 327 325 323 322 324 324 325 328 330 329 331 329
318 317 314 309 307 311 313 312 313 315 314 311 317 317 321 325 322 325 331 337 338 338 337 335 333 334 335 337 337 338 338 336 332 332 331 328 326 324 321 319 317 319 319 321 324 326 329 328 327
318 313 305 310 315 313 314 312 311 314 312 313 317 323 320 323 324 329 338 338 338 338 337 335 334 334 334 335 335 337 337 336 331 331 329 327 326 325 323 322 316 313 316 317 320 322 322 323 320
313 306 310 311 313 312 310 310 310 313 311 313 313 319 325 322 327 330 338 339 338 338 337 335 334 333 333 333 334 335 336 336 334 334 330 327 326 325 324 322 320 310 307 310 313 314 314 314 312
311 306 310 312 312 312 311 309 309 311 311 312 316 320 323 320 330 333 338 340 339 338 338 336 335 333 333 334 334 334 335 335 335 332 329 328 327 325 324 322 321 317 308 306 308 307 307 307 307
311 309 311 311 312 314 313 306 309 309 312 313 313 318 316 318 331 336 340 340 340 338 338 339 337 335 334 334 334 333 333 333 333 333 331 329 327 325 324 322 321 320 318 310 306 304 305 304 303
305 307 309 309 311 314 311 308 308 310 311 308 309 313 318 318 331 337 341 340 339 339 339 339 338 337 336 334 335 334 333 332 332 334 331 329 327 325 324 323 322 321 320 317 312 306 303 302 302
303 306 308 310 310 312 309 312 308 307 308 309 309 309 310 322 329 333 337 339 340 340 340 340 339 338 338 336 335 335 334 333 332 332 333 330 328 327 324 323 322 321 319 318 316 314 309 308 308
304 304 307 308 307 312 310 311 309 311 310 310 309 308 310 324 325 327 330 333 336 339 337 339 337 335 337 337 336 337 335 333 332 332 332 331 329 328 326 323 322 322 321 319 317 316 315 315 314
307 306 308 312 312 311 310 311 308 308 311 308 309 308 311 317 320 325 328 333 334 333 334 335 335 334 336 337 338 337 336 334 332 332 333 332 330 329 327 325 323 322 321 319 317 316 316 316 315
310 310 308 312 312 310 311 309 310 307 310 308 305 307 309 311 314 320 324 328 329 331 332 332 333 334 333 334 335 334 337 335 333 333 333 333 331 330 328 326 324 323 322 319 317 317 316 317 315
311 311 311 312 312 312 312 312 310 309 307 306 305 307 307 309 312 316 321 324 324 324 326 328 328 330 332 334 333 331 332 336 333 333 333 332 332 331 329 327 326 324 323 321 320 319 318 317 314
312 312 312 311 312 312 313 312 312 311 306 307 305 305 305 306 310 311 311 311 312 314 315 315 314 316 323 329 332 331 331 335 335 332 332 332 332 331 330 327 326 325 324 321 320 319 318 315 311
311 313 310 310 311 312 311 311 311 309 306 307 305 304 304 304 307 310 312 311 310 310 310 310 310 311 312 314 324 329 330 334 334 335 334 333 333 332 329 327 326 324 322 321 319 318 316 313 308
311 309 312 311 311 311 311 311 309 306 306 307 305 303 303 303 305 307 310 310 310 309 309 309 310 311 312 314 320 328 329 330 333 334 333 333 332 332 329 327 325 323 321 320 317 315 312 309 305
308 312 312 311 309 311 310 311 311 305 305 306 304 303 302 302 302 306 308 308 308 308 308 309 310 312 314 318 320 327 327 330 331 332 332 332 331 329 328 325 323 321 319 317 315 312 311 305 300
312 312 311 312 312 310 311 309 307 307 305 305 304 302 302 302 303 305 306 307 307 307 307 309 311 313 315 318 320 325 327 328 327 329 330 330 329 327 324 323 321 319 317 314 310 309 305 302 297
308 311 312 311 311 311 310 309 309 308 304 305 304 303 303 303 305 305 306 306 305 305 307 309 312 314 314 316 317 321 323 324 325 325 326 326 326 322 322 321 318 316 315 311 308 305 303 297 295
311 313 312 310 310 310 310 310 309 307 306 306 307 306 304 304 301 301 304 304 304 305 307 309 311 312 313 315 315 319 320 318 321 320 321 322 322 321 320 317 314 311 304 304 307 305 300 296 297
310 310 310 312 311 308 309 310 308 308 307 306 305 306 305 306 305 300 299 302 303 304 306 309 310 311 312 314 314 316 315 313 313 313 314 315 318 317 316 315 312 303 300 304 305 304 304 298 299
312 309 310 312 313 313 310 314 311 310 309 307 308 305 306 305 303 301 300 300 302 304 305 308 311 310 312 313 313 315 314 307 310 312 312 312 313 312 312 310 305 296 298 303 303 303 302 302 296
312 309 310 312 311 312 310 314 313 310 311 311 310 308 306 305 303 301 300 301 302 303 305 308 310 310 310 312 313 312 310 310 311 308 308 308 307 307 307 305 298 294 293 293 293 293 291 292 292
309 311 310 309 310 315 311 312 312 310 312 311 311 308 306 304 301 299 300 301 302 303 305 307 309 309 309 311 310 309 309 308 305 302 302 301 302 302 301 294 292 292 292 292 292 291 291 290 290
311 313 314 312 312 316 310 312 314 310 309 309 310 309 307 305 301 298 297 299 301 303 304 306 308 305 307 308 308 307 308 308 308 305 301 297 295 294 291 290 290 291 291 291 290 290 289 289 288
311 313 314 310 311 310 310 315 313 309 308 307 306 306 306 303 300 298 297 299 301 302 303 305 307 304 305 307 306 306 307 305 303 302 302 301 296 292 290 290 290 290 290 290 289 289 288 287 287
311 314 311 312 296 308 310 308 309 308 309 308 307 306 305 302 300 297 296 300 301 302 303 305 305 303 305 306 304 303 303 302 302 301 297 295 294 291 289 289 289 289 289 289 288 288 287 286 286
310 309 313 310 312 310 312 312 313 312 312 309 309 307 304 302 300 296 296 299 301 302 303 305 305 303 304 305 303 302 301 301 300 299 297 295 291 289 288 288 288 288 288 288 287 287 286 285 285
311 312 311 311 310 310 310 314 308 310 310 311 310 308 306 303 299 296 295 298 300 301 302 304 304 302 303 303 301 300 299 299 299 299 295 293 289 288 288 287 287 287 286 286 286 286 285 285 284
310 311 311 313 311 308 310 316 309 309 309 308 309 308 306 303 299 295 295 297 297 299 300 301 301 301 304 302 299 298 300 299 297 294 293 290 288 287 287 287 286 286 286 286 286 285 285 285 285

GFSSGP_925_thetae_063.txt.gz
Theta_e
316 318 320 316 320 316 316 316 312 313 316 315 311 313 316 319 315 315 328 337 337 337 336 336 336 335 333 338 340 338 336 329 333 331 331 330 329 329 328 328 329 329 331 333 332 334 333 332 330
317 319 317 310 317 316 316 311 314 313 319 317 315 319 322 327 324 327 334 337 337 337 337 335 334 332 333 338 339 338 336 335 335 332 331 329 328 326 325 324 325 326 329 330 332 333 332 329 327
318 317 318 312 311 315 315 312 312 315 315 311 319 318 321 325 322 327 329 337 337 337 336 335 332 331 335 337 338 338 335 335 334 333 332 327 325 322 319 321 321 322 325 328 330 331 329 325 321
317 313 308 314 314 312 314 312 312 316 313 312 317 322 320 323 324 328 337 336 337 337 336 332 332 335 336 336 337 338 335 331 332 331 328 325 325 323 321 317 319 320 322 324 326 327 323 317 314
312 308 313 313 312 311 309 310 313 315 311 314 313 318 325 322 326 329 338 337 337 337 336 333 334 334 335 335 337 336 336 333 331 328 327 326 325 324 322 317 316 317 319 320 321 321 318 313 309
313 308 313 314 312 311 310 308 312 311 310 312 316 321 322 320 328 330 339 338 337 337 336 334 334 333 333 334 335 336 336 335 331 329 328 327 325 323 321 320 317 316 317 317 317 317 310 305 302
313 312 312 311 312 313 312 306 310 310 311 313 315 320 317 319 330 333 340 339 338 338 337 335 334 333 333 333 334 334 334 334 333 330 328 326 325 323 322 321 320 317 315 313 309 305 303 302 301
307 309 311 309 312 314 310 308 308 310 312 308 311 315 317 320 331 337 340 340 340 339 338 336 335 334 334 334 333 333 333 333 333 331 329 327 325 323 322 321 320 318 315 309 304 303 302 302 302
303 310 311 311 310 313 307 310 306 307 309 309 308 310 311 322 331 336 338 338 339 339 339 338 337 336 336 334 334 334 333 332 332 333 329 327 325 323 322 321 320 319 316 313 309 308 308 308 309
305 308 309 308 307 311 309 310 308 310 310 311 309 307 309 323 328 331 333 334 337 338 339 339 338 337 337 335 335 335 334 333 332 332 331 328 327 325 323 322 321 320 318 315 313 313 312 312 310
306 306 306 309 310 310 310 310 307 309 311 310 311 309 311 319 322 328 333 336 337 338 339 337 338 336 336 336 335 335 336 333 332 332 332 330 328 327 324 322 322 321 318 317 315 314 314 312 311
310 309 307 311 311 309 309 307 309 307 310 308 306 307 312 317 319 324 328 334 335 336 334 334 335 334 333 336 336 336 337 334 332 332 332 331 330 328 326 324 323 322 319 317 316 316 314 312 310
310 310 310 311 311 311 309 310 309 308 306 307 305 307 311 317 319 321 327 331 332 331 332 331 332 332 333 333 334 334 332 335 333 332 332 332 331 329 327 325 324 322 320 319 318 317 314 311 310
310 311 311 310 311 311 312 311 311 310 306 307 306 306 308 312 317 317 321 325 326 329 330 330 330 330 331 332 332 333 331 333 334 333 332 332 331 330 329 326 325 323 321 321 319 317 313 310 308
309 312 310 310 311 312 310 311 310 309 307 308 307 305 305 307 311 314 319 322 323 325 324 324 324 325 326 329 330 331 331 331 333 333 332 332 332 331 330 327 324 322 321 321 319 316 312 308 304
310 308 312 310 310 310 311 311 309 306 307 309 307 305 304 304 307 310 314 315 314 313 313 313 313 312 312 313 318 328 330 330 334 335 333 332 332 332 330 328 325 322 321 320 318 314 308 303 299
308 310 311 311 308 310 310 311 309 306 305 306 305 305 304 303 304 306 310 312 313 311 310 310 310 310 310 311 312 316 326 329 331 332 333 333 333 331 330 327 325 321 320 319 317 312 309 300 294
311 312 310 311 311 309 310 310 308 306 306 307 306 304 304 304 305 306 308 309 310 310 309 309 309 309 311 311 314 321 322 325 329 330 332 332 332 331 329 326 323 320 319 317 314 311 302 299 293
308 310 311 309 309 311 310 309 310 308 306 306 306 306 305 305 306 306 308 308 308 307 307 308 308 310 312 312 316 319 321 322 324 329 330 330 330 330 328 326 323 318 319 316 313 308 302 291 291
310 311 311 309 309 310 310 311 310 308 310 310 310 309 307 307 304 303 305 306 306 306 306 307 308 310 312 312 316 317 319 320 324 323 324 324 328 327 326 322 321 317 317 314 310 307 294 290 292
309 310 310 312 310 308 308 310 309 308 308 308 307 308 307 307 308 304 301 303 303 304 306 306 307 309 312 313 315 316 316 317 318 318 322 323 323 324 322 320 318 317 316 313 309 306 301 292 294
311 308 309 311 312 312 309 312 310 308 309 307 308 307 307 307 305 304 301 301 302 304 305 305 307 309 311 312 313 315 315 313 315 318 320 321 320 320 319 317 317 315 313 310 308 305 303 301 298
311 307 309 310 311 311 311 313 311 309 310 310 310 309 307 306 305 304 301 302 304 302 303 304 306 308 310 311 312 313 313 314 317 316 315 314 315 314 316 316 314 309 304 305 306 304 302 301 301
307 309 309 307 309 314 311 312 311 309 311 310 309 308 307 305 303 301 302 302 302 302 303 304 305 308 309 311 311 312 312 311 314 311 310 310 310 310 311 312 308 301 301 304 304 303 301 301 300
310 312 312 311 313 316 308 311 312 309 308 308 310 310 306 305 304 302 299 298 299 301 302 303 304 306 308 309 310 310 311 311 313 313 310 307 306 306 307 308 300 294 300 302 302 301 293 293 292
310 311 312 309 309 308 309 313 312 308 307 306 305 305 305 305 303 302 299 298 299 301 302 303 304 305 305 307 308 308 310 310 309 310 310 309 310 310 307 305 300 293 291 292 291 290 290 290 289
311 313 310 310 295 308 308 307 307 306 307 306 308 306 304 304 303 301 299 298 300 301 302 303 304 305 303 306 306 307 308 307 307 306 307 306 305 305 303 299 292 291 290 290 289 289 289 288 288
309 309 313 309 311 309 310 309 311 312 311 309 308 307 305 303 302 300 297 298 299 301 302 303 304 305 302 305 305 307 307 305 305 305 305 303 303 299 297 291 290 289 289 289 289 288 288 287 286
311 312 310 309 309 310 309 312 306 309 309 308 307 307 306 304 303 301 297 298 299 300 301 302 303 304 302 303 303 305 305 303 302 302 302 302 300 296 291 290 289 289 288 287 287 287 287 286 285
308 310 310 311 310 308 309 315 307 308 310 308 307 308 307 305 302 299 296 297 298 299 301 302 303 303 302 303 303 303 305 301 299 299 299 299 298 293 289 288 288 288 287 287 287 287 286 286 285

GFSSGP_925_thetae_066.txt.gz
Theta_e
315 317 320 322 326 323 323 321 318 319 319 318 319 319 322 321 319 323 331 339 339 339 339 338 335 335 336 338 336 332 333 335 333 333 332 331 329 329 330 330 331 332 332 336 333 332 331 329 327
317 319 320 322 325 323 321 319 320 319 321 320 320 323 324 327 329 335 337 339 339 339 339 340 336 334 337 339 337 333 333 333 333 332 329 328 327 326 326 327 330 331 332 333 332 331 330 327 325
318 317 326 325 323 322 319 319 319 321 321 319 322 323 324 327 329 337 336 339 340 340 339 340 335 333 337 338 338 335 333 333 333 330 330 327 325 323 323 324 327 329 331 331 330 328 325 324 324
319 319 318 323 322 319 319 319 318 321 317 316 321 324 325 325 331 329 337 339 340 340 340 336 333 333 337 338 338 335 334 334 332 330 330 327 323 322 321 322 324 326 327 328 326 322 320 321 320
316 320 322 321 321 318 316 316 320 319 318 319 321 322 326 325 326 331 339 339 340 340 339 335 332 334 335 337 338 336 334 333 332 331 330 327 323 321 320 320 322 323 324 324 320 318 313 310 312
322 320 322 322 320 317 316 316 320 319 316 318 319 321 325 324 328 333 339 339 340 340 339 338 334 334 334 335 337 337 334 332 328 328 327 326 324 322 320 319 319 320 320 320 316 309 305 308 313
322 322 322 320 319 318 317 315 320 318 317 318 319 321 322 324 330 335 340 340 340 340 339 339 338 335 333 334 335 335 335 332 329 328 327 324 323 322 320 318 318 317 318 317 311 305 304 307 311
319 321 320 319 319 319 316 316 315 318 317 314 320 319 320 324 330 337 340 340 341 340 339 339 339 338 337 336 334 335 335 334 330 328 326 324 322 321 320 319 318 318 316 314 307 303 302 305 310
311 320 320 320 318 318 314 316 311 312 315 316 317 315 317 326 330 336 338 339 340 341 340 339 339 338 338 338 335 334 334 334 332 329 326 325 327 325 324 320 318 315 311 309 306 305 307 307 310
317 320 319 316 316 317 315 315 315 315 315 316 315 313 313 325 331 336 337 338 338 339 340 340 339 339 339 338 335 337 335 334 334 332 328 330 328 327 324 320 319 317 314 312 311 311 311 312 315
313 318 311 313 313 314 315 314 314 315 316 317 318 317 314 326 331 335 335 336 337 337 338 339 339 339 339 337 334 334 335 333 333 332 331 329 326 324 323 320 318 317 316 314 312 311 311 311 312
314 312 312 314 314 314 314 314 314 315 318 314 316 315 315 324 328 333 334 335 336 336 336 336 337 337 334 335 334 334 336 334 335 335 333 329 327 325 324 322 319 317 316 315 314 311 310 310 310
313 313 311 313 313 313 312 314 315 314 315 312 311 311 315 319 325 329 332 335 335 333 333 331 337 336 334 333 333 334 336 335 336 335 333 332 329 327 325 323 321 318 317 316 313 311 309 308 308
314 314 314 313 314 313 315 315 314 316 314 312 312 314 314 317 321 326 328 331 332 332 330 328 332 333 333 332 333 333 333 335 335 334 333 332 331 328 326 323 321 319 318 316 317 315 312 309 304
313 315 315 314 314 315 313 315 315 315 312 314 313 314 313 314 317 323 324 327 330 329 328 325 330 331 331 331 332 331 332 332 333 334 332 332 332 329 327 325 321 320 318 318 316 315 310 307 300
315 316 317 314 313 314 314 317 316 312 312 314 316 315 314 313 313 316 321 324 326 326 324 324 329 329 329 328 329 328 330 332 332 333 333 333 331 331 329 327 325 322 319 317 315 313 308 302 297
316 316 317 316 313 314 315 318 316 312 312 315 315 315 314 314 312 312 315 318 320 321 320 320 324 323 323 323 322 324 327 329 330 330 333 332 331 331 330 328 325 322 319 314 313 311 308 300 293
316 317 315 316 314 313 316 316 316 316 312 315 316 316 315 314 314 312 311 313 315 314 314 314 314 314 315 315 316 317 320 324 328 329 333 334 332 331 331 327 325 322 319 311 311 310 304 297 293
314 315 315 315 313 315 316 317 316 316 316 316 316 316 316 316 315 313 311 310 310 311 311 311 311 312 314 315 315 314 314 317 325 328 328 332 332 332 331 328 324 321 319 317 311 308 304 292 291
314 316 316 315 312 313 316 316 316 316 316 316 317 317 317 317 317 313 311 309 308 309 309 310 311 312 313 314 314 314 315 315 321 324 325 327 328 331 330 328 323 320 316 312 310 309 296 293 292
315 316 315 315 313 313 314 316 317 316 315 315 315 316 316 316 316 315 312 310 309 308 309 309 310 311 313 313 314 311 310 315 319 322 323 324 327 327 326 326 324 320 318 316 311 308 304 294 293
315 313 314 314 315 316 313 314 315 315 315 314 315 316 316 316 315 314 314 310 308 308 308 308 309 310 312 313 312 311 313 314 317 319 321 322 322 324 322 324 324 321 317 313 310 308 304 297 295
315 312 313 314 316 316 315 315 314 312 314 315 316 316 317 316 315 314 313 310 309 308 308 308 308 309 311 312 311 312 314 315 313 316 319 321 317 321 321 322 321 319 315 312 309 305 301 298 298
311 314 314 314 316 317 314 315 314 315 315 315 315 315 315 315 313 312 310 308 308 306 306 307 308 309 310 310 311 312 314 311 313 314 315 317 317 317 317 318 319 318 314 309 307 304 302 299 299
314 316 316 318 320 319 313 315 315 315 313 313 315 315 314 312 313 312 310 307 305 305 305 306 307 308 309 309 310 311 312 310 312 314 314 314 312 312 314 316 314 313 311 308 305 303 301 299 298
315 316 316 324 317 314 311 315 315 315 313 313 312 313 313 310 312 312 311 308 306 304 305 306 306 307 308 308 308 309 311 309 309 312 311 313 313 312 314 314 312 310 307 303 303 302 300 300 299
314 315 314 315 308 314 313 315 315 313 312 311 312 313 314 313 312 312 310 307 305 305 305 306 306 306 308 307 307 308 308 306 307 309 307 306 306 307 312 311 307 304 301 300 302 302 301 297 293
312 313 315 314 322 319 314 314 315 316 316 314 314 314 313 312 312 311 309 306 304 304 304 305 306 306 306 305 306 307 306 306 306 309 308 306 304 308 309 307 303 298 295 300 300 297 294 289 288
313 314 313 313 316 320 317 314 314 315 315 314 314 312 313 312 311 311 308 305 303 303 304 305 305 306 305 304 305 304 303 303 305 307 308 307 307 308 306 306 301 295 292 290 290 289 288 288 287
311 314 314 316 317 315 315 317 311 313 314 313 314 311 311 309 310 309 307 304 303 303 303 304 305 305 305 303 304 303 302 301 303 303 304 303 303 304 303 302 295 290 289 289 289 289 288 287 287

GFSSGP_925_thetae_072.txt.gz
Theta_e
318 319 320 325 329 326 325 323 321 322 322 320 323 321 322 326 330 341 336 336 336 338 337 332 334 335 336 335 335 333 334 334 333 332 332 332 332 334 331 331 335 334 333 331 328 327 327 327 326
316 319 323 326 326 328 322 320 321 322 321 319 322 322 323 329 333 335 339 340 338 338 336 333 335 334 336 333 331 333 333 333 331 330 330 330 330 332 331 331 334 333 331 329 327 326 326 326 325
317 319 325 328 325 323 322 320 320 322 320 320 322 323 324 329 333 339 340 340 339 338 339 338 335 334 336 333 330 331 332 332 331 329 328 327 329 330 331 333 333 330 329 327 326 326 326 325 325
321 322 321 322 325 320 320 319 321 321 319 319 322 323 325 328 335 339 340 340 339 339 339 340 334 334 337 335 330 329 330 333 332 329 327 326 326 329 330 331 328 326 326 326 324 325 323 323 324
320 322 325 325 322 320 319 318 320 321 318 318 321 323 328 330 334 340 340 340 339 339 341 339 335 335 338 336 332 330 330 332 331 328 325 324 325 327 328 329 327 325 324 323 323 323 318 323 324
321 321 324 325 322 320 319 318 320 319 317 319 320 320 327 328 333 340 340 340 339 339 339 337 334 335 337 337 334 332 332 333 331 328 325 324 324 325 326 326 323 322 321 321 321 316 317 321 321
324 324 323 323 321 320 319 318 319 319 316 319 319 320 326 328 333 339 339 339 339 339 340 337 334 335 336 337 335 334 332 332 328 326 323 321 321 322 323 324 321 319 319 320 320 313 316 319 319
320 322 323 322 321 320 318 318 319 319 318 318 320 319 323 326 331 337 339 339 339 338 339 338 335 336 335 336 336 334 333 332 329 326 323 321 319 317 318 319 318 317 317 319 317 313 318 320 322
318 320 320 322 321 320 317 318 317 316 317 318 319 319 323 325 331 335 337 338 339 336 338 338 338 337 336 335 336 335 333 331 328 325 323 321 319 318 318 316 315 314 316 319 311 312 319 319 319
318 320 320 317 316 317 317 317 315 317 317 317 318 316 324 329 331 334 336 337 337 336 338 338 337 336 336 336 335 336 334 331 328 325 324 324 324 323 319 315 312 309 306 304 308 312 316 317 317
320 321 316 316 316 315 318 317 317 316 316 316 316 315 322 329 330 333 335 336 336 335 338 338 338 337 336 337 336 335 335 333 329 325 328 327 327 323 318 315 313 311 309 311 315 316 316 316 316
316 317 315 317 317 316 317 317 317 315 317 316 315 315 321 326 328 330 333 334 337 338 338 337 338 337 337 337 336 335 336 334 333 329 330 329 328 323 318 316 314 312 312 313 314 314 315 315 314
314 315 313 315 315 315 315 315 316 315 314 315 315 315 316 322 327 329 331 332 333 336 338 336 337 336 337 337 337 336 337 335 334 333 330 330 329 323 319 318 315 316 314 314 314 314 314 313 311
315 315 314 314 315 315 315 315 315 315 313 314 313 313 313 316 323 327 329 331 332 334 335 337 336 337 336 337 337 337 337 336 335 334 332 332 329 325 322 321 318 317 316 315 314 313 311 310 310
316 315 314 314 315 315 315 315 314 312 314 315 315 312 312 313 318 322 326 328 331 333 334 336 337 336 336 338 338 337 335 337 335 335 335 333 331 326 325 323 319 318 317 315 313 311 309 307 304
315 315 315 316 315 315 316 313 315 315 313 312 313 312 312 312 315 317 320 326 328 331 334 335 336 336 337 336 336 336 335 334 336 335 334 334 332 330 327 324 319 318 317 315 314 312 308 303 301
316 313 314 316 315 316 315 317 317 315 315 314 313 312 312 312 313 316 317 320 326 329 333 334 334 336 336 335 334 333 333 334 333 334 335 334 333 332 329 326 320 319 318 315 314 312 310 301 297
315 316 315 317 315 315 315 314 315 314 314 313 313 312 313 313 312 316 316 317 322 327 331 333 334 334 333 332 331 332 332 332 333 333 334 335 334 333 330 328 323 320 319 315 313 312 305 301 296
315 315 314 314 315 316 315 314 313 312 312 312 311 311 312 312 313 317 316 316 318 323 326 331 332 331 329 329 329 330 330 330 331 330 332 332 333 333 331 328 325 322 320 317 313 308 302 297 295
316 315 314 313 314 315 314 313 312 312 312 312 312 312 311 312 311 313 317 316 316 319 323 328 330 330 327 327 327 327 328 328 329 328 329 330 330 330 331 329 326 324 319 313 309 308 299 295 295
315 314 313 314 315 313 313 314 314 314 313 312 312 312 312 312 311 312 313 316 315 316 320 325 327 327 326 325 325 324 324 323 324 325 326 327 326 327 329 329 325 323 319 316 315 311 306 296 295
314 314 313 315 314 313 315 313 313 311 311 313 313 312 311 312 312 312 313 315 315 315 316 319 322 324 324 323 322 320 319 317 317 318 318 318 321 323 326 327 326 324 319 316 315 313 307 299 296
314 314 315 315 315 315 315 314 312 310 312 312 312 312 312 312 313 314 311 315 316 315 314 315 318 318 318 318 318 317 316 316 316 315 315 315 312 319 322 323 325 323 320 318 317 313 303 307 300
314 315 316 316 314 313 312 313 311 311 313 314 314 315 315 315 313 314 315 315 315 316 315 314 314 315 315 315 316 316 316 316 316 314 313 313 310 314 318 321 322 322 319 318 317 314 307 307 301
315 315 313 317 316 316 313 312 311 313 312 313 313 311 312 314 313 313 312 311 313 313 314 313 313 313 313 314 314 316 316 316 314 314 316 314 310 311 315 318 320 318 318 319 317 310 303 303 301
314 313 315 314 318 314 311 312 312 313 314 313 313 311 310 312 310 310 312 312 311 311 312 312 312 312 312 312 313 315 315 316 314 314 316 315 313 311 314 316 317 317 318 315 314 311 310 304 301
315 314 313 314 306 312 313 312 311 312 312 312 311 310 309 310 311 312 310 312 313 311 310 310 310 311 311 311 312 313 314 315 314 314 315 314 313 312 313 316 317 315 314 312 311 309 307 305 304
313 312 315 313 314 313 313 312 312 312 312 311 312 313 312 311 311 310 310 311 311 310 309 309 309 309 309 310 311 312 312 313 312 313 314 313 312 311 311 313 315 313 311 310 308 308 309 306 303
312 312 313 313 313 314 313 312 313 313 315 315 314 314 312 312 310 309 308 309 309 308 309 309 309 309 309 309 310 310 311 311 311 312 313 312 311 310 309 311 313 311 309 308 307 306 306 305 304
312 311 312 313 313 311 312 314 313 312 313 314 313 313 313 311 310 308 308 308 308 308 308 308 308 308 308 309 309 309 310 309 309 310 311 310 310 309 309 309 310 311 309 307 304 304 305 304 302

GFSSGP_925_thetae_075.txt.gz
Theta_e
313 318 319 322 321 317 320 320 317 321 319 319 319 318 324 326 333 333 335 333 332 333 332 332 333 336 335 334 332 332 333 333 332 332 332 333 333 334 335 335 332 331 329 328 327 327 328 327 325
313 318 321 317 319 319 316 317 318 320 317 318 319 320 322 331 332 334 333 333 334 335 331 332 334 336 334 334 333 333 332 332 332 331 331 332 333 334 335 334 331 329 328 327 326 326 328 327 326
317 320 317 320 317 316 317 316 318 318 317 318 321 320 324 330 334 335 337 336 338 336 331 333 333 335 333 329 330 330 329 330 330 329 329 331 332 333 335 333 330 328 327 326 326 328 328 324 324
319 317 313 316 321 317 315 317 317 317 317 317 318 323 325 328 338 339 338 338 338 336 333 334 333 335 334 329 329 329 330 331 329 328 328 329 331 331 332 330 327 327 326 326 325 327 327 328 327
318 314 319 320 318 317 314 317 317 317 315 317 319 322 326 334 338 339 339 338 339 338 338 335 334 336 335 330 329 329 332 332 329 327 326 328 329 330 330 328 325 326 325 325 325 327 325 325 325
314 313 317 320 318 316 315 316 316 314 315 318 318 321 325 334 339 339 339 339 339 339 339 337 334 336 337 333 329 328 333 330 326 324 322 326 327 328 327 325 324 323 323 324 324 324 322 322 323
319 316 317 320 317 317 316 315 315 313 315 317 316 321 325 330 339 339 339 338 338 338 339 336 333 336 337 335 332 330 332 330 326 323 322 323 323 325 324 322 321 322 322 322 323 322 321 320 320
314 315 319 318 317 318 315 317 316 315 316 316 317 319 326 327 338 339 339 338 337 338 337 335 333 335 337 335 333 332 331 328 326 323 321 320 320 320 320 318 319 321 322 321 322 320 321 322 322
314 314 315 317 318 316 315 316 315 314 315 316 317 318 321 331 337 339 338 338 338 337 337 336 332 335 336 336 334 333 332 329 327 323 321 319 317 317 316 314 315 319 319 318 316 320 320 321 321
313 312 315 314 314 315 314 315 314 315 315 316 316 317 324 329 335 337 337 336 338 338 336 336 334 334 335 336 335 334 332 330 327 324 321 319 318 317 315 312 311 312 307 310 317 318 318 318 319
315 315 315 314 315 313 315 315 312 313 314 312 314 316 326 329 331 333 335 336 337 336 336 335 336 336 334 334 334 335 333 331 327 324 322 323 323 320 316 313 310 307 305 312 316 316 316 317 317
315 315 314 315 315 315 315 313 315 312 314 314 312 315 324 325 327 330 334 335 337 336 335 335 335 336 335 335 334 334 334 332 329 324 325 325 325 320 317 315 312 309 309 314 316 316 316 316 315
313 313 312 313 314 314 314 314 314 313 311 310 313 315 324 324 326 330 333 334 336 336 335 336 335 335 336 335 335 334 334 334 331 325 327 326 326 321 318 316 314 312 314 314 315 315 316 314 314
314 313 312 313 313 313 313 312 313 312 310 311 311 312 318 322 325 327 330 333 333 335 334 336 335 334 334 334 335 334 335 334 333 330 328 329 328 325 318 316 313 313 314 314 314 315 315 313 313
314 313 312 312 312 314 313 309 312 309 313 312 310 308 311 315 323 325 328 329 332 334 336 337 336 335 334 334 334 335 336 335 335 334 330 330 329 328 321 318 315 315 314 315 315 314 313 311 310
313 312 311 312 311 313 311 307 310 311 309 310 309 307 308 308 314 322 326 328 329 331 333 336 337 335 335 334 334 335 336 336 336 335 334 330 331 329 325 321 318 317 315 315 314 313 311 309 308
312 309 311 313 312 313 313 310 313 311 312 311 308 307 307 307 309 314 320 324 327 329 331 334 336 336 335 334 334 336 337 336 336 336 335 334 333 331 329 324 322 317 317 315 314 311 309 305 303
312 313 313 312 314 313 313 311 310 310 311 310 309 308 308 307 308 313 315 317 321 325 329 332 335 336 336 334 335 337 337 336 334 336 335 335 334 332 330 327 325 319 317 315 313 311 306 303 298
313 313 313 312 313 313 312 311 310 310 308 306 306 307 307 308 311 313 314 315 317 321 326 330 334 335 336 336 336 336 335 333 334 333 333 334 334 333 331 329 327 321 318 317 314 309 304 297 295
313 314 313 311 313 313 312 311 309 309 310 310 309 306 306 307 308 310 313 314 315 317 323 328 332 334 334 335 334 333 331 331 333 333 333 333 334 334 332 330 328 323 319 315 313 309 298 295 295
314 313 313 312 312 311 311 309 310 310 310 309 308 307 308 308 308 307 308 312 314 315 319 325 329 332 333 333 331 330 329 329 330 331 331 331 329 332 332 330 329 326 320 319 315 310 303 297 294
314 312 312 312 312 311 310 310 310 311 310 309 309 308 308 307 307 307 308 310 312 314 316 321 324 328 331 331 329 328 327 326 327 327 329 329 329 328 328 330 328 327 323 321 315 311 308 301 297
312 313 313 314 313 313 312 311 309 308 309 308 308 307 307 306 307 308 309 311 313 314 314 316 321 326 329 330 328 326 325 324 324 324 324 328 328 327 327 327 327 325 324 320 320 312 306 305 302
311 313 313 311 310 310 310 310 308 309 310 310 312 311 311 312 311 311 313 314 314 314 313 314 318 323 326 326 326 325 322 321 319 319 318 319 321 322 323 323 323 323 322 320 321 317 311 308 307
312 309 310 312 312 310 309 309 309 308 309 311 312 310 309 311 309 309 311 310 311 313 313 314 315 317 320 321 323 323 322 320 319 318 316 315 315 315 315 314 317 319 320 320 317 316 311 308 304
312 310 310 310 315 312 309 311 311 309 311 310 311 308 306 306 306 307 306 309 311 310 312 313 313 313 314 316 316 316 317 317 316 316 316 315 314 314 313 311 311 316 318 317 317 313 312 306 305
312 313 310 311 300 309 310 309 309 309 309 308 307 308 309 308 308 308 307 309 310 311 310 311 312 312 312 312 313 314 314 315 315 315 315 314 314 314 314 313 311 313 315 315 315 314 311 309 309
311 310 313 310 309 310 310 309 311 310 310 313 312 311 309 309 308 306 307 309 309 310 310 309 309 310 310 311 311 311 312 313 314 315 315 314 314 314 314 313 311 309 312 313 313 312 310 307 306
311 312 312 311 311 310 310 309 306 309 311 313 313 311 312 311 309 307 307 308 309 309 309 309 309 309 309 309 310 310 311 311 312 313 314 314 313 313 313 313 312 308 309 311 311 308 309 308 305
310 310 311 312 311 309 311 313 309 309 311 309 311 312 312 311 307 305 306 307 308 308 308 309 309 309 309 309 309 309 310 310 311 311 312 311 312 312 312 312 311 309 309 308 308 307 307 306 304

GFSSGP_925_thetae_078.txt.gz
Theta_e
314 315 319 322 320 314 318 318 318 320 319 318 317 320 323 326 330 325 333 332 332 333 333 334 335 337 333 330 332 331 333 333 333 334 335 335 336 336 335 332 330 329 328 328 329 329 330 329 330
313 318 322 313 318 314 315 316 318 319 316 316 317 320 325 335 332 331 332 333 331 332 332 333 335 335 332 330 332 331 333 332 332 333 334 334 335 336 334 331 329 328 327 327 329 329 330 329 326
318 319 317 317 312 315 315 316 317 316 315 317 319 319 324 334 332 331 333 333 331 332 332 333 335 334 332 329 329 330 331 331 332 332 333 333 334 334 333 330 328 328 327 328 329 329 329 329 328
319 315 311 314 317 316 315 316 316 316 316 316 318 326 324 328 334 334 333 333 334 331 332 333 335 334 328 328 327 328 330 330 329 330 331 332 333 333 330 329 328 326 327 328 329 329 329 325 326
317 311 316 318 316 316 316 315 314 316 315 317 319 322 330 334 336 337 333 335 335 331 332 333 334 334 329 327 327 328 327 326 326 328 331 331 331 331 329 327 326 326 326 328 328 328 329 327 326
313 310 316 317 316 315 314 315 314 314 314 316 319 324 327 334 338 335 337 338 337 334 333 334 334 335 331 327 327 331 326 325 324 325 327 328 329 329 327 326 325 325 325 328 327 327 326 327 326
315 313 315 318 316 316 315 311 312 314 315 317 313 324 325 332 338 337 338 338 338 338 336 334 334 336 334 329 328 330 328 325 323 323 324 326 327 324 323 323 324 324 324 325 326 325 323 322 321
312 313 318 317 316 316 314 315 312 312 314 314 315 324 327 328 338 338 338 338 338 338 338 335 334 336 335 332 330 329 329 326 323 322 321 321 321 317 315 320 322 323 323 324 324 323 321 320 320
310 313 314 316 315 316 313 315 313 313 314 315 315 317 319 329 338 338 337 337 337 338 338 336 334 336 336 334 332 330 329 327 324 322 321 320 319 316 314 316 320 321 322 322 322 321 321 321 320
311 312 313 313 313 314 314 314 313 314 314 315 315 319 324 334 337 336 336 337 338 338 337 336 333 334 336 335 333 332 331 328 325 322 321 319 318 316 312 313 316 316 320 318 319 320 320 320 321
313 312 312 313 313 313 314 313 312 310 313 312 314 318 324 331 335 336 335 337 338 337 337 336 333 332 335 335 334 333 332 329 326 322 320 319 317 316 313 311 312 309 313 318 318 318 318 319 319
315 313 313 313 313 313 314 312 313 310 312 312 309 318 325 328 331 334 335 335 337 337 337 336 334 332 333 334 335 334 333 331 327 323 320 320 320 317 314 311 310 306 313 316 317 316 316 317 318
313 312 312 313 312 312 313 313 313 311 309 309 309 320 324 327 329 332 335 335 335 336 336 335 335 334 334 334 333 333 333 332 330 324 321 323 324 320 316 313 311 307 311 313 314 315 316 316 316
311 311 311 312 312 312 312 311 312 310 308 309 310 317 322 323 325 327 330 333 334 336 336 335 334 334 333 333 333 332 333 332 332 327 323 325 326 323 317 314 312 309 311 314 316 316 316 315 315
312 312 311 311 311 313 311 308 310 308 308 310 308 310 315 320 323 325 329 332 334 335 336 335 334 335 334 333 333 333 332 332 333 331 324 326 326 326 320 316 313 311 314 314 314 315 315 314 313
311 309 308 310 310 312 309 307 307 308 307 308 308 305 306 310 320 324 325 329 332 333 335 335 334 335 334 334 333 333 333 333 334 333 328 326 328 327 325 318 315 313 313 314 314 313 313 312 312
309 307 310 310 309 312 311 309 309 311 310 310 306 305 304 305 307 316 323 325 328 331 332 334 334 334 335 334 333 332 332 332 334 334 333 330 328 329 327 323 318 314 313 314 314 313 312 309 308
310 311 311 310 312 312 312 310 309 308 309 308 307 306 305 305 306 310 313 318 323 326 329 331 334 335 336 334 334 333 333 332 334 335 335 334 331 329 328 328 321 316 315 314 314 313 309 308 306
309 311 312 311 312 313 311 310 309 308 307 306 305 304 305 305 309 310 311 312 315 321 325 328 330 334 335 334 334 334 333 333 334 336 335 335 334 332 329 328 326 319 317 317 315 312 308 302 301
311 312 311 310 312 312 311 310 308 308 308 307 306 305 304 304 305 307 311 312 311 314 318 324 327 331 334 334 334 333 333 333 333 334 335 335 334 333 332 330 327 323 318 315 314 312 303 298 297
311 311 311 311 310 310 310 307 307 308 308 308 306 305 305 304 304 304 306 309 311 311 313 318 323 328 332 334 333 333 333 333 333 333 332 333 334 333 332 330 329 326 321 317 315 312 309 299 295
312 311 311 311 310 309 308 307 308 308 308 307 306 303 303 304 304 305 306 307 309 312 313 314 320 326 330 333 333 332 332 330 330 330 331 331 332 333 333 332 329 327 324 319 315 312 309 303 296
311 311 312 312 310 312 310 309 307 307 308 307 305 305 308 307 307 308 308 311 312 311 312 312 317 324 328 331 332 332 330 329 329 328 328 329 330 332 332 331 329 326 324 321 317 312 307 305 302
310 311 309 308 306 308 308 306 305 307 308 310 308 308 305 306 305 305 310 311 311 313 312 311 313 319 325 329 330 330 329 328 327 326 326 326 327 328 329 328 328 327 325 322 321 317 314 309 304
310 307 308 309 309 308 307 308 306 307 307 309 308 305 304 303 304 305 304 306 309 311 311 311 312 316 321 325 326 328 328 327 327 326 325 324 323 324 326 326 325 325 325 322 319 315 311 307 305
309 307 308 307 311 309 308 310 309 308 307 305 306 306 306 306 306 306 306 307 309 311 310 311 312 312 315 320 324 325 326 326 325 324 323 322 321 321 320 320 323 323 321 320 318 316 314 312 306
311 311 307 308 296 308 308 308 308 307 308 309 308 307 307 307 306 306 307 309 310 310 310 311 311 311 312 312 314 316 318 319 321 321 320 318 317 316 316 315 314 314 313 314 313 313 312 310 309
309 308 312 309 307 307 308 308 309 310 309 310 309 309 308 307 306 305 306 308 309 309 309 309 309 309 310 310 311 312 312 313 314 314 315 315 315 315 314 314 313 313 312 310 311 310 311 311 308
311 311 310 309 308 307 307 308 305 308 310 309 310 310 308 307 306 305 305 309 309 309 310 309 309 310 310 310 310 310 311 311 311 312 313 313 314 314 314 313 313 313 312 309 309 309 309 309 308
309 310 310 311 310 307 310 311 306 308 306 307 308 308 307 306 305 303 305 306 307 308 308 308 310 309 310 310 310 310 309 309 310 310 311 311 312 312 313 312 312 312 311 309 307 307 307 307 307

GFSSGP_925_thetae_081.txt.gz
Theta_e
314 314 318 320 319 313 316 317 318 319 320 317 317 317 319 325 322 319 332 331 328 329 331 334 335 332 329 331 331 332 333 334 335 335 336 336 336 334 332 331 329 329 329 330 330 329 330 330 328
313 318 321 311 316 315 314 314 318 317 316 318 319 320 326 332 332 330 332 332 330 332 333 335 337 333 328 328 329 330 333 333 334 335 336 336 336 333 332 330 328 328 329 329 329 330 331 329 328
317 318 316 315 311 314 314 314 315 315 314 316 319 320 325 332 329 331 332 331 332 333 332 335 336 330 325 328 327 329 331 332 333 334 334 336 334 332 331 329 328 328 329 329 329 330 330 329 328
318 314 310 312 315 314 313 315 315 315 315 316 319 325 324 330 331 331 332 331 332 332 332 334 335 330 325 325 326 327 331 331 332 333 333 334 332 331 330 328 327 328 328 328 329 330 329 328 327
315 310 314 316 316 314 315 314 312 316 315 317 318 323 332 331 335 334 331 331 331 332 332 334 334 331 326 324 324 326 328 329 331 332 331 332 332 331 329 327 326 327 327 327 329 328 328 328 327
312 309 315 315 315 313 316 314 313 314 313 315 321 329 332 331 337 333 331 331 331 331 332 333 334 332 326 324 324 326 326 325 327 330 330 332 331 329 327 326 326 326 327 326 328 328 327 325 326
314 311 314 316 314 314 314 311 312 313 314 316 318 325 323 331 336 333 332 333 332 330 333 333 334 333 328 326 326 326 325 323 322 324 327 329 328 325 324 325 325 325 326 326 328 327 326 325 325
311 312 316 316 313 315 311 311 310 314 315 311 318 323 328 331 335 334 334 336 335 332 332 333 334 334 331 328 328 328 326 324 322 323 322 324 322 321 321 322 323 324 326 325 326 326 322 322 322
309 312 314 315 313 315 311 314 311 311 313 314 314 318 318 336 335 336 336 336 335 335 335 334 334 335 333 330 328 329 328 325 323 322 322 321 319 317 318 320 322 323 323 325 324 322 320 320 319
310 311 313 312 312 313 312 313 312 314 314 315 314 318 322 335 335 335 337 337 337 337 336 335 334 335 335 333 331 331 329 326 324 322 321 321 319 315 315 318 319 321 322 324 320 320 320 319 319
311 312 311 312 312 312 313 313 311 311 313 311 313 317 324 331 334 334 335 337 337 338 337 336 335 334 335 334 333 331 330 328 325 322 321 320 318 315 314 316 317 318 318 318 319 320 320 320 320
314 313 310 312 312 312 312 312 312 309 311 310 309 315 324 328 332 333 333 335 336 337 337 336 335 334 335 335 334 333 332 329 326 323 321 320 318 316 313 313 313 313 315 316 318 318 318 319 320
312 310 311 312 312 312 312 312 311 310 308 308 307 319 324 328 333 334 335 334 335 336 336 336 335 334 333 334 334 334 333 331 329 325 322 320 319 317 314 312 312 310 314 315 316 315 316 317 317
309 309 310 311 311 311 311 310 311 309 307 308 310 317 321 324 330 331 333 334 335 336 336 336 336 334 332 333 333 334 334 332 331 328 324 321 320 320 316 313 312 309 314 315 315 315 315 316 317
310 311 310 310 311 311 311 308 309 308 306 309 307 308 317 320 325 327 333 334 335 335 336 336 336 334 333 333 332 332 331 330 331 331 327 323 321 323 319 316 313 309 313 315 314 315 315 315 315
309 307 307 307 310 311 308 306 307 308 308 308 306 304 305 312 320 324 327 329 332 334 334 335 335 335 334 334 333 332 331 331 330 331 329 325 324 325 324 318 315 311 312 314 315 315 314 314 314
307 305 309 309 308 312 310 309 308 309 307 308 307 304 303 303 306 318 323 325 326 330 332 333 335 335 335 334 333 332 331 331 331 330 331 329 325 326 326 325 319 314 311 314 314 314 313 312 312
310 309 309 309 310 311 311 310 308 307 308 307 305 304 304 303 304 308 312 318 323 324 329 331 334 335 335 334 334 333 332 332 330 330 330 331 330 326 327 326 323 316 312 313 313 313 311 312 310
306 310 310 310 311 312 310 309 308 307 306 305 305 304 303 304 306 308 310 310 313 320 324 327 330 333 334 334 334 334 333 333 332 331 329 332 332 330 327 327 325 320 314 314 313 312 311 306 306
310 310 311 309 311 311 310 309 307 306 307 307 306 304 303 302 302 304 307 308 309 310 314 322 325 329 331 332 333 333 332 332 332 332 331 333 332 331 330 327 327 324 318 313 312 312 307 304 304
309 309 309 309 309 308 308 305 304 305 305 306 305 304 303 303 303 302 304 306 307 309 310 312 318 323 327 330 332 332 332 332 332 332 332 332 332 332 331 328 326 326 324 317 314 314 311 304 302
311 308 309 310 308 307 307 305 306 306 305 305 304 302 302 303 303 303 304 307 308 308 308 309 312 318 324 328 331 332 332 331 331 331 331 331 332 331 333 330 328 326 323 321 320 316 313 308 301
310 309 310 309 308 310 309 308 306 305 307 307 304 305 304 303 303 303 304 307 309 310 311 309 309 313 320 327 330 331 331 331 331 331 331 331 332 331 330 330 329 327 326 324 322 317 311 308 306
308 308 306 306 304 307 306 305 303 304 307 308 305 303 303 303 304 304 308 309 310 310 311 311 310 312 319 324 328 331 331 330 330 330 330 329 330 330 330 330 330 328 327 323 323 321 316 310 308
308 306 307 307 308 307 305 306 305 306 306 306 306 305 305 304 304 304 304 306 309 310 310 311 311 312 317 324 327 329 330 330 330 330 329 328 327 327 328 328 329 326 326 325 323 320 317 314 309
307 307 308 306 308 307 307 309 307 307 306 306 306 306 305 304 303 304 304 306 308 310 310 310 310 311 311 315 321 324 326 327 328 327 327 326 326 326 325 325 326 326 326 324 321 318 317 314 310
310 308 305 306 295 307 306 307 307 305 309 307 307 306 306 305 304 304 305 306 307 308 309 309 309 309 310 311 312 315 319 322 323 323 324 323 323 322 321 320 320 321 321 322 320 318 316 313 311
309 307 311 307 305 305 306 307 306 307 309 308 307 307 306 305 305 304 305 307 308 309 309 309 310 309 310 309 310 311 311 311 312 313 314 315 316 317 316 316 315 315 315 315 316 314 313 312 312
309 310 308 308 307 306 305 307 303 306 308 308 307 306 306 305 304 303 304 306 308 309 309 308 308 308 309 309 309 309 310 310 310 310 310 311 311 312 312 313 313 313 313 312 311 309 310 310 310
309 308 308 309 309 306 308 308 305 306 306 306 308 308 307 304 302 301 304 305 306 306 306 306 306 306 306 306 307 308 309 309 309 309 309 309 309 310 310 311 311 312 311 311 309 308 308 308 308

GFSSGP_925_thetae_084.txt.gz
Theta_e
314 315 318 318 319 312 316 318 317 319 318 316 319 320 324 325 327 319 331 331 328 331 331 337 336 327 328 330 328 332 333 334 336 337 337 336 334 333 331 330 330 330 330 330 331 329 328 328 329
313 317 319 310 314 315 313 313 319 317 317 319 319 321 325 329 331 329 331 330 326 329 334 334 335 327 327 330 330 331 333 335 334 336 336 336 333 331 330 329 329 330 330 330 330 330 329 327 327
316 317 315 313 309 313 313 313 315 315 315 315 319 320 324 329 329 330 331 329 328 331 334 335 334 325 328 328 327 330 332 333 333 336 336 334 331 330 329 328 329 330 329 329 329 328 328 327 326
318 313 309 311 314 313 313 313 314 314 314 315 320 324 323 329 330 330 331 329 331 331 333 336 333 326 326 323 325 327 328 333 334 334 336 333 330 329 328 328 329 328 328 328 328 329 328 327 327
314 309 314 315 315 313 312 314 311 315 315 317 318 322 331 330 332 331 331 331 332 332 332 335 333 327 324 323 323 321 324 329 332 332 333 332 330 328 327 327 328 327 327 328 327 327 328 327 326
311 309 314 314 314 313 315 313 313 313 313 315 321 328 331 329 334 332 331 331 332 331 332 335 333 327 323 323 324 325 325 327 330 330 331 331 330 328 327 326 327 326 326 328 330 328 326 325 325
312 311 314 314 314 315 315 311 312 312 313 315 319 327 322 328 335 332 331 331 331 332 333 334 334 330 326 324 325 325 325 324 326 328 330 329 329 327 326 326 326 325 326 327 328 326 325 325 325
309 310 315 315 312 315 311 312 311 312 313 311 317 319 322 330 335 332 331 331 331 332 333 333 334 332 328 326 326 325 324 323 324 324 329 328 326 324 322 323 325 325 325 325 326 325 324 324 324
309 312 314 314 312 314 309 313 310 310 312 312 312 316 318 333 334 333 333 333 332 331 332 333 334 334 330 327 328 326 325 324 324 324 324 324 321 320 321 321 323 325 324 324 325 325 322 322 321
311 311 313 310 309 312 309 312 311 313 313 314 314 315 321 333 333 333 334 334 334 333 333 333 334 334 333 330 329 329 328 325 324 323 323 322 318 316 318 319 322 322 324 323 325 319 320 319 317
310 311 311 312 311 310 311 312 310 311 313 311 312 314 324 331 332 333 335 335 335 334 334 335 334 335 334 332 330 330 329 326 324 323 322 322 319 316 316 317 320 321 323 323 319 319 319 319 319
313 311 309 311 311 311 311 309 311 309 311 309 307 314 323 328 330 332 334 335 335 335 339 337 335 334 334 334 332 331 330 328 325 323 322 321 319 316 314 315 316 318 318 317 319 319 319 319 320
312 310 310 311 311 310 311 312 311 309 307 307 307 317 322 329 331 332 333 334 335 335 338 339 337 336 337 335 334 332 331 330 328 325 323 321 320 318 314 314 314 315 315 316 317 318 318 318 319
309 308 310 310 310 310 310 309 310 308 306 307 310 313 320 324 329 331 333 334 333 335 336 336 338 338 338 338 337 335 334 332 331 328 325 323 321 319 317 314 313 313 314 316 316 316 315 316 317
307 310 309 309 310 310 310 307 308 307 305 308 306 306 313 319 325 330 333 334 335 334 335 336 336 336 336 337 337 336 336 331 331 331 328 325 322 320 319 316 314 312 313 315 315 315 315 316 316
308 305 307 306 309 310 307 305 306 306 307 307 305 303 304 307 319 325 331 332 334 334 334 335 335 335 335 334 335 335 333 333 329 329 329 328 324 321 322 320 316 314 312 314 315 314 314 315 315
305 305 307 307 308 310 308 307 307 308 306 308 306 304 302 302 304 314 322 326 329 332 334 334 335 335 335 334 333 332 332 331 330 329 329 330 328 324 322 324 323 317 313 312 315 314 314 314 314
307 307 307 306 309 310 310 309 307 306 307 306 304 303 302 302 302 307 309 315 321 324 327 330 332 334 335 335 333 333 333 332 331 330 329 329 329 328 324 323 324 320 315 312 313 314 313 313 313
305 307 308 308 309 311 309 308 307 306 306 305 304 303 303 302 304 306 307 308 309 314 322 324 328 331 333 333 333 333 333 333 332 331 330 329 329 329 328 324 324 324 319 317 313 313 312 312 310
308 309 309 309 310 310 308 308 306 305 306 306 306 304 302 301 301 303 304 305 307 309 311 319 323 327 330 332 333 332 332 332 332 332 331 331 329 329 328 327 325 325 321 317 314 313 312 309 309
308 308 308 309 307 306 305 305 303 304 304 303 304 303 301 301 299 300 303 305 305 305 307 309 315 321 326 330 332 332 332 332 332 332 331 331 330 329 329 330 328 326 323 320 319 315 312 310 308
308 306 308 308 308 308 305 304 305 305 304 303 301 301 302 301 302 302 303 305 307 308 307 306 307 312 319 325 330 331 331 330 330 331 330 330 330 329 329 330 329 326 325 321 320 319 314 310 306
309 307 308 307 306 308 308 306 305 302 307 306 303 301 301 302 303 303 304 305 307 309 310 310 309 308 311 319 326 330 330 330 330 330 330 330 330 329 331 329 329 328 326 326 323 318 314 312 309
306 305 304 304 302 306 305 304 303 304 306 307 303 304 304 303 303 303 306 307 308 308 309 310 311 312 313 318 323 327 329 329 330 330 330 330 330 330 330 330 329 329 327 326 323 322 318 315 311
306 306 307 307 306 306 304 305 303 305 306 305 306 305 303 302 303 303 302 304 307 308 309 309 309 310 313 319 324 327 329 329 329 329 330 330 330 329 330 330 330 328 327 325 323 320 319 318 313
306 306 307 305 306 306 306 307 305 305 305 304 305 306 304 303 302 302 303 305 306 307 307 308 308 308 309 310 316 322 325 326 327 328 328 327 327 327 327 327 327 326 326 325 323 321 320 319 316
309 307 304 305 293 304 305 305 305 305 306 306 306 305 305 304 303 302 303 305 306 307 306 306 307 307 308 308 309 309 311 315 318 320 321 321 321 321 321 321 320 321 321 322 321 320 318 317 315
307 305 309 305 304 305 305 306 304 309 308 307 306 306 306 304 302 301 302 304 306 306 307 307 306 305 306 307 307 308 308 308 309 309 309 310 311 311 312 313 314 315 316 316 317 317 318 316 314
308 308 306 306 306 305 304 305 302 307 306 306 306 306 304 303 301 300 302 304 305 306 306 306 306 306 306 306 306 306 306 307 307 307 307 307 307 308 309 309 310 311 311 312 312 312 313 312 312
307 307 307 308 307 304 306 306 304 306 305 305 306 305 303 302 302 301 302 302 302 302 302 302 302 302 302 303 304 305 305 306 306 305 305 305 306 306 306 307 307 308 309 310 310 310 309 308 308

GFSSGP_925_thetae_087.txt.gz
Theta_e
314 315 319 318 323 316 317 318 317 318 319 316 323 327 329 326 329 322 330 330 331 331 337 338 334 332 330 328 333 333 334 335 337 337 336 333 332 330 330 331 330 330 331 330 328 328 329 329 329
314 317 318 313 319 317 316 312 318 318 318 320 318 322 325 326 331 329 331 330 330 331 337 337 329 327 329 325 329 332 332 334 337 337 336 332 330 330 330 330 329 330 330 331 329 327 327 327 327
315 317 316 315 311 317 315 312 316 315 318 315 321 321 324 329 329 330 330 329 330 331 338 336 328 327 324 327 327 325 332 332 336 336 334 331 329 329 329 330 328 329 330 328 328 327 327 327 327
317 313 311 316 316 313 313 312 313 315 313 314 320 324 323 328 330 330 330 328 329 334 335 334 328 326 325 325 324 327 332 331 334 335 334 331 329 328 329 330 327 327 328 327 328 328 327 326 325
314 311 316 315 314 312 310 313 312 314 314 317 317 322 330 329 331 330 329 327 330 333 336 336 328 324 324 323 323 326 331 331 332 334 333 330 328 328 328 328 326 326 328 327 328 328 326 325 325
313 311 316 317 314 312 314 312 312 313 313 315 321 327 330 329 330 331 329 328 330 332 334 335 329 325 324 324 325 326 326 328 331 332 331 329 327 327 327 328 326 326 328 328 328 326 324 325 324
313 314 315 313 313 316 316 310 312 312 313 315 320 326 322 327 333 331 330 330 332 332 333 334 331 327 324 323 323 323 323 325 329 330 329 328 327 326 325 326 325 325 326 327 328 324 324 324 323
310 312 314 312 313 315 311 312 310 312 313 313 317 318 321 329 334 331 331 331 332 332 333 334 333 329 325 324 325 325 324 325 326 329 327 324 326 324 324 325 325 325 325 325 326 326 325 324 323
308 314 315 315 311 313 308 313 308 309 311 311 316 315 318 331 333 332 331 332 333 333 333 335 334 331 327 325 326 326 324 324 324 326 327 325 322 321 321 323 324 324 324 324 324 326 324 324 323
312 313 314 311 310 311 309 312 311 312 312 313 313 313 322 332 332 332 331 331 332 334 335 337 337 333 330 327 328 327 326 324 324 323 324 323 319 318 318 321 323 323 323 323 324 322 321 321 320
310 313 310 310 310 309 310 311 309 311 313 311 313 313 325 330 331 332 331 331 332 332 334 337 337 337 332 330 328 329 327 325 324 324 323 322 318 316 317 319 322 322 322 322 322 319 319 318 317
313 310 309 311 310 310 310 308 310 309 312 308 308 313 326 329 331 331 332 332 332 332 332 335 337 337 336 333 330 329 329 327 325 324 323 322 320 316 315 316 317 320 317 318 318 319 319 319 319
311 310 310 309 308 308 309 311 311 309 307 305 307 317 326 330 331 331 332 333 334 334 333 334 336 334 334 334 333 331 330 329 327 325 323 322 321 318 315 315 314 316 316 316 317 318 318 318 319
309 308 309 309 309 309 310 308 309 308 305 306 309 311 319 327 329 330 332 333 334 335 334 335 335 336 335 333 333 334 332 331 329 327 325 323 322 320 318 315 314 314 314 315 316 316 317 317 318
306 309 309 309 309 309 309 308 309 306 304 306 306 306 311 319 326 330 332 332 334 334 335 334 336 337 334 333 332 331 332 331 330 330 328 326 324 322 320 318 315 314 313 314 315 315 315 315 316
306 305 309 306 308 309 307 308 305 305 307 307 305 304 304 306 318 326 330 332 333 334 334 334 334 336 335 334 332 332 331 330 333 331 330 329 327 323 321 320 319 316 314 313 314 314 315 315 315
304 307 307 306 307 309 307 307 306 307 306 307 305 304 303 302 303 308 318 326 331 333 333 333 334 334 336 335 332 332 331 330 332 331 329 329 327 327 323 322 322 320 316 314 313 314 314 314 314
308 305 306 305 308 309 309 309 306 306 306 306 305 304 303 303 304 306 307 309 318 326 330 332 333 333 334 335 335 332 330 330 329 332 329 328 328 327 327 324 323 322 318 315 313 313 314 314 314
304 304 306 307 309 310 309 308 307 306 306 305 305 304 303 303 303 304 305 305 307 308 319 324 329 331 332 333 335 330 331 330 330 331 331 330 329 328 328 327 324 322 323 322 316 314 314 313 313
306 307 308 308 308 309 308 309 307 306 306 305 304 303 302 301 300 301 303 304 304 306 308 316 322 326 328 331 332 332 331 331 331 331 332 331 330 329 328 328 327 325 323 321 319 315 313 312 311
307 306 307 308 306 304 303 305 303 304 303 302 300 301 302 302 303 302 304 305 307 304 305 307 312 318 323 327 330 331 331 332 331 330 329 329 331 330 329 328 327 327 325 323 322 320 314 311 311
307 305 306 307 307 306 304 304 305 303 305 303 301 301 302 303 303 302 303 305 307 308 307 305 306 310 318 324 328 330 330 330 330 331 330 329 329 330 328 329 328 328 327 324 325 322 318 313 308
306 304 306 306 306 307 307 306 305 301 307 304 303 304 304 303 303 303 303 305 306 308 309 311 310 307 308 317 325 328 330 330 330 330 330 330 329 328 328 328 329 328 327 328 326 323 319 316 312
304 304 303 302 302 306 305 304 303 303 306 305 306 305 304 303 303 302 304 305 306 307 308 309 310 314 315 314 319 326 327 328 329 329 329 329 329 329 328 328 328 327 325 325 326 324 320 318 315
305 305 307 309 307 307 303 305 304 304 304 305 307 306 304 302 302 302 302 303 304 305 306 308 308 308 311 319 322 323 324 325 326 326 326 327 327 327 327 328 328 326 325 324 324 323 321 320 316
305 306 309 307 307 306 305 308 305 304 303 304 305 305 303 302 301 301 301 302 303 304 305 305 306 307 307 308 309 314 319 321 321 321 322 322 322 322 322 323 323 324 323 324 324 322 321 320 318
308 307 303 305 292 304 306 305 304 305 306 305 306 304 303 302 301 301 302 303 303 304 304 304 305 305 305 306 306 307 308 308 308 308 309 309 310 311 313 315 316 318 319 319 320 320 319 319 318
306 304 308 304 303 304 304 305 306 308 307 306 306 305 303 302 302 301 301 302 302 302 302 303 303 303 303 305 305 305 306 306 306 306 307 307 307 307 308 308 309 310 311 312 315 316 316 316 316
307 307 305 305 305 304 303 305 300 309 307 306 305 304 303 301 302 301 301 301 301 301 302 301 302 302 302 302 303 303 303 304 304 304 304 304 305 305 306 306 306 307 308 308 309 309 311 312 311
307 306 306 307 306 302 305 305 303 306 305 305 305 303 302 302 301 299 300 300 300 300 301 301 302 303 302 302 302 302 302 303 302 302 301 301 302 303 303 304 304 305 305 305 306 307 307 307 308

GFSSGP_925_thetae_090.txt.gz
Theta_e
315 315 318 322 327 324 324 325 326 328 328 325 331 331 330 331 328 330 333 334 335 335 339 337 335 333 333 334 333 333 334 338 338 336 334 332 331 332 331 330 330 330 329 330 330 330 329 330 330
314 316 321 324 325 321 321 322 328 326 323 326 325 326 326 329 334 335 334 333 334 337 338 337 331 329 329 332 333 333 336 337 337 335 332 331 330 331 331 329 329 332 331 328 328 328 328 328 328
315 316 323 324 324 321 320 322 326 322 323 324 325 326 327 330 333 334 333 333 334 337 340 337 326 327 328 329 331 331 335 337 336 333 331 330 330 331 330 329 329 331 330 328 328 328 327 327 328
318 320 319 323 324 319 319 320 321 324 319 319 325 326 329 331 333 333 332 333 334 338 340 332 326 328 327 327 329 330 332 336 335 333 331 330 329 330 329 326 328 328 328 328 327 328 328 327 325
316 321 324 323 321 318 316 318 322 323 321 322 323 325 330 332 332 332 332 332 333 337 338 336 327 327 324 323 325 329 330 333 334 333 331 329 329 330 328 327 327 328 326 329 329 326 327 325 325
321 321 323 324 320 318 319 318 320 320 319 322 323 325 330 333 332 333 332 332 334 337 339 336 327 325 325 325 322 327 328 333 334 332 330 328 328 329 329 327 326 328 327 328 327 325 325 324 324
322 323 323 323 319 320 320 318 320 319 320 321 324 324 329 334 332 333 331 333 335 337 340 337 333 329 326 325 324 325 327 330 331 331 327 326 325 326 327 325 325 327 328 330 324 324 324 323 323
319 322 321 320 319 318 319 317 316 318 318 318 324 320 326 333 333 333 332 333 334 336 338 338 336 332 331 328 325 325 326 328 330 329 324 324 324 323 325 325 324 325 325 325 326 324 324 323 322
314 322 322 321 318 318 316 318 314 314 317 319 323 320 326 335 334 333 333 335 335 336 337 338 336 334 332 331 328 326 325 325 326 327 324 323 327 325 325 325 323 324 324 324 324 326 324 323 322
320 321 322 319 318 318 316 318 317 317 317 317 319 318 329 335 335 333 333 334 335 335 336 336 336 335 333 331 330 330 329 330 329 329 327 327 325 324 324 325 324 323 323 323 323 324 323 323 323
317 320 317 315 314 315 317 316 315 317 318 318 318 319 329 335 335 333 333 333 334 334 334 334 335 335 334 332 332 331 330 330 329 329 327 325 324 322 323 324 324 323 322 323 323 321 321 321 321
317 313 314 313 313 313 316 314 315 316 317 314 315 317 329 335 335 333 333 333 333 334 334 334 334 333 334 334 331 332 330 329 328 328 326 324 323 323 323 323 323 323 321 322 322 321 320 319 318
315 313 313 312 311 313 312 314 315 315 314 311 311 317 326 332 333 333 334 333 333 333 333 333 334 333 333 333 333 331 332 329 328 327 325 324 323 323 322 322 322 322 321 321 320 320 319 318 319
312 313 313 312 312 312 314 312 312 312 310 310 312 316 322 329 332 334 334 334 334 335 335 334 334 334 335 332 332 333 332 331 329 327 326 324 323 322 322 322 321 321 320 319 319 319 319 319 318
311 313 312 312 312 313 312 313 313 311 308 310 312 314 316 324 331 333 333 334 334 335 336 336 335 334 333 332 332 331 332 333 331 328 327 325 324 323 321 321 321 320 318 315 316 315 316 317 317
311 313 315 310 312 311 311 316 309 310 310 311 311 312 312 314 323 329 332 333 334 335 335 336 334 334 334 333 333 332 331 331 331 330 328 327 326 325 323 322 320 318 316 315 314 314 314 315 315
312 313 312 309 310 312 311 314 309 310 312 312 313 312 311 311 310 312 322 329 332 333 334 335 335 334 335 334 334 332 332 332 331 330 330 328 328 328 326 325 323 320 318 316 315 314 314 314 315
314 311 311 311 311 312 313 313 312 311 310 314 314 313 313 312 311 309 308 309 320 328 332 333 334 334 334 333 333 332 332 331 331 331 330 329 327 328 325 323 323 324 322 320 318 315 314 314 315
312 310 311 309 311 312 313 313 313 313 312 314 314 313 311 311 308 306 305 305 307 313 325 330 332 334 334 331 332 332 331 331 331 331 331 332 328 326 325 323 322 323 321 321 320 317 315 314 312
309 311 311 311 310 312 312 314 314 312 310 309 309 309 309 310 310 308 308 307 305 307 311 319 326 330 333 332 331 331 331 331 331 331 331 331 330 327 325 324 323 322 321 321 320 319 314 313 314
310 310 311 312 309 308 309 312 310 308 307 308 307 307 308 309 310 310 309 309 310 307 305 310 317 324 328 331 331 330 331 331 330 330 330 330 330 330 327 326 324 323 321 322 321 321 317 315 312
311 309 310 311 312 311 309 310 312 308 310 309 311 311 311 311 310 309 310 309 309 310 309 304 308 316 322 326 328 328 328 329 329 329 329 330 330 329 329 329 328 327 326 324 323 322 321 316 313
310 309 310 310 312 312 312 311 312 307 311 312 312 311 311 310 310 310 308 308 307 308 311 313 310 308 314 321 325 327 327 328 328 328 328 328 329 328 328 328 328 328 327 327 325 323 320 318 315
307 309 309 309 311 313 311 312 311 309 311 312 311 310 310 309 309 308 307 307 307 308 308 309 312 316 318 317 321 324 325 326 327 327 328 328 328 329 328 329 329 328 328 327 326 325 322 320 317
309 312 313 313 314 312 306 309 312 307 308 313 312 311 309 309 310 309 308 307 306 306 307 307 307 308 312 318 321 321 321 322 323 324 324 324 324 324 325 325 325 325 326 325 324 323 322 320 318
311 311 314 318 313 312 306 311 311 307 307 311 310 309 308 309 309 308 307 306 306 305 306 306 306 306 306 307 308 310 315 316 318 319 319 319 319 319 319 319 319 320 321 321 321 322 321 320 318
310 310 308 309 303 313 311 310 308 308 309 310 309 309 309 309 309 308 306 305 305 304 303 304 304 304 305 305 306 306 306 306 306 307 307 307 307 307 307 308 309 310 311 313 315 318 318 318 318
309 308 311 310 318 316 309 310 312 311 312 311 310 310 309 308 308 307 305 304 303 302 301 301 301 302 302 303 303 303 303 303 303 303 304 304 304 305 305 305 306 306 307 308 310 311 312 313 314
308 309 308 310 311 321 313 310 310 312 313 312 311 310 309 309 308 306 304 302 301 301 301 300 300 300 301 301 301 302 302 302 302 301 301 301 301 301 302 302 303 303 304 304 305 306 308 309 310
308 310 310 312 312 308 311 313 306 311 312 312 310 308 308 308 306 305 303 302 301 301 300 299 298 299 300 301 301 301 301 301 300 300 300 300 300 300 300 299 300 300 301 301 301 302 303 304 305

GFSSGP_925_thetae_093.txt.gz
Theta_e
318 319 320 324 328 325 324 326 329 331 330 330 331 331 328 328 329 342 336 337 337 338 338 335 334 334 333 333 333 335 336 337 336 335 333 333 332 331 330 330 329 330 329 331 331 331 330 330 329
319 318 322 326 327 322 321 324 327 327 327 331 329 326 326 331 335 336 336 336 336 339 335 336 334 330 333 334 333 334 337 337 336 333 332 332 332 330 330 330 330 330 329 329 329 329 328 329 329
318 318 325 325 326 321 321 321 326 326 327 329 327 326 326 330 334 336 336 336 336 336 336 336 329 328 333 333 331 337 337 336 334 332 331 331 332 330 329 331 331 329 328 328 328 328 328 328 327
320 323 324 325 324 321 321 322 325 326 324 324 324 326 329 331 334 335 334 334 335 338 336 329 327 324 327 331 331 336 336 335 333 328 330 330 332 328 327 328 328 328 329 327 329 328 327 325 325
319 324 325 325 323 320 319 322 324 325 322 323 323 325 331 332 334 334 334 333 336 339 336 333 328 327 327 328 331 333 335 334 333 330 328 329 330 327 328 329 329 326 328 329 328 327 326 325 324
323 324 325 326 322 320 320 322 323 322 321 322 322 323 331 333 333 334 333 333 336 338 336 334 330 327 325 326 331 330 333 334 333 330 326 326 329 328 327 326 328 328 326 327 326 325 324 324 323
323 326 325 325 322 321 321 321 321 320 320 321 323 324 330 333 334 334 333 332 336 338 337 334 333 329 326 325 326 328 332 334 332 330 327 325 327 328 326 325 328 330 328 324 325 324 325 323 323
322 325 325 324 322 320 321 321 320 320 320 321 324 321 327 333 334 333 333 333 336 338 338 336 334 332 332 329 326 326 328 332 331 328 325 323 322 326 325 323 326 326 325 325 324 324 323 322 322
319 324 325 323 321 320 320 320 318 317 319 321 323 322 328 334 334 333 333 334 336 336 337 337 335 333 332 332 327 326 327 329 330 327 323 326 326 326 326 326 324 325 324 324 324 324 323 322 322
320 323 323 322 320 319 320 319 318 317 318 319 322 324 332 334 334 334 334 335 336 336 337 337 336 335 333 331 329 331 331 330 330 330 327 329 327 325 326 325 323 324 323 323 323 324 323 323 324
320 323 322 320 318 319 320 319 318 318 318 319 319 322 333 334 334 334 334 335 336 336 337 336 337 336 334 332 332 332 331 331 331 331 330 328 326 323 324 325 323 323 322 323 322 322 323 323 322
319 316 318 316 315 317 319 318 318 318 318 317 319 321 330 333 332 333 333 334 335 336 336 335 336 336 336 334 333 333 332 331 331 331 330 328 326 326 325 325 325 324 322 323 323 322 322 322 322
319 316 316 315 314 316 316 317 317 317 317 315 315 320 327 330 331 330 331 332 334 335 335 335 335 335 335 335 334 334 333 332 331 330 330 328 326 326 325 325 325 324 322 322 322 321 321 321 321
317 316 316 315 315 314 316 316 315 316 315 315 314 318 323 327 329 330 330 331 333 334 335 335 335 334 334 334 333 333 333 333 332 330 330 328 327 326 325 325 324 323 323 322 321 321 321 321 321
316 316 316 315 315 315 314 315 315 314 312 313 314 316 319 324 327 330 331 331 332 333 334 335 335 335 333 333 333 332 331 333 332 331 330 328 327 326 325 325 324 324 322 321 320 320 319 320 320
315 316 317 314 314 314 314 318 317 313 313 313 314 315 316 319 324 328 330 331 331 332 334 336 336 336 334 333 333 332 332 331 331 331 331 329 328 326 324 323 323 323 321 321 320 319 317 316 317
315 316 316 313 313 314 314 316 313 312 314 313 313 313 314 314 316 322 327 330 331 332 333 335 336 335 334 333 333 333 332 332 331 331 330 331 329 327 325 324 323 322 321 320 318 316 317 317 317
316 316 314 315 312 313 314 315 314 313 313 315 315 315 315 314 314 313 313 318 327 330 332 333 335 336 335 333 332 333 332 332 332 331 330 330 330 329 327 325 323 323 321 321 320 319 317 316 316
316 314 314 313 312 313 314 314 314 314 314 314 315 316 315 314 313 310 309 310 311 316 328 331 333 335 335 332 333 332 332 332 332 332 331 331 330 330 328 326 325 325 322 321 322 321 319 317 316
314 313 313 313 312 314 314 314 314 314 314 314 313 313 313 312 312 311 310 309 309 310 314 324 330 332 334 333 332 332 332 332 332 331 331 331 331 331 329 327 326 325 323 322 321 321 319 317 316
312 313 313 313 313 312 312 313 314 311 310 310 310 310 311 312 312 312 312 313 313 310 309 312 320 327 331 333 331 331 332 331 331 331 331 330 330 330 330 329 327 325 324 323 322 320 320 317 316
312 311 312 313 314 312 312 311 314 312 312 312 313 313 313 313 312 313 313 312 313 314 311 307 313 319 325 330 331 330 329 329 329 328 328 328 327 328 329 330 329 329 327 326 326 323 321 319 316
312 311 312 313 313 313 312 311 312 310 312 314 314 314 314 314 313 312 311 311 311 314 317 312 308 315 320 324 327 328 327 327 326 327 328 328 327 327 327 328 328 328 328 327 327 325 323 321 318
310 312 312 313 312 311 311 312 312 312 312 314 314 314 313 312 311 310 310 311 311 312 313 316 319 317 315 320 324 325 324 324 325 325 325 327 327 327 329 328 328 327 327 327 326 325 323 322 320
312 311 312 312 314 312 309 313 312 310 311 314 314 313 312 312 312 312 311 310 310 310 310 311 313 317 320 319 320 321 322 322 321 321 322 322 322 322 322 321 322 323 323 323 323 322 322 321 321
312 311 315 321 316 314 308 312 312 309 310 314 313 312 312 312 312 311 310 309 309 309 309 309 309 309 310 311 312 314 317 317 315 313 313 314 313 313 311 311 312 314 315 315 317 317 318 318 319
312 311 311 311 308 315 312 311 310 310 311 313 313 312 312 312 312 311 309 309 307 307 307 307 306 306 307 307 307 307 307 307 307 307 307 306 306 305 305 306 307 307 308 309 310 312 313 313 313
311 310 310 311 321 318 312 312 312 311 311 312 312 312 313 312 311 310 308 307 306 305 304 304 304 304 304 303 303 303 303 303 302 302 302 302 302 302 302 302 302 302 303 304 305 306 307 309 310
309 310 310 310 313 327 317 311 311 313 312 313 313 313 312 312 311 309 307 306 305 304 304 303 302 302 302 301 301 301 301 301 301 300 300 300 300 301 301 301 301 301 300 300 300 301 302 303 304
311 311 311 312 314 311 315 315 309 312 312 314 313 313 312 312 310 308 306 305 305 304 303 302 301 300 300 300 299 298 298 298 298 298 297 297 297 297 297 297 297 297 297 297 297 298 298 299 300

GFSSGP_925_thetae_096.txt.gz
Theta_e
317 319 320 324 330 327 326 328 328 331 329 328 327 327 328 334 339 348 337 338 337 338 335 330 329 328 331 333 335 336 337 335 334 333 334 332 331 332 331 329 329 330 330 331 331 331 330 329 328
315 319 320 327 327 325 322 325 328 327 328 327 326 325 326 337 336 336 337 338 338 336 333 333 332 332 333 333 335 337 337 335 333 332 333 331 330 330 331 330 328 330 330 329 328 329 329 329 326
317 319 323 327 327 322 321 322 325 326 327 326 325 324 328 334 335 336 337 338 336 335 335 328 326 332 334 333 335 337 336 333 333 332 332 333 330 330 331 328 328 329 328 328 328 329 328 327 326
318 322 322 324 325 319 320 322 324 324 323 324 323 327 329 333 335 336 337 336 336 336 333 326 326 332 333 330 336 337 335 332 329 330 332 332 328 328 329 328 327 327 329 329 328 328 326 326 325
318 323 326 325 322 318 319 322 322 323 321 322 322 325 332 334 335 335 335 338 337 335 328 327 326 327 330 329 336 336 334 332 329 326 330 330 327 327 328 328 325 327 328 327 327 326 324 323 323
321 324 326 326 322 319 319 321 322 320 320 321 320 327 334 334 334 334 334 339 337 336 333 329 327 325 327 331 331 334 334 333 330 325 326 330 327 326 327 327 327 326 325 325 325 324 324 322 322
322 327 326 325 321 320 320 320 321 318 319 320 321 325 331 333 334 334 334 337 338 335 334 330 327 325 324 328 328 332 333 333 330 326 322 325 327 324 326 329 329 327 324 325 324 324 322 322 322
320 324 326 324 321 321 319 319 320 319 319 322 323 322 331 333 334 333 333 336 337 335 334 333 330 326 324 324 326 330 332 330 329 323 320 320 325 324 322 326 327 326 325 324 324 323 322 322 321
320 323 325 324 323 320 319 319 318 317 318 321 321 326 330 334 334 333 333 335 338 336 335 334 332 332 331 326 324 325 329 330 328 323 322 327 323 325 327 324 325 325 323 324 323 323 322 322 321
319 323 325 322 321 319 318 317 316 316 317 320 321 329 333 334 334 333 334 335 338 337 336 335 334 332 333 331 325 325 325 326 328 326 328 328 326 325 327 322 322 323 322 323 322 321 323 324 324
318 323 322 318 316 318 318 318 316 316 317 316 319 329 332 334 334 333 334 335 336 336 337 337 335 334 332 331 329 331 328 330 331 331 329 328 326 325 324 321 319 319 321 322 318 322 321 322 321
319 318 318 317 315 318 318 317 317 317 316 315 317 326 332 332 333 333 334 335 336 336 337 335 337 335 334 331 331 332 331 331 331 331 330 327 326 322 325 325 325 324 322 323 321 322 322 320 318
317 315 315 314 315 315 316 317 317 317 313 312 315 324 329 330 332 333 333 334 335 336 337 336 334 336 336 334 333 333 332 331 331 331 330 328 326 325 325 325 325 324 322 322 322 321 320 318 320
316 316 314 314 314 314 316 315 314 315 312 312 315 318 324 327 329 330 331 332 334 335 336 335 335 334 335 335 335 334 333 332 331 330 330 328 327 326 325 325 324 324 323 322 321 320 320 320 320
315 315 314 314 314 314 314 314 313 311 312 312 312 313 317 323 328 329 330 331 332 334 335 336 335 335 333 333 333 332 333 333 331 331 330 329 327 326 325 325 324 324 323 322 321 320 320 320 320
315 316 316 314 314 313 314 318 314 310 310 311 310 311 315 319 324 328 330 330 331 332 333 335 335 335 333 332 333 332 332 332 332 331 330 329 328 327 326 325 325 324 323 322 321 320 319 317 316
314 315 316 313 313 313 313 316 310 312 312 310 310 310 312 313 319 325 328 330 331 331 332 334 335 335 335 332 332 332 332 331 330 331 330 330 329 328 326 326 324 323 323 322 321 320 319 318 318
315 314 315 313 311 313 312 314 312 310 312 313 310 311 310 311 312 317 324 327 330 331 332 333 336 336 335 332 332 331 331 331 331 331 330 330 329 329 328 326 325 324 323 324 323 320 319 317 317
315 314 313 313 312 313 313 314 312 310 310 311 312 310 311 311 310 310 311 311 315 324 330 332 334 336 335 333 331 332 331 331 331 332 331 331 330 330 330 328 327 324 324 324 322 321 321 320 319
313 313 313 312 312 313 313 312 312 311 311 311 311 312 311 310 309 310 310 309 309 310 315 325 331 334 336 334 331 331 331 331 331 331 330 330 330 331 331 330 328 327 326 325 324 322 321 320 320
312 313 312 314 312 312 312 311 313 312 311 309 309 309 310 312 310 310 312 313 312 310 309 313 323 330 333 335 332 331 331 331 330 330 328 328 328 328 329 330 330 328 327 326 326 324 322 320 319
312 311 313 313 311 310 310 306 311 308 308 309 310 308 308 310 311 311 312 312 313 314 312 309 313 320 328 333 333 329 328 329 328 328 327 327 327 326 327 328 329 330 328 326 327 327 325 322 319
312 311 312 314 313 312 311 309 310 308 309 310 311 311 311 310 310 310 311 312 313 316 316 307 310 316 322 327 332 330 327 327 326 326 326 326 326 326 326 327 327 327 327 327 327 326 324 323 321
310 311 312 312 310 310 309 307 309 308 309 311 312 311 311 310 309 309 311 311 312 313 317 317 311 315 319 323 326 327 325 324 324 324 323 325 325 323 323 326 326 325 324 324 324 323 323 322 322
311 310 311 310 311 311 306 310 309 309 312 311 311 310 309 309 308 308 309 310 310 310 312 318 320 319 320 322 323 323 322 321 321 320 320 320 319 319 319 318 317 316 317 317 317 317 318 318 318
310 309 314 313 315 311 306 309 309 308 310 310 310 309 309 309 309 308 309 309 309 309 309 310 310 312 315 317 318 318 317 317 314 313 311 311 310 308 307 307 307 308 308 308 309 310 311 312 312
310 310 310 309 304 313 308 308 309 308 310 311 310 309 309 309 309 308 308 308 307 307 307 307 307 307 307 307 308 308 308 307 306 306 305 304 303 303 303 303 303 303 303 303 303 303 304 305 307
309 308 308 310 308 311 311 310 308 309 309 311 310 309 310 309 308 307 307 306 305 304 304 304 304 304 304 304 303 303 303 302 302 302 302 301 301 301 300 299 299 299 298 298 298 298 299 299 299
308 309 309 308 313 314 313 308 308 309 309 311 310 310 310 308 307 306 306 305 305 304 303 303 302 302 302 302 301 302 301 300 299 298 297 297 297 297 296 296 296 296 296 296 296 296 295 295 296
308 310 309 310 310 308 314 311 309 309 308 310 310 310 309 308 307 304 305 305 304 303 302 301 301 301 300 299 298 298 297 297 296 296 296 296 295 295 295 295 294 294 294 294 294 294 294 294 294

GFSSGP_925_thetae_099.txt.gz
Theta_e
318 318 319 321 324 319 323 327 327 327 327 323 323 330 336 335 341 342 337 336 337 332 331 328 334 332 331 334 336 336 335 334 334 333 333 333 333 331 330 330 329 330 330 330 330 330 329 328 327
316 318 319 318 320 322 317 323 326 327 325 322 321 324 330 339 335 335 338 338 337 332 327 327 329 331 332 335 336 336 332 330 333 332 331 331 332 332 331 330 329 328 329 329 329 330 330 328 330
317 318 317 321 320 318 320 322 325 325 323 324 322 324 329 337 334 336 338 337 332 330 325 327 330 332 332 334 337 334 330 328 331 334 330 332 333 331 331 329 328 329 329 329 328 328 328 326 327
317 318 315 318 323 316 317 321 322 322 321 320 322 328 328 333 335 337 337 335 335 334 324 325 329 332 331 336 336 333 330 331 332 333 331 331 330 328 328 324 329 330 329 329 328 327 326 325 324
317 315 320 321 317 317 318 320 320 320 320 321 320 330 332 335 336 337 335 335 335 327 322 326 330 332 332 336 335 333 331 327 327 330 331 328 328 328 327 324 326 327 328 328 327 324 323 324 324
315 316 322 322 317 317 318 318 317 317 318 317 327 331 333 335 336 336 335 335 334 323 321 322 326 327 327 335 335 333 331 327 319 324 328 326 327 327 328 326 325 325 326 326 324 323 321 322 321
317 320 321 321 316 318 319 318 315 315 317 319 318 331 330 333 335 337 337 335 334 324 322 322 323 325 326 331 333 332 332 327 322 319 324 324 323 326 329 329 326 324 324 324 323 322 321 321 321
315 318 322 321 317 318 317 318 315 315 319 319 320 330 332 331 334 335 338 336 334 330 324 323 321 322 326 327 331 332 330 326 320 318 319 321 320 322 327 327 326 325 323 323 322 322 321 320 320
316 319 322 323 318 318 315 317 315 315 317 318 322 326 328 334 333 334 336 335 334 333 330 326 323 322 322 323 327 330 327 325 321 319 321 320 321 322 322 324 325 324 323 323 323 322 320 320 320
315 319 322 318 315 316 315 315 314 315 317 318 330 331 332 333 332 332 334 335 335 334 333 332 328 329 324 323 323 325 326 325 323 324 328 326 325 325 324 320 322 323 322 322 320 322 322 323 323
315 318 319 316 315 315 314 314 314 312 316 317 332 332 331 332 332 331 333 336 335 335 334 333 332 332 331 326 324 324 324 326 329 326 328 326 325 324 324 318 317 318 319 319 318 320 320 322 321
317 317 316 315 314 315 315 313 313 314 314 313 328 330 331 330 330 331 333 334 336 336 335 334 333 332 332 331 327 329 328 330 331 330 328 326 325 321 324 324 324 323 321 322 318 319 319 319 317
316 315 314 313 313 313 313 314 314 312 311 313 325 330 329 330 331 332 334 334 336 336 336 335 334 333 332 331 331 331 330 331 331 330 330 327 324 323 325 325 325 324 322 322 321 320 319 316 318
313 314 313 313 313 313 313 313 314 312 309 314 325 327 327 329 331 332 333 334 335 336 336 336 336 335 333 332 332 332 332 331 331 330 330 328 326 325 325 324 324 324 323 322 320 320 319 318 319
312 313 313 313 313 314 311 313 313 311 309 311 313 318 325 326 330 330 332 332 335 335 336 336 334 335 335 335 333 333 332 331 330 330 330 329 327 326 325 325 324 324 323 322 321 320 320 319 319
314 312 313 313 313 312 313 315 312 307 308 309 308 308 314 319 326 329 330 331 333 335 335 335 335 334 333 333 333 333 333 333 331 330 329 329 329 327 325 325 325 324 324 323 322 321 320 320 318
312 312 313 312 312 311 312 313 311 307 308 307 306 307 310 313 319 325 329 329 330 333 335 335 335 335 334 332 331 331 331 331 331 330 330 329 328 328 327 325 325 324 324 323 323 322 320 320 319
311 312 313 311 311 312 311 312 309 309 309 308 306 305 309 310 314 321 327 329 330 331 332 334 335 335 334 332 331 331 331 330 330 330 330 329 330 329 328 327 327 326 325 324 322 322 321 320 319
311 311 312 310 310 311 309 310 309 308 308 309 306 306 306 306 309 312 315 319 327 330 331 332 334 334 334 333 331 330 331 330 330 329 329 330 330 330 330 329 329 327 326 325 324 323 323 322 321
310 311 311 311 311 310 310 311 309 308 308 308 308 306 307 306 307 308 309 310 312 317 322 330 334 335 335 335 332 330 330 330 330 330 331 331 330 330 330 330 330 328 327 326 325 324 323 322 322
310 310 309 310 311 310 310 308 311 310 308 308 308 306 306 305 307 308 310 311 310 309 311 316 325 334 335 335 333 329 329 330 330 330 330 329 328 328 328 329 330 330 328 327 327 326 323 322 323
310 310 310 311 308 307 306 305 306 307 308 307 307 305 306 308 307 308 311 312 313 313 311 309 314 322 333 335 332 330 329 328 328 328 328 327 327 326 326 326 327 328 328 328 327 327 326 323 321
310 310 311 310 310 308 309 305 304 306 308 307 306 306 304 306 308 308 309 312 314 316 313 308 309 316 324 334 331 330 328 327 326 325 325 325 326 326 326 327 327 326 326 326 323 324 324 323 320
309 309 308 308 307 308 306 304 304 306 307 307 307 307 308 306 306 307 310 311 312 317 314 308 314 318 324 332 330 328 326 325 325 324 324 324 324 322 321 321 322 321 321 320 320 319 318 318 318
309 307 308 307 309 308 305 306 305 307 306 307 308 308 307 306 305 306 307 309 310 315 319 315 316 319 322 325 327 326 323 321 321 321 320 319 318 318 316 314 313 312 312 311 310 310 311 310 311
307 307 308 309 311 308 305 307 307 307 308 308 309 308 306 306 305 305 307 308 308 310 315 318 318 319 321 322 322 321 320 318 318 318 317 314 310 306 304 304 304 304 304 304 304 304 304 305 306
308 309 308 307 297 308 306 305 306 307 310 309 308 308 307 306 305 305 306 307 307 307 308 309 311 313 316 317 318 317 315 313 310 308 305 303 302 302 301 300 299 298 298 297 297 297 297 297 296
308 306 309 308 309 308 307 306 305 308 306 309 309 308 307 306 305 304 304 304 305 305 306 306 307 307 308 309 308 306 304 303 302 302 301 299 297 297 296 296 296 295 295 295 295 295 294 294 294
307 307 307 309 308 307 306 306 303 306 306 310 309 308 308 307 306 304 303 304 303 304 304 303 303 303 303 303 302 301 300 299 298 297 296 296 296 295 295 295 294 294 294 294 294 293 293 293 293
308 308 307 309 308 308 309 308 307 306 305 309 308 308 307 306 305 302 303 303 302 302 302 302 301 301 301 300 299 297 296 296 296 296 295 295 294 294 294 294 294 293 293 293 293 293 292 292 292

GFSSGP_925_thetae_102.txt.gz
Theta_e
315 315 318 319 321 318 322 329 326 326 325 321 325 332 336 335 339 337 335 336 330 331 334 331 333 333 334 336 336 332 332 331 333 334 334 332 331 332 332 331 329 330 330 330 332 332 332 330 330
313 316 318 315 320 322 318 322 327 325 321 327 325 329 334 339 334 337 337 333 327 329 331 332 332 332 335 336 334 328 331 331 330 332 334 332 332 330 330 329 329 329 329 330 330 331 332 329 329
313 316 315 318 317 318 321 323 324 324 320 322 323 325 333 337 334 336 337 334 331 329 327 327 330 332 334 336 333 326 329 331 331 333 334 333 332 330 330 330 329 329 328 329 329 330 330 327 325
316 315 313 317 320 315 319 322 320 320 319 321 325 331 331 333 335 337 337 333 328 329 330 330 331 331 334 335 332 322 325 330 330 332 333 331 329 326 328 329 328 328 328 327 328 328 325 324 323
315 312 318 319 316 318 321 320 319 320 320 319 325 330 334 333 337 337 334 332 327 327 327 331 331 332 335 334 331 325 323 329 330 331 330 328 328 324 324 327 328 328 328 327 326 323 323 324 322
314 313 319 321 316 318 319 318 316 318 319 326 329 331 333 334 336 335 335 334 325 324 328 328 328 333 335 335 332 328 324 328 329 327 326 326 326 328 326 324 324 325 327 327 321 320 322 321 320
315 317 320 319 314 317 317 315 316 316 316 318 326 331 331 332 334 335 335 332 322 322 323 325 326 331 335 335 332 330 325 319 322 321 321 321 327 328 328 326 324 324 326 323 321 319 320 320 318
313 316 320 320 315 317 317 315 312 315 319 317 326 332 335 332 335 335 334 331 322 324 324 323 324 326 333 332 331 331 326 319 317 318 319 319 326 328 329 325 324 323 323 323 321 319 318 318 320
314 317 320 321 315 317 315 315 314 314 317 322 324 327 330 333 335 335 333 332 328 325 324 323 323 325 326 331 332 330 325 320 318 317 318 317 318 324 326 325 324 323 322 323 321 320 319 319 317
313 317 320 318 314 315 314 314 313 317 318 328 330 328 332 330 335 334 333 332 331 327 324 323 322 322 324 326 330 327 325 321 321 324 323 322 323 323 319 323 321 320 320 320 321 320 321 321 321
314 316 319 317 314 314 313 313 312 314 316 325 332 332 331 330 332 334 333 333 333 330 329 324 324 322 322 322 324 325 325 323 322 327 326 325 324 325 322 317 318 318 318 316 319 320 319 320 320
315 314 314 315 314 314 313 311 312 313 312 317 330 331 331 330 328 332 333 333 333 333 333 330 329 330 326 322 322 323 323 327 326 327 327 325 325 323 324 320 321 320 320 319 317 317 318 318 316
314 314 313 313 314 314 311 312 312 313 311 322 328 330 330 330 329 331 334 335 334 333 333 333 332 332 331 329 325 326 326 328 329 329 328 326 324 321 324 324 324 323 322 321 320 319 318 317 316
313 314 313 312 312 312 312 312 313 311 311 327 329 329 329 329 330 330 332 335 335 334 334 333 332 332 331 331 329 330 330 330 330 330 329 328 325 324 324 324 324 324 323 322 320 320 319 319 318
312 313 312 312 313 313 310 313 312 309 313 327 328 328 328 328 330 330 332 332 335 335 335 334 333 333 332 332 332 331 331 331 330 330 330 329 327 325 325 324 324 324 323 323 322 321 320 320 319
312 310 312 312 312 311 311 312 311 307 312 322 322 322 326 326 329 331 332 333 333 335 335 335 335 334 333 332 332 332 331 331 330 329 329 329 329 326 325 325 325 324 324 323 323 322 321 320 320
311 312 312 312 310 311 312 312 311 306 308 309 308 311 317 322 322 330 332 332 332 334 335 335 335 335 335 334 334 333 333 331 331 330 329 328 328 328 327 326 325 324 324 324 323 323 322 321 320
311 311 311 311 310 310 310 310 309 306 305 306 304 304 307 312 315 324 329 330 331 333 334 335 335 334 334 334 334 331 330 330 330 330 330 328 328 327 328 328 327 326 326 325 324 322 322 322 322
310 310 312 310 309 310 309 310 308 307 307 305 304 304 305 308 312 317 324 326 328 331 334 335 335 334 334 333 331 330 330 330 329 329 329 329 329 329 329 328 329 328 327 326 325 324 324 324 323
310 310 310 310 310 310 309 309 308 307 306 305 305 304 306 305 305 307 312 319 326 329 331 333 334 334 334 333 332 330 329 329 329 329 328 329 329 330 330 330 330 330 329 327 327 325 324 323 323
308 309 308 311 309 309 308 308 310 309 306 307 305 304 305 304 305 305 307 310 313 317 323 328 332 333 334 334 333 330 329 328 329 329 329 329 330 329 328 328 328 329 329 327 327 326 324 323 322
309 308 308 309 307 308 306 308 303 307 307 306 306 304 304 303 305 306 308 310 310 310 311 313 321 332 333 333 333 331 327 327 327 327 328 328 327 327 326 326 327 327 328 327 326 325 324 322 321
310 309 310 309 307 307 308 304 303 305 307 306 305 303 303 304 305 306 309 311 312 312 312 310 310 320 333 334 333 330 329 327 326 326 326 326 327 326 326 326 326 326 325 325 323 323 321 320 318
308 308 306 306 306 308 305 305 304 305 306 308 306 304 303 304 306 307 309 311 312 315 315 310 308 312 324 333 333 329 330 327 326 325 325 326 325 323 321 320 320 319 319 318 317 316 315 314 313
309 308 308 307 309 310 305 303 306 304 304 305 306 305 305 305 306 306 307 309 312 316 313 309 314 319 325 331 333 328 328 325 324 324 323 321 317 316 316 316 315 314 311 309 308 308 308 308 308
306 308 308 307 308 306 305 307 307 304 304 304 304 305 305 305 306 306 307 308 310 315 315 316 319 322 327 331 328 326 325 322 321 319 318 316 316 313 306 305 304 303 303 302 301 300 299 298 297
308 308 306 307 298 308 305 304 304 306 306 308 307 307 306 304 305 305 306 307 308 312 315 316 319 320 322 323 322 322 321 319 318 315 315 311 304 302 301 299 298 296 296 296 295 295 294 294 294
308 306 310 307 309 309 307 306 304 306 305 307 307 307 305 304 304 303 304 305 306 308 310 312 315 316 317 319 319 318 317 316 313 308 303 301 298 297 296 295 295 294 294 294 294 293 293 293 292
307 307 306 307 308 310 306 306 302 305 306 307 307 306 306 305 304 303 302 304 304 305 306 307 309 310 311 313 312 311 307 304 302 300 297 296 295 295 294 294 294 294 293 293 293 292 292 292 292
307 307 306 309 308 306 308 307 305 303 304 305 307 307 305 305 303 301 301 302 302 303 303 304 304 305 304 304 303 302 300 298 297 296 295 294 294 294 294 293 293 293 292 292 292 292 292 291 291

GFSSGP_925_thetae_105.txt.gz
Theta_e
316 315 317 319 320 317 322 327 325 326 324 323 328 329 332 334 335 334 335 335 332 335 337 334 333 335 336 334 330 331 332 333 334 333 332 332 332 332 331 330 329 330 331 331 332 332 332 330 329
314 316 318 313 319 322 318 319 325 324 327 328 325 331 333 338 335 335 335 334 332 333 331 331 332 334 336 332 329 331 330 331 334 335 332 331 331 329 330 330 329 329 329 330 330 331 330 328 328
314 317 314 316 315 319 319 323 324 322 326 320 327 328 333 337 335 335 336 332 331 332 332 331 332 335 335 330 326 330 328 331 334 336 332 330 329 330 329 329 328 329 328 329 330 331 328 326 328
316 314 311 318 320 315 319 322 321 318 318 324 327 333 331 333 335 337 333 329 330 329 331 332 334 335 335 330 322 330 331 331 333 333 333 330 329 330 329 327 328 326 327 328 330 329 324 324 325
314 311 317 319 316 316 317 321 316 320 318 322 325 333 334 333 336 336 334 333 327 329 331 332 332 335 334 328 320 327 330 328 330 330 329 328 325 327 328 329 329 328 327 328 328 326 323 322 323
313 312 318 321 316 318 320 319 317 318 321 327 330 332 333 336 336 336 334 330 326 327 332 332 332 335 333 329 323 319 328 327 329 329 327 327 326 324 326 326 326 328 327 324 322 322 321 320 322
314 316 319 319 315 319 319 314 316 318 323 323 327 333 331 332 334 334 332 328 325 325 331 331 335 335 334 330 326 319 324 328 325 324 325 327 327 327 325 324 324 327 324 319 319 320 320 318 321
312 314 319 315 314 318 315 314 313 316 317 321 327 333 336 332 334 334 333 326 324 327 331 331 334 335 334 331 329 323 319 320 319 319 320 327 328 327 325 323 322 323 322 320 318 317 317 319 321
312 316 319 320 314 316 313 315 313 314 317 321 323 328 330 334 334 334 330 327 326 326 328 328 331 333 332 331 329 325 320 318 319 318 318 325 327 327 325 324 323 322 322 321 319 318 318 317 319
312 316 319 317 312 315 313 313 312 318 323 329 329 327 331 333 332 331 329 329 328 326 325 325 326 329 330 329 328 325 320 318 318 318 318 318 320 322 324 323 320 319 319 320 320 319 321 320 320
313 315 317 318 312 313 313 311 311 315 319 325 328 330 329 333 332 331 330 328 326 324 324 324 323 324 326 327 328 324 322 320 323 324 323 323 324 322 319 318 318 316 317 316 318 319 318 318 319
314 313 313 315 314 312 312 310 313 313 314 318 327 330 329 333 333 332 331 330 327 325 323 323 322 324 324 326 326 326 324 321 325 326 325 324 323 323 322 318 320 318 320 318 317 317 317 317 317
314 313 312 311 312 312 311 312 312 312 311 324 328 330 329 331 333 333 333 332 330 327 326 323 323 323 323 324 324 325 324 325 324 326 326 325 324 321 324 324 323 323 321 320 320 319 318 318 317
317 317 311 311 311 311 312 312 312 311 315 327 329 329 329 328 330 332 333 333 332 331 331 329 328 329 329 325 323 323 324 327 328 328 328 327 325 323 324 324 324 324 323 322 321 320 320 320 319
319 321 316 311 312 312 310 313 311 309 321 328 329 328 327 328 328 330 333 333 333 333 332 332 332 331 331 330 329 327 329 329 329 329 329 329 327 325 325 324 324 324 323 323 322 322 321 321 321
319 312 313 311 311 311 311 313 311 307 324 328 327 324 326 325 328 328 331 333 334 334 333 333 333 332 331 331 331 330 330 330 330 329 329 329 328 326 325 325 325 324 324 323 323 323 322 322 322
314 317 310 311 309 310 311 311 310 305 318 326 324 323 325 326 326 329 330 332 334 335 334 334 333 332 332 332 331 331 331 331 330 329 328 328 327 327 327 326 325 325 324 324 324 323 322 322 321
317 311 311 311 310 310 310 310 309 305 310 318 318 317 320 324 327 328 330 330 332 333 334 334 334 334 333 332 331 331 332 331 331 330 329 328 327 326 326 327 327 326 325 325 324 324 323 322 323
310 311 312 310 309 310 308 310 309 305 305 305 306 305 308 315 322 326 330 331 330 331 332 334 334 334 334 334 333 332 331 331 331 331 330 330 328 327 327 328 328 328 327 327 326 325 324 324 323
309 311 311 310 309 309 308 309 308 305 304 305 304 303 302 305 306 312 319 324 327 329 330 332 334 334 334 334 334 334 332 328 328 328 329 329 328 328 328 329 329 329 330 329 327 326 324 323 323
309 311 309 312 309 308 308 309 309 308 305 306 304 303 302 304 305 304 308 315 322 325 328 331 333 334 334 333 333 332 330 328 327 328 328 328 328 328 329 328 328 328 329 329 327 326 324 321 322
312 307 309 309 308 310 307 310 305 306 307 305 304 303 303 302 303 304 305 308 314 321 326 330 332 333 333 333 333 331 330 329 327 326 327 328 329 329 328 327 326 327 327 327 326 324 323 322 320
312 307 309 309 308 307 307 306 305 304 306 306 304 304 303 302 302 303 305 309 310 310 313 319 325 331 332 332 333 332 331 328 325 326 328 329 328 327 326 326 326 326 325 325 323 321 320 318 316
307 308 306 306 306 308 307 307 306 304 305 306 308 304 303 302 302 304 307 310 311 312 312 311 310 317 330 332 332 331 331 327 326 326 327 326 326 325 325 324 323 322 321 318 316 315 314 312 311
308 309 311 311 310 311 304 304 310 304 302 303 304 305 303 301 304 305 306 309 310 312 313 313 311 309 316 331 331 332 330 328 327 326 325 324 322 319 316 315 315 315 314 311 308 307 306 304 303
308 309 310 310 310 308 304 306 306 303 302 301 301 301 301 302 305 305 307 309 310 312 315 312 309 309 311 325 331 332 330 328 325 324 323 321 317 314 312 312 309 306 304 303 301 299 296 295 295
307 307 307 307 298 307 305 303 303 304 303 304 305 303 303 304 305 306 306 307 308 313 314 312 313 316 319 325 328 330 327 325 323 322 320 316 313 311 306 303 301 298 296 296 295 294 294 293 293
308 306 309 307 308 308 306 305 305 304 306 304 305 305 304 304 304 304 304 306 307 312 314 314 316 318 321 323 326 324 322 323 320 318 315 313 308 303 300 296 295 295 294 294 293 293 292 292 292
306 307 306 308 309 309 306 305 302 304 306 305 305 305 305 304 304 303 303 305 306 309 311 313 313 314 315 316 317 318 318 318 316 315 310 304 300 296 295 294 294 294 293 293 293 292 292 292 291
307 307 308 311 309 304 307 306 303 302 302 303 305 306 304 304 303 301 302 303 303 305 307 309 309 310 312 313 315 315 315 314 311 305 300 297 296 294 294 293 293 293 293 292 292 292 291 291 290

GFSSGP_925_thetae_111.txt.gz
Theta_e
315 316 317 318 320 323 325 327 323 324 324 326 326 328 333 333 335 336 334 334 333 335 335 336 335 332 333 331 331 329 330 332 333 334 333 332 333 332 332 331 331 331 331 330 332 332 330 329 329
316 317 317 315 321 323 324 319 326 323 331 328 326 330 333 339 333 334 334 335 335 335 334 334 335 331 330 330 330 332 332 331 332 332 331 331 330 331 330 330 330 330 329 329 331 330 329 328 325
315 317 317 317 318 322 322 318 323 327 327 321 331 329 332 337 332 333 334 336 336 333 333 334 335 328 330 330 331 333 333 330 331 330 329 330 329 329 329 329 329 329 328 328 330 330 328 326 324
316 315 313 319 321 318 316 320 322 329 320 323 328 335 330 331 333 334 335 336 334 333 332 335 335 326 329 327 330 335 333 330 330 329 329 329 328 327 328 327 328 327 327 327 329 329 324 322 321
315 313 318 318 318 314 311 319 324 322 320 325 325 334 334 334 334 334 335 334 331 331 331 335 334 326 328 329 328 333 332 330 326 329 328 328 327 327 327 327 327 327 327 327 326 323 322 322 321
316 313 318 319 317 315 318 318 318 317 320 327 331 333 333 333 335 334 334 332 331 330 332 335 334 326 327 330 329 329 329 329 327 325 328 326 328 328 327 327 327 328 327 326 322 320 320 321 320
317 317 318 316 316 321 321 314 316 319 324 327 329 335 332 332 333 333 332 332 330 330 333 335 333 326 323 329 328 323 327 327 327 328 326 323 324 323 324 325 325 325 325 323 319 318 320 320 320
314 316 317 315 316 322 316 314 314 320 322 324 326 332 337 332 333 332 332 331 331 330 332 334 333 328 322 326 325 320 321 322 324 328 327 326 323 322 322 322 320 318 317 318 317 317 319 320 320
312 318 319 319 315 318 312 315 312 314 326 322 324 327 329 332 333 332 332 329 333 331 331 334 334 330 325 322 325 322 319 319 322 326 327 326 323 321 321 321 321 319 318 317 318 319 318 319 320
315 319 319 316 311 314 312 313 313 319 323 325 327 328 331 333 332 330 327 327 328 331 333 334 334 332 328 324 321 321 320 319 318 324 326 326 324 322 321 320 319 318 319 318 318 319 319 319 318
313 319 313 312 313 311 312 312 312 318 323 322 326 329 331 331 332 329 327 327 327 329 331 333 332 333 330 328 322 319 320 318 317 319 322 322 321 320 320 318 317 316 316 317 317 317 316 316 317
317 312 313 313 310 311 312 309 313 317 317 313 321 329 330 331 330 329 326 325 326 328 330 332 334 332 330 328 326 320 319 319 319 318 319 322 320 319 317 318 318 319 319 317 317 317 317 317 318
318 313 316 315 310 310 309 311 312 313 310 319 326 330 331 331 330 329 328 324 324 326 327 326 332 333 331 325 325 322 319 320 322 322 323 323 322 322 320 321 322 321 321 320 319 320 320 320 320
319 318 319 315 314 310 311 310 311 311 320 324 328 331 331 332 331 329 328 326 323 322 325 324 323 326 328 326 325 322 322 321 323 325 325 324 323 321 323 323 323 323 322 322 322 321 321 321 322
319 321 320 319 311 311 310 311 311 309 323 326 327 328 330 330 329 330 330 328 324 321 322 324 323 321 322 323 325 324 323 322 322 324 326 325 325 323 322 323 323 323 322 322 322 322 322 322 321
324 321 325 321 311 309 311 315 312 309 323 326 326 325 327 329 330 330 331 331 329 323 321 321 322 323 323 322 323 324 324 323 325 327 328 327 327 327 324 324 324 324 324 323 323 323 322 321 321
324 329 323 324 313 312 311 314 310 310 319 323 324 324 326 326 325 330 331 332 332 330 324 322 322 321 322 323 323 323 323 324 325 328 329 328 326 326 325 326 326 325 325 324 323 323 322 323 323
326 328 321 326 314 309 310 311 310 307 317 318 323 323 324 326 326 328 332 332 333 333 331 327 325 325 324 326 328 327 326 326 328 329 328 327 326 326 325 324 325 326 325 325 324 325 325 324 323
323 326 326 312 318 311 309 309 311 308 307 312 319 323 323 324 325 326 328 330 332 333 333 332 331 331 330 329 329 329 328 328 329 330 329 327 326 327 326 324 323 324 324 325 326 326 325 324 322
317 319 320 318 308 308 308 309 309 305 306 305 311 317 322 320 318 323 327 327 328 330 332 332 333 332 332 331 331 330 330 329 330 328 327 328 328 328 327 325 325 326 327 328 328 327 325 323 321
316 313 311 311 309 307 308 311 309 306 304 303 303 307 312 318 320 315 318 325 327 327 329 331 333 333 333 332 331 330 329 330 330 328 328 328 328 328 327 328 327 328 329 328 328 326 325 323 320
321 312 313 310 313 316 309 314 310 308 307 304 305 302 304 307 308 313 313 316 322 327 328 328 330 331 333 333 332 331 330 330 330 328 327 326 325 327 327 327 327 328 328 326 326 325 324 322 320
312 307 307 310 310 308 307 310 307 305 306 305 305 303 303 304 304 305 307 313 318 322 326 328 328 329 330 331 332 332 331 331 333 331 329 326 326 327 328 328 328 327 326 325 324 323 322 320 317
310 313 314 307 307 312 311 310 309 309 305 307 306 305 305 305 302 301 303 306 309 314 319 323 325 326 328 329 330 331 331 331 331 331 328 326 326 327 328 328 327 325 324 323 322 320 317 316 315
312 316 319 319 317 315 303 308 314 308 303 305 307 307 306 304 302 301 300 302 304 306 312 315 317 321 325 327 329 330 331 331 331 332 329 326 326 327 327 326 324 323 322 320 316 315 312 308 306
314 316 314 316 313 311 303 309 308 305 308 303 301 302 301 300 301 301 301 302 304 306 310 313 315 318 321 326 328 329 329 330 330 330 328 325 325 325 325 323 321 318 317 315 312 307 303 297 295
312 317 308 307 297 307 306 305 304 302 303 303 302 302 303 302 301 300 301 302 304 306 309 312 313 313 313 317 326 326 326 328 329 329 327 325 324 323 321 318 315 315 313 308 303 299 295 293 293
311 310 315 310 307 307 307 305 309 305 305 306 305 304 303 302 302 300 301 303 304 306 309 311 311 311 311 310 309 318 324 327 327 329 326 323 323 321 317 313 312 311 304 299 295 294 293 293 292
305 311 308 310 308 309 308 308 302 306 305 306 305 303 303 303 302 301 302 304 305 307 308 310 311 312 311 311 310 309 319 324 325 327 325 323 321 318 314 310 311 303 297 294 293 293 292 292 291
305 307 309 311 308 304 307 309 304 302 304 304 303 303 301 302 302 302 302 303 305 307 308 310 311 311 311 311 311 313 317 321 322 323 323 321 318 312 312 307 301 296 294 293 293 292 292 291 291

GFSSGP_925_thetae_114.txt.gz
Theta_e
320 317 317 322 324 328 331 332 330 330 330 326 331 334 336 337 337 339 335 336 337 337 338 338 334 335 333 331 330 331 334 335 335 334 333 333 333 333 331 332 329 330 331 331 330 330 329 329 328
319 317 320 324 324 327 330 329 331 329 332 331 332 334 335 340 335 336 336 336 336 337 338 338 331 329 330 330 330 330 331 332 332 331 331 331 331 332 331 330 329 329 330 330 330 329 328 327 324
318 316 323 323 324 327 327 328 330 332 329 330 334 333 335 339 334 335 336 336 338 337 337 336 330 329 330 332 334 330 330 330 330 330 330 330 329 329 330 329 328 329 330 331 329 328 327 323 320
317 321 321 325 324 324 323 327 328 331 325 328 331 336 335 334 334 335 335 336 336 336 337 335 328 330 330 332 335 331 328 329 328 329 330 329 329 327 328 328 327 327 328 329 328 328 325 322 320
318 322 326 325 323 322 318 323 330 329 327 331 331 336 338 336 336 336 336 336 336 336 337 336 328 326 327 332 335 330 327 326 329 328 328 328 327 327 327 327 327 326 328 328 327 323 322 320 319
325 322 327 330 323 320 322 324 330 325 327 330 331 335 338 335 336 337 336 336 335 335 337 336 328 326 327 330 333 331 328 324 328 328 328 327 326 327 327 327 326 326 326 326 321 320 320 320 319
324 325 328 325 324 323 324 324 327 325 327 328 332 336 335 334 335 336 335 335 333 335 337 337 332 329 330 329 330 330 329 325 326 325 328 327 324 327 325 326 327 327 325 321 318 320 320 319 319
321 324 324 323 323 322 324 323 320 324 326 328 332 333 339 334 334 335 334 333 334 335 337 337 333 329 330 331 327 329 328 328 328 326 324 323 323 323 324 323 324 324 319 317 317 319 320 320 320
316 325 326 325 321 322 322 322 319 320 328 329 329 330 333 333 333 333 332 331 331 334 336 336 334 329 329 330 326 325 325 325 328 327 326 324 326 326 326 323 320 318 317 317 318 319 319 320 319
320 327 326 320 317 319 322 323 320 325 328 328 330 331 334 333 332 331 331 330 330 332 335 336 335 330 328 328 328 328 324 326 328 328 328 327 326 325 324 319 319 319 318 318 319 318 319 320 321
317 329 321 315 316 315 318 318 321 324 327 325 328 333 331 333 333 331 330 329 329 331 331 333 334 332 329 326 327 327 325 323 325 327 327 325 324 324 323 322 321 319 318 321 320 320 320 319 320
323 314 314 317 313 314 316 317 319 322 322 321 325 332 332 332 333 333 330 329 327 329 331 332 332 333 331 328 324 325 325 323 323 323 322 323 323 322 322 321 321 321 320 319 321 321 318 319 319
322 318 316 316 315 314 313 315 319 320 316 318 326 332 333 332 333 333 331 328 326 327 330 332 332 331 332 330 327 324 324 323 323 322 321 324 324 323 321 322 322 322 322 322 322 322 321 321 321
320 316 319 317 317 312 315 314 314 318 319 324 330 333 333 334 333 332 332 329 326 326 327 330 331 331 330 331 329 325 323 323 324 325 325 323 324 324 324 324 324 324 323 323 323 323 322 322 322
320 322 321 318 311 312 312 314 315 315 320 325 329 332 333 334 333 332 333 329 325 324 326 328 329 332 331 329 327 326 325 323 325 326 325 324 324 324 324 325 325 324 322 322 322 322 322 323 322
326 326 326 318 313 310 314 322 317 314 321 323 327 331 332 333 333 333 333 330 327 323 324 326 327 327 327 327 327 328 326 325 324 325 326 325 325 325 324 325 325 324 323 323 324 324 323 323 323
327 332 330 328 315 313 314 319 313 313 320 321 326 329 332 332 331 332 332 332 330 326 324 325 325 326 326 327 327 328 327 327 326 327 328 328 327 326 326 326 326 325 324 324 323 322 323 323 325
330 332 328 331 320 314 320 319 318 312 316 319 322 327 329 331 332 332 332 333 332 331 326 324 325 325 325 326 326 326 327 326 326 327 329 329 328 325 325 325 326 326 325 324 323 322 325 324 323
327 331 331 323 324 320 320 323 323 322 312 317 319 324 327 328 328 331 332 333 333 333 332 329 326 325 325 325 326 327 328 327 327 328 329 329 327 326 325 324 323 323 324 324 324 325 325 324 322
329 331 332 327 313 314 320 321 321 319 314 314 316 319 324 326 328 329 329 331 332 333 333 333 331 328 327 327 328 329 329 329 329 329 329 329 328 326 326 325 324 323 324 325 326 327 326 324 321
323 330 325 323 313 312 315 324 320 316 315 313 311 314 318 324 326 327 328 329 330 332 333 333 333 333 331 330 330 330 331 330 330 330 329 328 326 327 327 327 327 326 326 326 327 328 326 324 320
318 313 314 314 315 325 318 332 326 321 319 311 313 312 313 317 323 325 325 327 328 329 330 332 333 333 333 332 331 330 330 331 331 331 329 327 327 327 328 327 326 327 326 327 328 327 325 323 320
318 316 317 315 314 314 314 318 323 315 317 318 312 312 312 312 315 320 323 324 325 327 328 329 331 332 333 332 332 331 331 332 333 332 330 327 327 325 326 326 326 326 326 328 326 325 323 322 320
312 315 316 311 312 322 320 317 323 320 316 316 316 313 312 312 311 312 315 319 320 321 324 326 328 330 331 332 332 332 332 332 332 332 330 329 327 326 326 325 326 327 328 326 324 323 321 320 317
315 319 322 322 320 325 308 315 320 317 314 315 316 315 313 312 311 310 309 307 311 315 317 321 325 327 329 331 331 332 332 332 332 332 330 330 328 326 326 326 327 327 326 324 322 320 317 315 314
317 321 321 326 323 322 305 315 317 312 315 312 310 312 311 310 309 309 309 308 308 307 309 313 317 323 326 328 330 330 331 331 332 332 331 328 329 326 326 327 327 326 323 321 318 315 314 310 305
316 319 311 312 305 312 313 312 311 312 308 308 308 307 309 309 307 307 306 306 306 306 308 309 311 314 320 324 327 327 328 328 329 330 330 326 326 326 325 325 325 322 320 315 315 312 307 300 295
315 315 317 317 320 318 315 310 314 313 311 310 308 308 309 307 307 306 305 305 305 306 307 309 311 312 313 315 324 325 326 327 328 328 327 326 326 325 324 323 322 318 314 311 312 303 297 294 293
314 317 315 317 314 319 318 317 311 310 311 311 310 308 308 308 307 307 306 305 306 306 307 309 310 311 311 312 313 319 325 325 326 327 327 328 327 323 322 321 316 312 311 309 303 296 293 293 292
313 315 315 319 318 313 311 316 309 308 308 307 308 307 307 306 306 307 306 305 305 306 307 308 310 311 311 311 311 310 312 318 320 323 324 325 324 321 321 315 312 308 308 303 295 293 292 292 291

GFSSGP_925_thetae_117.txt.gz
Theta_e
322 319 320 324 328 328 333 332 332 332 332 330 333 334 336 340 340 348 337 337 338 338 339 338 335 333 331 330 332 335 336 336 335 334 334 334 335 332 330 329 331 330 331 329 329 329 329 329 327
320 319 322 325 329 331 332 331 332 331 332 331 333 333 334 343 337 337 337 337 337 338 337 336 332 330 330 329 330 331 334 334 332 331 332 331 331 331 329 328 330 330 329 329 329 328 326 325 324
320 318 325 326 329 332 330 329 331 333 331 333 335 335 335 341 336 336 336 336 336 336 337 334 329 330 331 331 330 330 330 330 331 331 330 331 331 330 329 327 329 329 329 327 328 327 326 323 318
322 323 324 327 330 326 325 329 331 332 328 331 331 335 336 336 336 336 336 335 337 336 338 330 328 330 331 334 331 329 329 330 330 329 329 329 329 328 328 326 328 328 327 327 328 327 325 319 317
323 324 328 330 330 325 322 325 330 332 329 330 331 334 339 335 336 335 336 336 334 336 337 333 329 329 331 335 331 328 328 328 329 328 329 329 328 328 327 326 326 327 327 328 327 325 320 319 318
326 325 330 332 331 324 323 324 329 330 330 331 329 332 339 336 336 335 335 335 335 337 336 334 328 327 332 335 331 327 327 328 327 326 327 327 327 327 327 326 326 326 327 325 322 321 319 319 319
327 328 330 332 333 325 324 326 329 328 329 329 329 332 338 336 336 335 335 335 334 335 336 334 330 329 329 333 332 328 325 328 328 329 326 324 325 326 326 326 326 326 323 319 320 319 319 319 319
328 327 330 330 330 327 325 327 328 327 327 328 330 333 339 336 336 336 335 334 334 334 336 334 331 330 331 331 331 329 326 327 324 327 324 326 325 324 323 325 324 320 317 317 319 319 320 319 319
322 328 331 330 329 328 325 326 324 324 329 329 331 330 335 335 336 335 334 333 333 335 336 334 330 329 330 329 329 328 328 328 326 324 322 326 326 326 327 322 318 317 317 318 318 319 319 320 319
329 330 330 327 326 324 324 325 324 325 329 329 331 333 336 334 334 333 333 332 331 333 336 335 331 329 329 328 327 328 325 329 330 328 328 326 326 326 325 320 319 317 317 319 317 318 320 322 322
324 332 328 320 320 318 323 324 324 325 328 326 329 335 334 335 335 333 332 331 330 331 335 336 333 328 328 327 328 327 326 327 329 329 328 327 325 323 324 321 321 319 320 322 322 322 322 322 323
326 319 319 318 315 316 319 323 322 324 324 323 325 333 334 334 335 333 331 330 329 329 332 335 334 331 328 327 328 327 325 325 327 328 328 326 326 325 324 323 323 322 322 322 323 323 323 323 323
328 323 315 318 317 316 316 318 322 323 323 320 326 333 335 335 335 334 332 331 329 328 330 332 334 333 331 328 326 326 326 325 324 325 326 326 325 325 324 324 324 324 324 324 324 324 324 324 324
326 323 323 318 317 314 317 319 317 320 322 321 328 333 335 335 335 335 333 331 328 327 329 330 332 332 331 330 328 326 325 325 325 325 326 326 326 326 325 326 326 326 325 325 325 325 325 325 324
322 321 321 321 314 313 314 317 317 319 321 323 327 330 333 335 335 336 334 333 328 326 328 329 331 331 330 329 330 327 325 325 326 327 328 327 326 326 326 327 327 326 325 325 324 325 325 324 323
325 323 324 321 318 314 314 328 321 319 320 322 325 328 331 333 334 335 334 334 330 325 326 327 329 330 329 328 328 329 327 325 326 327 328 327 326 326 326 327 327 326 325 325 325 325 325 324 324
330 333 329 327 317 315 318 325 321 315 319 322 324 326 330 331 333 333 334 334 329 324 324 327 329 329 329 329 328 329 327 327 326 326 328 328 327 327 327 327 327 326 326 325 324 324 322 323 325
333 334 334 333 324 320 323 325 323 317 316 319 321 324 327 330 331 332 333 334 330 326 323 325 327 327 328 327 327 328 329 328 327 327 328 329 329 327 326 326 328 327 326 324 323 322 323 324 322
333 334 335 332 322 324 327 327 326 325 318 319 318 320 324 326 327 330 332 334 333 331 326 324 325 326 327 327 327 327 328 328 327 327 328 330 330 327 325 324 326 327 325 325 325 324 324 324 323
333 334 335 331 319 324 330 330 327 326 326 322 320 318 320 324 325 328 331 333 334 333 332 328 325 325 326 326 326 326 327 328 328 328 329 330 329 327 325 325 324 325 326 326 325 324 325 325 323
333 334 334 333 326 319 323 328 326 325 325 324 321 318 317 319 323 326 329 332 334 334 334 334 330 327 326 326 326 327 329 330 330 330 330 330 329 328 327 326 325 324 324 324 324 325 326 325 322
330 319 326 318 322 331 323 335 332 330 328 325 324 322 319 317 320 324 327 329 332 334 334 334 334 333 330 328 330 330 331 331 331 331 331 330 329 328 327 326 326 326 326 326 327 326 327 325 322
322 316 317 316 317 317 321 323 326 324 325 325 325 322 322 317 317 320 324 326 329 331 333 334 334 335 334 333 332 333 332 332 332 332 332 331 329 327 326 326 327 327 327 326 325 327 326 325 323
316 316 314 313 314 322 323 323 327 326 322 321 322 323 321 318 316 317 320 325 326 329 330 331 333 334 334 334 334 333 333 333 333 333 333 333 331 328 326 326 325 326 326 325 325 327 324 323 322
315 322 326 327 324 329 313 326 324 323 323 320 320 321 321 320 316 316 315 320 324 326 328 330 330 331 332 334 334 334 334 333 333 334 334 333 331 328 327 326 325 326 325 325 327 325 323 321 319
318 324 327 331 329 326 309 320 321 316 312 315 316 314 316 318 317 316 315 314 317 321 324 326 328 329 329 332 333 333 333 333 334 334 334 332 330 328 328 326 325 326 326 327 326 323 320 316 315
318 323 319 315 311 316 318 317 316 315 314 311 314 313 312 312 313 313 312 312 312 311 314 319 321 324 326 329 331 332 333 333 333 333 333 332 331 328 326 327 326 326 326 326 323 320 315 313 311
319 317 320 320 329 325 322 317 317 317 315 314 312 314 313 312 312 311 310 309 309 310 310 310 312 315 317 324 328 330 331 331 331 331 331 331 330 327 326 326 325 325 325 323 320 315 312 309 303
316 319 318 320 321 325 325 322 314 312 311 313 313 312 311 311 310 310 310 309 308 308 308 309 310 311 312 316 323 326 328 328 328 328 328 329 328 326 325 323 324 324 323 319 313 311 308 303 296
316 318 318 322 322 320 319 320 311 311 310 310 310 310 310 310 310 309 309 309 308 308 308 308 309 311 312 314 314 320 325 325 325 325 325 326 327 326 326 322 321 321 319 313 310 308 304 297 293

GFSSGP_925_thetae_120.txt.gz
Theta_e
326 321 319 323 329 328 333 334 330 331 331 332 331 334 338 339 344 349 337 339 340 338 334 335 334 331 328 334 336 336 336 336 336 335 336 335 332 329 331 329 329 329 329 329 329 328 328 328 326
325 321 320 326 328 333 333 330 331 332 330 332 332 332 336 341 337 337 338 338 339 338 338 334 332 329 326 328 334 335 335 333 332 332 333 332 330 328 330 330 328 328 328 328 327 326 325 321 319
325 323 324 329 330 332 331 329 331 331 330 332 334 334 337 340 337 337 337 338 338 337 336 331 330 329 329 329 330 331 331 331 331 330 331 331 329 327 329 329 328 327 328 328 327 326 322 318 318
325 323 322 326 330 327 326 329 332 330 328 331 331 338 336 336 336 336 337 336 338 336 335 326 329 330 331 330 330 330 329 329 329 329 329 329 328 327 326 328 327 326 327 327 327 325 319 316 316
326 324 327 329 330 325 321 326 331 330 328 330 330 335 337 336 336 336 336 336 337 337 332 329 330 332 334 330 329 328 329 328 328 328 327 327 327 326 325 327 326 326 326 327 326 321 318 317 318
329 324 328 331 330 325 322 323 328 329 329 329 329 336 337 335 335 336 336 335 335 336 334 330 330 332 334 330 325 327 327 328 327 327 326 326 327 327 326 325 326 326 326 325 322 319 318 317 317
330 330 329 330 331 324 323 324 326 328 329 329 327 337 337 336 334 335 334 335 336 336 334 329 327 333 334 331 326 326 326 327 327 326 323 325 326 326 325 325 324 325 322 320 319 318 318 318 318
326 330 330 330 331 329 325 326 327 326 328 327 328 336 337 335 335 335 334 335 334 335 334 331 329 330 333 330 326 324 328 327 327 325 326 324 324 325 325 324 321 317 317 318 319 319 319 318 318
322 329 331 330 330 329 324 325 324 324 327 328 329 333 335 335 335 335 335 334 334 334 334 331 330 330 331 330 328 325 326 325 326 322 323 324 324 326 325 318 316 315 317 318 318 319 321 321 321
321 332 331 328 326 324 324 324 324 325 327 330 331 336 335 335 337 335 333 333 334 335 334 332 330 330 329 329 328 326 327 326 324 324 326 326 326 326 320 317 317 316 318 317 318 320 322 322 322
324 333 330 323 318 317 323 324 323 324 327 327 330 337 334 335 335 334 333 333 331 334 335 332 329 329 328 325 328 326 327 329 327 327 327 326 325 322 318 318 319 317 320 321 322 322 322 322 323
330 325 318 319 316 317 319 322 323 323 322 320 327 334 332 333 334 332 332 332 331 331 335 334 329 329 328 326 328 326 326 327 328 328 327 325 324 324 323 323 322 321 322 321 323 321 322 323 323
330 324 315 318 318 316 316 318 322 321 320 320 332 332 332 332 334 334 332 331 330 330 334 335 332 328 327 328 328 327 325 325 327 328 327 325 325 324 323 323 324 324 323 323 323 324 324 324 324
328 325 318 318 317 314 317 318 317 318 318 320 332 333 332 333 334 333 332 331 329 329 331 334 333 331 329 327 326 326 326 324 324 325 325 325 325 324 324 324 325 325 324 324 325 324 324 324 323
328 326 323 321 318 314 313 317 316 316 318 320 331 331 333 333 335 334 332 331 329 328 328 331 333 331 331 330 327 326 326 325 325 325 326 326 326 326 325 326 326 326 325 325 324 323 324 324 323
325 324 327 323 315 314 314 329 321 316 318 320 323 327 332 333 334 334 334 332 330 327 328 329 330 331 330 329 330 327 325 325 326 326 327 326 326 326 326 327 327 326 323 324 325 325 324 324 324
326 329 324 324 320 315 314 324 322 315 317 318 319 322 328 330 333 334 335 333 331 327 328 329 330 331 330 329 326 329 327 325 325 327 328 327 325 326 325 326 326 326 325 325 325 324 322 323 324
332 333 326 328 320 318 317 319 316 313 315 317 317 320 324 327 330 333 334 334 334 328 326 327 328 330 330 329 328 327 328 327 325 326 327 328 327 326 326 327 327 327 326 326 324 322 323 322 321
329 333 332 330 322 321 320 322 321 321 315 314 315 315 320 326 327 331 333 334 334 329 324 326 328 329 330 329 329 328 329 328 327 327 326 328 329 327 326 326 326 327 326 325 323 323 322 322 320
333 333 335 327 323 325 327 326 323 323 324 319 316 315 315 320 323 328 331 333 334 330 325 324 327 328 328 328 328 327 328 329 328 327 327 328 329 329 327 325 325 325 323 323 325 324 323 324 323
335 334 334 331 319 318 320 325 324 324 324 323 322 317 315 314 319 322 328 331 333 333 329 324 325 326 327 327 327 327 327 327 328 327 327 328 330 330 327 325 324 323 324 323 322 322 323 324 324
336 325 326 321 325 330 322 332 329 327 324 324 324 320 316 313 314 319 327 330 332 333 333 330 326 325 326 326 326 327 326 327 328 328 328 328 329 329 328 327 325 325 324 325 324 324 324 325 325
327 318 316 317 316 321 318 321 323 322 327 325 323 322 319 315 312 315 323 328 331 333 334 334 333 328 325 325 326 326 327 329 329 330 330 330 329 329 329 328 327 326 326 325 325 325 326 326 326
314 316 316 314 318 326 325 321 323 324 322 322 322 322 321 318 314 312 320 326 328 331 333 334 334 334 332 328 326 327 329 330 331 330 331 332 331 330 329 328 327 326 326 326 326 326 325 325 326
318 324 326 328 326 329 317 323 324 322 320 318 318 317 317 317 314 311 312 320 325 328 331 333 334 334 334 334 331 329 331 332 332 332 332 332 332 331 330 329 327 326 325 325 326 325 325 326 324
319 324 325 328 326 323 310 320 320 316 313 310 310 314 312 309 314 311 311 316 323 326 328 330 331 333 334 334 334 334 333 333 333 332 332 333 333 332 331 329 327 326 326 325 326 326 325 325 322
319 326 316 313 306 315 315 315 315 314 313 311 309 313 311 311 310 313 312 313 315 322 326 328 329 330 330 332 333 334 334 333 333 333 333 333 333 332 331 331 328 327 326 326 326 326 326 323 320
320 317 322 319 319 319 319 318 316 313 312 312 310 310 310 310 310 309 308 310 311 312 315 321 325 327 329 329 330 331 333 333 333 333 333 333 333 332 331 330 328 327 326 326 325 325 323 320 317
316 320 319 320 321 322 322 320 312 313 310 311 310 310 309 308 307 307 306 309 308 308 309 310 311 317 321 324 326 328 330 331 332 332 333 333 332 331 331 329 328 326 324 324 324 323 321 316 312
316 319 319 322 321 319 318 317 308 308 308 308 308 308 308 308 307 306 307 308 308 308 308 308 308 309 310 311 314 321 326 328 330 331 331 331 329 329 329 328 327 326 321 323 323 321 317 314 308

GFSSGP_925_thetae_123.txt.gz
Theta_e
331 325 321 320 322 320 328 331 328 329 330 330 330 333 339 338 343 346 338 338 333 335 334 333 332 334 336 335 336 336 336 335 335 334 332 330 330 330 327 327 328 328 328 328 328 328 328 324 324
332 324 320 318 322 327 328 328 329 330 329 329 330 333 338 340 336 335 339 338 336 334 334 333 329 329 334 335 335 334 333 332 332 331 331 329 330 330 328 328 327 327 328 327 326 326 325 321 323
330 325 318 323 323 327 328 328 329 328 329 331 332 333 336 339 335 336 339 338 337 336 333 329 327 327 330 333 333 331 331 331 329 329 330 329 329 330 328 326 327 328 328 327 325 324 320 322 322
327 322 317 321 325 325 325 329 328 328 327 328 332 337 334 335 335 337 338 338 336 334 329 329 329 329 328 329 329 329 329 328 329 330 329 328 326 328 327 325 327 327 327 327 325 317 317 320 322
325 319 323 325 325 323 321 328 327 327 327 329 329 337 336 335 336 336 337 337 335 329 327 329 331 330 328 328 328 328 328 327 327 328 328 327 325 327 326 325 326 327 327 325 318 316 318 320 322
325 320 324 327 326 321 319 321 327 326 326 327 334 334 334 333 335 336 337 336 335 328 327 329 333 332 329 327 327 327 326 326 326 326 327 327 325 324 326 327 326 326 326 320 318 317 317 320 321
326 329 326 326 327 321 321 322 324 325 327 328 326 338 334 333 334 336 336 336 335 331 326 329 333 332 327 323 327 326 325 326 326 324 325 325 326 325 323 325 325 324 319 318 318 317 317 320 321
321 326 330 326 328 328 323 324 324 324 328 326 327 336 335 334 334 335 335 334 335 333 326 326 334 332 328 325 326 326 326 326 325 324 324 324 325 324 323 319 318 319 319 319 318 318 318 321 322
318 325 329 328 328 326 322 324 322 323 325 327 330 332 332 334 334 335 335 335 335 333 330 325 332 332 329 325 327 327 326 326 325 324 322 322 323 322 320 316 315 316 317 318 319 321 321 322 322
325 328 327 322 317 319 323 322 322 324 327 329 335 333 333 334 335 334 334 335 334 333 331 328 329 330 330 327 324 326 326 326 321 324 325 325 326 323 316 315 315 318 318 318 321 322 322 322 322
326 332 324 320 317 315 319 322 322 321 327 328 334 335 333 334 335 334 333 334 334 334 331 330 330 330 328 328 326 326 324 322 322 326 326 326 326 321 316 316 316 317 319 321 321 321 321 322 322
328 328 323 319 315 315 317 318 322 320 321 321 333 333 333 334 334 333 332 333 334 335 333 330 329 329 328 325 325 324 326 328 324 327 326 325 325 322 321 321 319 321 321 321 322 320 321 322 322
330 329 318 317 317 314 315 317 320 320 319 325 333 331 331 334 334 333 332 332 332 334 334 330 329 329 328 323 326 323 327 329 327 328 327 323 322 324 323 322 322 321 321 322 322 323 323 323 323
327 328 320 319 318 312 315 317 316 317 322 333 332 330 330 332 332 332 332 331 330 332 334 333 329 328 328 326 328 325 325 326 327 327 325 323 324 323 323 322 323 323 323 323 324 324 324 323 322
327 328 321 320 319 314 313 318 315 315 319 332 331 330 330 331 332 332 332 329 330 329 332 335 330 328 327 327 327 326 325 323 325 325 324 325 325 323 323 323 325 325 324 324 324 324 323 323 323
326 325 330 324 318 314 313 326 323 315 315 326 329 329 331 330 332 332 332 330 329 329 330 333 333 330 328 327 326 326 325 324 324 323 324 325 326 325 324 325 326 326 325 324 323 324 324 324 323
324 328 328 325 317 313 315 325 320 315 315 316 322 328 331 331 331 333 332 331 329 328 328 331 332 332 330 330 328 325 325 325 325 324 325 325 325 325 325 326 326 326 325 323 324 325 324 324 323
328 332 325 328 321 314 313 314 316 314 313 314 314 319 328 331 331 332 334 332 330 328 327 328 330 331 331 330 329 328 326 325 325 325 326 326 325 325 325 325 326 326 325 324 325 324 322 321 323
326 329 330 323 319 317 316 315 315 315 311 311 312 312 320 328 331 332 333 333 332 329 327 328 328 328 330 329 327 328 328 326 325 324 326 326 326 325 325 325 326 326 326 325 325 323 322 322 320
328 331 330 323 318 318 319 319 317 317 315 311 311 311 311 322 323 329 331 333 332 331 326 327 327 327 329 330 329 327 327 328 326 325 325 326 326 327 326 326 326 326 326 326 325 323 323 322 322
335 333 331 325 320 320 320 324 321 320 319 319 314 312 312 312 323 324 329 331 333 332 330 326 326 326 327 328 328 328 326 327 328 327 326 326 326 328 328 327 325 325 326 323 323 323 323 322 323
335 332 334 322 326 331 322 332 323 324 323 322 322 317 314 311 315 323 328 330 332 332 333 326 324 326 327 327 327 326 326 326 327 328 327 327 327 328 329 328 326 325 325 325 322 322 322 322 323
333 323 322 323 316 321 318 323 319 319 324 324 323 321 316 311 310 316 325 328 331 332 331 328 324 325 326 327 326 326 326 326 326 327 327 327 326 327 328 329 328 326 324 324 324 324 324 323 324
315 319 321 318 322 330 321 323 322 321 320 323 320 320 319 313 310 309 321 326 328 331 332 330 326 323 324 325 326 326 326 325 325 327 327 327 327 327 328 328 329 327 326 325 325 324 324 324 325
320 328 327 329 330 331 318 320 326 319 318 318 317 315 316 315 313 311 309 321 326 329 331 332 331 328 324 324 325 325 325 325 326 326 328 328 329 328 328 329 329 329 327 327 325 325 325 325 325
323 328 329 330 327 323 311 322 320 317 317 314 312 311 310 309 311 311 311 314 323 327 330 331 332 332 331 327 325 325 325 325 326 327 328 329 330 330 329 329 330 329 328 327 326 325 326 325 324
321 326 317 312 301 315 315 314 313 313 313 311 308 310 308 309 308 310 308 311 318 324 327 330 332 332 332 332 331 328 326 326 328 329 330 330 330 330 330 330 330 330 329 328 326 325 326 326 325
322 318 323 318 316 318 316 315 316 312 313 311 310 307 307 307 308 307 307 310 311 318 323 327 329 330 332 332 333 333 332 330 329 330 331 331 331 331 331 331 331 331 330 329 327 326 326 326 325
319 322 319 317 316 318 319 317 310 313 310 310 308 307 307 306 304 304 304 307 309 310 312 319 325 327 328 329 330 331 332 333 333 332 332 332 332 332 332 332 332 331 330 329 327 326 326 325 324
316 323 318 324 321 316 316 316 310 309 306 307 306 305 304 304 303 303 304 306 307 307 307 308 310 311 314 321 326 327 328 328 330 331 332 332 332 331 331 331 331 330 329 329 326 324 324 323 322

GFSSGP_925_thetae_126.txt.gz
Theta_e
331 329 322 321 321 320 324 330 327 329 331 329 330 335 338 337 340 340 337 336 335 335 335 333 333 336 335 335 335 334 334 334 335 334 334 333 331 329 330 328 328 329 329 329 329 329 329 329 328
331 327 320 316 321 326 326 327 329 329 328 330 332 335 337 339 334 337 337 334 334 333 333 332 331 335 335 336 335 334 334 334 334 332 329 331 327 330 329 328 327 328 327 327 327 327 327 326 326
330 322 317 320 320 326 327 328 328 329 328 330 334 333 336 338 335 337 337 335 333 333 332 329 329 333 335 334 332 332 331 331 330 329 327 330 330 328 327 327 328 328 327 326 326 327 323 325 327
327 321 317 321 324 323 324 328 327 327 327 328 331 336 333 334 335 338 336 334 334 333 328 326 326 331 333 332 331 330 328 329 331 329 326 329 328 326 325 327 328 328 327 326 325 323 322 325 326
325 318 321 324 324 323 327 327 325 327 328 328 332 337 336 335 337 338 337 336 333 330 327 328 328 328 329 329 328 327 327 329 330 327 325 326 327 326 326 327 327 327 326 324 320 320 322 323 323
325 318 323 325 326 322 322 326 324 325 325 331 333 334 334 333 337 337 337 335 332 327 329 330 329 328 328 327 327 327 327 327 327 327 326 325 326 326 327 327 327 326 323 317 317 320 321 322 322
326 327 325 325 325 322 320 320 324 325 326 327 331 337 333 332 336 337 336 333 327 327 329 333 330 328 327 328 327 326 326 325 326 326 326 325 324 324 325 326 326 324 319 317 316 319 320 321 321
319 324 330 326 327 328 322 323 321 325 326 323 331 333 333 331 335 336 336 333 328 327 329 333 331 327 326 327 327 325 325 325 323 325 325 325 324 322 321 322 321 319 318 317 317 319 321 322 322
321 325 329 329 326 325 321 323 321 322 326 331 332 330 329 332 335 336 334 333 331 327 326 333 331 327 325 326 325 325 326 325 322 324 324 324 324 323 318 316 317 318 318 318 318 320 321 322 322
330 328 327 324 317 317 319 322 321 326 328 331 333 331 331 333 335 335 335 333 331 328 326 331 332 329 325 326 326 327 326 324 323 322 322 321 321 319 316 315 317 317 318 320 321 321 321 322 322
326 332 325 325 317 315 315 321 320 324 327 328 331 331 332 332 333 334 334 334 333 331 327 327 331 330 326 325 326 326 326 324 322 323 323 324 322 320 315 315 317 317 318 320 321 321 322 322 322
333 331 330 323 317 313 316 313 321 320 322 321 329 331 332 332 332 333 334 333 334 331 330 328 327 328 328 325 325 325 324 321 324 325 325 325 324 317 316 316 316 318 320 321 321 320 321 321 322
327 331 324 325 319 314 312 315 318 318 318 326 331 331 332 332 332 332 333 333 333 332 331 330 329 329 328 327 325 325 322 321 325 326 325 324 325 319 320 320 318 320 320 321 321 321 322 322 322
328 329 327 323 320 317 313 314 315 316 328 331 332 332 331 331 333 333 332 332 333 333 332 329 329 329 328 326 325 324 326 327 324 326 325 325 320 322 322 321 321 321 321 322 322 323 323 323 322
326 331 323 325 325 323 314 324 314 315 329 332 331 329 330 330 332 333 331 331 333 333 334 330 328 329 328 327 323 324 325 327 327 327 326 324 322 322 322 322 323 323 322 323 323 323 323 323 322
328 325 329 324 320 320 324 333 323 313 329 331 329 326 329 328 331 332 332 331 331 331 333 333 330 328 328 327 326 327 324 324 324 325 325 323 324 323 322 323 323 324 324 323 323 323 323 323 323
324 328 330 328 319 315 319 331 327 319 319 329 328 328 329 328 328 331 331 331 331 331 330 333 333 328 328 326 326 327 326 325 323 323 324 323 324 324 323 323 324 325 325 323 323 323 324 323 323
325 330 326 329 322 313 312 315 317 315 312 315 327 328 329 329 329 330 331 331 331 331 330 328 333 330 328 327 327 326 326 325 324 323 323 323 324 325 325 324 325 326 325 323 322 324 324 323 323
323 326 326 323 321 320 320 321 317 314 311 311 313 321 327 329 329 330 331 331 329 329 329 328 331 333 330 330 328 327 325 325 324 324 324 324 325 325 325 325 325 326 326 325 323 324 324 322 322
323 326 327 324 320 322 321 322 318 314 315 310 310 311 315 325 326 329 331 331 329 328 328 327 328 331 332 330 329 329 328 325 325 324 324 324 325 326 325 324 324 325 325 325 324 324 324 322 322
328 328 327 329 319 320 320 323 319 318 316 315 310 310 310 313 324 327 329 330 330 328 328 327 327 328 329 330 329 328 327 327 327 326 324 324 325 326 326 325 325 325 325 325 325 325 324 322 321
330 328 327 323 323 328 322 331 323 322 322 319 318 316 311 309 316 323 328 329 330 330 329 327 327 327 327 328 328 327 327 326 326 326 326 325 324 325 326 326 326 325 326 325 326 325 324 322 322
328 328 330 324 324 321 322 329 323 318 323 323 321 319 317 312 309 320 325 329 330 330 329 327 327 327 327 327 327 327 327 326 325 325 326 326 325 325 325 326 327 327 326 325 325 325 324 323 322
316 320 321 321 324 330 325 327 324 320 320 319 320 321 319 314 309 311 322 327 329 330 330 327 325 326 326 326 326 326 325 325 325 325 326 326 326 326 326 326 327 328 328 326 325 325 324 323 322
321 327 329 331 329 333 320 322 329 320 317 316 317 317 316 315 312 308 311 322 327 329 330 329 326 325 326 325 326 326 326 325 325 324 325 325 326 326 326 326 326 327 328 328 327 325 324 324 324
326 329 329 336 331 330 314 322 322 318 319 315 314 313 311 312 313 312 307 316 323 327 329 330 327 324 323 324 325 325 325 325 325 324 324 325 325 324 324 325 326 326 327 327 328 327 325 324 324
325 330 319 311 301 315 316 314 313 313 312 311 308 306 306 306 306 310 310 309 319 324 327 329 329 329 326 324 323 323 324 324 324 324 324 324 325 325 326 326 328 328 328 328 328 327 327 326 325
322 320 325 320 320 320 317 315 319 314 314 312 310 308 306 304 304 306 307 308 311 318 323 327 329 330 330 330 328 325 325 324 324 324 325 325 326 326 327 328 329 329 329 329 328 327 326 325 325
322 326 322 319 317 320 318 317 310 315 311 313 310 307 305 304 304 304 303 306 309 310 317 322 327 329 329 330 331 330 329 328 327 325 326 326 327 328 329 329 330 330 330 330 329 328 327 326 324
318 325 324 330 322 315 316 315 311 309 308 307 307 305 304 303 302 301 302 304 305 306 308 312 321 324 327 328 329 330 331 330 330 330 329 328 329 329 330 331 331 331 330 330 330 329 328 326 324

GFSSGP_925_thetae_129.txt.gz
Theta_e
331 329 322 320 322 319 324 329 326 329 331 328 331 333 336 336 337 338 336 336 336 337 335 334 335 336 336 334 333 334 334 334 335 335 333 332 331 330 329 330 329 329 329 330 330 329 329 330 329
331 325 320 314 321 325 326 325 328 328 331 332 332 334 335 339 335 337 336 335 337 336 333 334 335 334 335 335 334 334 333 332 334 334 332 330 329 329 329 328 328 328 328 329 329 329 329 328 328
330 322 317 319 319 324 327 326 327 328 329 329 335 332 335 338 336 336 337 336 336 334 332 332 333 334 336 335 333 333 334 332 330 331 333 331 329 328 328 328 327 327 327 328 328 328 329 328 325
327 321 316 320 324 323 323 326 327 326 326 330 332 336 333 333 337 337 335 335 334 333 329 328 332 334 334 333 331 330 331 330 328 329 333 331 329 328 327 326 327 327 327 327 327 328 328 326 324
324 316 321 323 323 322 325 325 325 328 327 331 331 336 336 334 335 337 334 334 333 330 326 326 331 332 333 331 330 329 329 331 328 326 329 328 329 327 327 326 326 327 326 326 327 326 324 326 323
324 317 322 324 324 322 326 325 324 325 326 332 333 334 335 336 337 336 335 334 332 327 326 326 327 330 330 329 328 328 329 329 327 325 327 327 325 327 327 326 326 326 325 324 322 322 322 322 322
326 326 324 325 325 324 320 322 324 324 326 328 330 334 332 335 337 337 336 334 329 326 328 328 328 328 327 327 327 327 328 327 326 325 325 325 324 325 327 326 326 323 318 319 320 321 321 321 321
319 325 330 326 326 327 321 321 321 325 325 328 329 332 335 330 336 336 336 331 328 327 330 329 328 327 327 327 327 326 326 326 326 326 324 325 324 323 325 325 322 318 317 317 320 321 321 321 322
321 325 330 329 325 324 318 323 321 322 326 332 332 327 328 332 335 334 332 330 329 329 331 331 328 326 327 327 325 325 324 325 325 325 325 323 322 320 319 319 319 318 317 317 319 321 322 322 322
328 326 327 325 319 317 314 320 323 327 328 332 333 330 330 334 334 332 331 331 330 330 332 332 329 325 326 326 325 325 325 323 324 324 324 323 322 317 316 317 318 318 318 318 320 321 321 322 322
328 331 326 326 317 314 314 319 318 324 327 326 329 329 330 334 334 333 332 331 329 327 330 332 329 326 325 325 324 325 325 322 322 321 320 321 319 315 314 316 317 318 319 320 321 321 321 321 322
332 330 330 324 318 315 314 311 318 322 322 320 325 329 330 331 333 334 333 332 330 328 327 331 331 328 325 325 326 326 325 323 322 319 319 321 319 315 314 315 317 317 318 320 320 320 321 321 322
328 329 328 328 325 322 312 313 314 315 316 324 328 329 330 331 331 333 334 333 332 329 327 327 331 330 326 325 326 326 325 323 321 323 323 324 321 316 315 315 316 317 319 320 320 320 321 321 322
324 328 328 328 328 319 318 317 312 314 326 329 330 329 330 330 331 331 333 332 332 331 329 328 327 328 327 326 324 324 324 322 322 324 324 324 324 319 317 318 317 319 320 320 321 321 322 322 322
326 329 325 326 330 326 315 319 320 312 328 330 330 329 329 330 331 331 331 332 332 332 331 330 329 328 328 327 325 323 323 321 321 324 325 324 322 320 321 321 320 320 320 321 322 322 323 323 322
328 325 329 326 326 328 326 333 328 314 327 328 328 326 329 328 330 331 331 332 332 332 332 331 330 329 329 328 325 324 322 324 326 324 325 325 323 320 321 322 321 322 322 322 323 323 323 323 322
325 329 328 329 324 321 330 334 331 321 326 326 327 326 328 328 328 331 331 331 332 332 332 332 330 328 329 328 327 322 322 322 324 326 326 326 325 322 322 322 322 322 323 323 323 323 322 322 323
325 328 327 329 323 315 315 329 325 317 314 323 325 327 327 327 328 329 331 331 331 331 332 333 332 330 328 328 327 325 325 325 324 323 324 325 325 323 324 323 322 323 324 324 324 323 322 323 323
321 325 325 324 320 318 321 320 319 318 312 310 311 324 327 328 327 328 329 330 331 330 330 331 331 333 329 327 326 326 326 326 326 325 324 323 324 323 324 324 324 323 325 325 324 322 323 323 322
321 324 326 323 320 321 322 322 321 318 316 316 311 311 323 326 326 326 328 329 330 330 330 330 330 330 333 328 327 326 326 326 325 325 324 324 323 323 323 324 325 324 325 325 325 323 323 323 322
324 324 324 327 319 319 319 323 319 317 318 315 312 310 311 320 325 325 327 328 328 327 329 330 329 329 330 331 327 326 327 326 325 324 324 324 324 324 324 325 324 324 324 325 325 325 323 323 322
327 323 325 324 323 329 320 330 324 321 319 316 317 314 310 308 312 322 327 328 328 328 329 327 328 329 329 331 329 328 328 327 327 326 325 324 324 324 324 325 325 325 324 324 325 325 325 324 323
323 324 324 322 323 324 323 328 325 320 322 321 319 317 316 312 308 313 323 328 328 329 328 327 327 327 328 329 330 329 328 327 326 326 326 326 326 324 324 324 325 326 325 325 324 325 325 325 324
319 323 322 322 325 331 326 327 328 322 322 321 319 320 318 315 309 309 318 325 328 329 329 327 326 327 327 327 328 329 328 327 325 326 325 325 325 325 325 324 324 325 326 325 326 325 325 325 325
323 328 330 331 331 332 323 324 328 320 317 317 317 315 316 316 314 310 311 321 325 327 328 328 326 325 326 327 327 327 327 327 326 325 324 324 324 324 323 324 325 325 325 325 326 327 326 325 325
325 324 325 329 330 326 317 329 326 319 322 317 314 313 312 311 313 311 308 316 322 326 328 328 325 325 325 326 327 327 327 326 326 325 324 323 323 323 322 322 323 324 325 325 325 326 327 326 325
325 326 319 314 300 316 318 316 313 313 313 310 313 313 309 308 306 311 309 309 319 324 327 328 327 325 324 326 326 326 326 326 325 325 324 324 324 323 323 323 323 323 324 324 325 324 324 324 324
322 321 325 322 315 318 318 316 322 317 318 314 310 311 308 304 305 303 307 310 311 319 324 327 328 327 326 326 326 326 325 325 325 324 324 324 324 323 324 324 324 324 325 325 325 325 325 324 324
323 324 323 324 316 320 318 318 311 317 317 314 311 308 306 304 303 302 302 306 309 311 319 324 327 328 327 325 324 324 324 324 323 323 324 324 324 324 324 325 325 326 327 327 328 327 326 325 325
321 323 324 327 324 314 315 318 310 311 310 309 311 309 305 303 302 301 301 303 305 307 312 318 323 326 327 328 328 327 324 324 323 323 323 323 324 325 325 326 327 327 328 329 329 328 327 326 324